[[{"header":{"parameterUnit":"m.s-1","parameterCategory":1,"la1":30.6,"la2":29.2853,"lo1":-89.7004,"lo2":-87.6739,"dy":0.0162,"dx":0.0183,"nx":112,"ny":82,"refTime":"2023-03-21T06:00:00:Z","depth":0,"parameterNumber":2,"parameterNumberName":"U-component_of_WINDS"},"data":[0.0,0.0,0.0,0.0,0.0,0.0,0.0,0.0,0.0,0.0,0.0,0.0,0.0,0.0,0.0,0.0,0.0,0.0,0.0,0.0,0.0,0.0,0.0,0.0,0.0,0.0,0.0,0.0,0.0,0.0,0.0,0.0,0.0,0.0,0.0,0.0,0.0,0.0,0.0,0.0,0.0,0.0,0.0,0.0,0.0,0.0,0.0,0.0,0.0,0.0,0.0,0.0,0.0,0.0,0.0,0.0,0.0,0.0,0.0,0.0,0.0,0.0,0.0,0.0,0.0,0.0,0.0,0.0,0.0,0.0,0.0,0.0,0.0,0.0,0.0,0.0,0.0,0.0,0.0,0.0,0.0,0.0,0.0,0.0,0.0,0.0,0.0,0.0,0.0,0.0,-8.2413,-8.2859,-8.3906,-8.4651,-8.4806,-8.469,-8.4651,-8.4806,0.0,0.0,0.0,0.0,0.0,0.0,0.0,0.0,0.0,0.0,0.0,0.0,0.0,0.0,0.0,0.0,0.0,0.0,0.0,0.0,0.0,0.0,0.0,0.0,0.0,0.0,0.0,0.0,0.0,0.0,0.0,0.0,0.0,0.0,0.0,0.0,0.0,0.0,0.0,0.0,0.0,0.0,0.0,0.0,0.0,0.0,0.0,0.0,0.0,0.0,0.0,0.0,0.0,0.0,0.0,0.0,0.0,0.0,0.0,0.0,0.0,0.0,0.0,0.0,0.0,0.0,0.0,0.0,0.0,0.0,0.0,0.0,0.0,0.0,0.0,0.0,0.0,0.0,0.0,0.0,0.0,0.0,0.0,0.0,0.0,0.0,0.0,0.0,0.0,0.0,0.0,0.0,0.0,0.0,0.0,0.0,0.0,0.0,0.0,0.0,0.0,0.0,0.0,0.0,-8.3323,-8.4488,-8.5146,-8.5816,-8.6554,-8.5933,-8.5816,-8.6554,0.0,0.0,0.0,0.0,0.0,0.0,0.0,0.0,0.0,0.0,0.0,0.0,0.0,0.0,0.0,0.0,0.0,0.0,0.0,0.0,0.0,0.0,0.0,0.0,0.0,0.0,0.0,0.0,0.0,0.0,0.0,0.0,0.0,0.0,0.0,0.0,0.0,0.0,0.0,0.0,0.0,0.0,0.0,0.0,0.0,0.0,0.0,0.0,0.0,0.0,0.0,0.0,0.0,0.0,0.0,0.0,0.0,0.0,0.0,0.0,0.0,0.0,0.0,0.0,0.0,0.0,0.0,0.0,0.0,0.0,0.0,0.0,0.0,0.0,0.0,0.0,0.0,0.0,0.0,0.0,0.0,0.0,0.0,0.0,0.0,0.0,0.0,0.0,0.0,0.0,0.0,0.0,0.0,0.0,0.0,0.0,0.0,0.0,0.0,0.0,0.0,0.0,0.0,-8.3756,-8.4542,-8.573,-8.6173,-8.6554,-8.6982,-8.6632,-8.6554,-8.6982,-8.6243,0.0,0.0,0.0,0.0,0.0,0.0,0.0,0.0,0.0,0.0,0.0,0.0,0.0,0.0,0.0,0.0,0.0,0.0,0.0,0.0,0.0,0.0,0.0,0.0,0.0,0.0,0.0,0.0,0.0,0.0,0.0,0.0,0.0,0.0,0.0,0.0,0.0,0.0,0.0,0.0,0.0,0.0,0.0,0.0,0.0,0.0,0.0,0.0,0.0,0.0,0.0,0.0,0.0,0.0,0.0,0.0,0.0,0.0,0.0,0.0,0.0,0.0,0.0,0.0,0.0,0.0,0.0,0.0,0.0,0.0,0.0,0.0,0.0,0.0,0.0,0.0,0.0,0.0,0.0,0.0,0.0,0.0,0.0,0.0,0.0,0.0,0.0,0.0,0.0,0.0,0.0,0.0,0.0,0.0,0.0,0.0,0.0,0.0,0.0,0.0,0.0,0.0,-8.5151,-8.5636,-8.6494,-8.6849,-8.6982,-8.6982,-8.6982,-8.6982,-8.6982,-8.6982,0.0,0.0,0.0,0.0,0.0,0.0,0.0,0.0,0.0,0.0,0.0,0.0,0.0,0.0,0.0,0.0,0.0,0.0,0.0,0.0,0.0,0.0,0.0,0.0,0.0,0.0,0.0,0.0,0.0,0.0,0.0,0.0,0.0,0.0,0.0,0.0,0.0,0.0,0.0,0.0,0.0,0.0,0.0,0.0,0.0,0.0,0.0,0.0,0.0,0.0,0.0,0.0,0.0,0.0,0.0,0.0,0.0,0.0,0.0,0.0,0.0,0.0,0.0,0.0,0.0,0.0,0.0,0.0,0.0,0.0,0.0,0.0,0.0,0.0,0.0,0.0,0.0,0.0,0.0,0.0,0.0,0.0,0.0,0.0,0.0,0.0,0.0,0.0,0.0,0.0,0.0,0.0,0.0,0.0,0.0,0.0,0.0,0.0,0.0,0.0,0.0,0.0,-8.6037,-8.6317,-8.6571,-8.6849,-8.6982,-8.6982,-8.6982,-8.6982,-8.6982,-8.6982,0.0,0.0,0.0,0.0,0.0,0.0,0.0,0.0,0.0,0.0,0.0,0.0,0.0,0.0,0.0,0.0,0.0,0.0,0.0,0.0,0.0,0.0,0.0,0.0,0.0,0.0,0.0,0.0,0.0,0.0,0.0,0.0,0.0,0.0,0.0,0.0,0.0,0.0,0.0,0.0,0.0,0.0,0.0,0.0,0.0,0.0,0.0,0.0,0.0,0.0,0.0,0.0,0.0,0.0,0.0,0.0,0.0,0.0,0.0,0.0,0.0,0.0,0.0,0.0,0.0,0.0,0.0,0.0,0.0,0.0,0.0,0.0,0.0,0.0,0.0,0.0,0.0,0.0,0.0,0.0,0.0,0.0,0.0,0.0,0.0,0.0,0.0,0.0,0.0,0.0,0.0,0.0,0.0,0.0,0.0,0.0,0.0,0.0,0.0,0.0,0.0,0.0,-8.6114,-8.6394,0.0,-8.6849,-8.6982,-8.6982,-8.6982,-8.6982,-8.6982,0.0,0.0,0.0,0.0,0.0,0.0,0.0,0.0,0.0,0.0,0.0,0.0,0.0,0.0,0.0,0.0,0.0,0.0,0.0,0.0,0.0,0.0,0.0,0.0,0.0,0.0,0.0,0.0,0.0,0.0,0.0,0.0,0.0,0.0,0.0,0.0,0.0,0.0,0.0,0.0,0.0,0.0,0.0,0.0,0.0,0.0,0.0,0.0,0.0,0.0,0.0,0.0,0.0,0.0,0.0,0.0,0.0,0.0,0.0,0.0,0.0,0.0,0.0,0.0,0.0,0.0,0.0,0.0,0.0,0.0,0.0,0.0,0.0,0.0,0.0,0.0,0.0,0.0,0.0,0.0,0.0,0.0,0.0,0.0,0.0,0.0,0.0,0.0,0.0,0.0,0.0,0.0,0.0,0.0,0.0,0.0,0.0,0.0,0.0,0.0,0.0,0.0,-8.5945,-8.6238,-8.6467,0.0,-8.6881,-8.6982,-8.6982,-8.6982,-8.6982,-8.6982,0.0,0.0,0.0,0.0,0.0,0.0,0.0,0.0,0.0,0.0,0.0,0.0,0.0,0.0,0.0,0.0,0.0,0.0,0.0,0.0,0.0,0.0,0.0,0.0,0.0,0.0,0.0,0.0,0.0,0.0,0.0,0.0,0.0,0.0,0.0,0.0,0.0,0.0,0.0,0.0,0.0,0.0,0.0,0.0,0.0,0.0,0.0,0.0,0.0,0.0,0.0,0.0,0.0,0.0,0.0,0.0,0.0,0.0,0.0,0.0,0.0,0.0,0.0,0.0,0.0,0.0,0.0,0.0,0.0,0.0,0.0,0.0,0.0,0.0,0.0,0.0,0.0,0.0,0.0,0.0,0.0,0.0,0.0,0.0,0.0,0.0,0.0,0.0,0.0,0.0,0.0,0.0,0.0,0.0,0.0,0.0,0.0,0.0,0.0,0.0,0.0,0.0,-8.6277,-8.6467,-8.6708,-8.6972,-8.6982,-8.6982,-8.6982,-8.6982,-8.6982,0.0,0.0,0.0,0.0,0.0,0.0,0.0,0.0,0.0,0.0,0.0,0.0,0.0,0.0,0.0,0.0,0.0,0.0,0.0,0.0,0.0,0.0,0.0,0.0,0.0,0.0,0.0,0.0,0.0,0.0,0.0,0.0,0.0,0.0,0.0,0.0,0.0,0.0,0.0,0.0,0.0,0.0,0.0,0.0,0.0,0.0,0.0,0.0,0.0,0.0,0.0,0.0,0.0,0.0,0.0,0.0,0.0,0.0,0.0,0.0,0.0,0.0,0.0,0.0,0.0,0.0,0.0,0.0,0.0,0.0,0.0,0.0,0.0,0.0,0.0,0.0,0.0,0.0,0.0,0.0,0.0,0.0,0.0,0.0,0.0,0.0,0.0,0.0,0.0,0.0,0.0,0.0,0.0,0.0,0.0,0.0,0.0,0.0,0.0,0.0,0.0,0.0,0.0,-8.7251,-8.6812,-8.6559,-8.6951,-8.6982,-8.6982,-8.6982,-8.6982,-8.6982,-8.6982,0.0,0.0,0.0,0.0,0.0,0.0,0.0,0.0,0.0,0.0,0.0,0.0,0.0,0.0,0.0,0.0,0.0,0.0,0.0,0.0,0.0,0.0,0.0,0.0,0.0,0.0,0.0,0.0,0.0,0.0,0.0,0.0,0.0,0.0,0.0,0.0,0.0,0.0,0.0,0.0,0.0,0.0,0.0,0.0,0.0,0.0,0.0,0.0,0.0,0.0,0.0,0.0,0.0,0.0,0.0,0.0,0.0,0.0,0.0,0.0,0.0,0.0,0.0,0.0,0.0,0.0,0.0,0.0,0.0,0.0,0.0,0.0,0.0,0.0,0.0,0.0,0.0,0.0,0.0,0.0,0.0,0.0,0.0,0.0,0.0,0.0,0.0,0.0,0.0,0.0,0.0,0.0,0.0,0.0,0.0,0.0,0.0,0.0,0.0,0.0,0.0,0.0,-8.8127,-8.7861,-8.7563,-8.7505,-8.7525,-8.737,-8.702,-8.6982,-8.6982,-8.6982,0.0,0.0,0.0,0.0,0.0,0.0,0.0,0.0,0.0,0.0,0.0,0.0,0.0,0.0,0.0,0.0,0.0,0.0,0.0,0.0,0.0,0.0,0.0,0.0,0.0,0.0,0.0,0.0,0.0,0.0,0.0,0.0,0.0,0.0,0.0,0.0,0.0,0.0,0.0,0.0,0.0,0.0,0.0,0.0,0.0,0.0,0.0,0.0,0.0,0.0,0.0,0.0,0.0,0.0,0.0,0.0,0.0,0.0,0.0,0.0,0.0,0.0,0.0,0.0,0.0,0.0,0.0,0.0,0.0,0.0,0.0,0.0,0.0,0.0,0.0,0.0,0.0,0.0,0.0,0.0,0.0,0.0,0.0,0.0,0.0,0.0,0.0,0.0,0.0,0.0,0.0,0.0,0.0,0.0,0.0,0.0,0.0,0.0,0.0,0.0,0.0,0.0,-8.8937,-8.919,-8.9087,-8.8497,-8.8264,-8.7875,-8.7176,-8.7059,-8.6982,-8.6982,0.0,0.0,0.0,0.0,0.0,0.0,0.0,0.0,0.0,0.0,0.0,0.0,0.0,0.0,0.0,0.0,0.0,0.0,0.0,0.0,0.0,0.0,0.0,0.0,0.0,0.0,0.0,0.0,0.0,0.0,0.0,0.0,0.0,0.0,0.0,0.0,0.0,0.0,0.0,0.0,0.0,0.0,0.0,0.0,0.0,0.0,0.0,0.0,0.0,0.0,0.0,0.0,0.0,0.0,0.0,0.0,0.0,0.0,0.0,0.0,-8.8992,0.0,0.0,0.0,0.0,0.0,0.0,0.0,0.0,0.0,0.0,0.0,0.0,0.0,0.0,0.0,0.0,0.0,0.0,0.0,0.0,0.0,0.0,0.0,0.0,0.0,0.0,0.0,0.0,0.0,0.0,0.0,0.0,0.0,0.0,0.0,0.0,0.0,0.0,0.0,0.0,0.0,-9.0182,-8.8933,-8.8287,-8.9165,-8.8069,-8.7487,-8.7992,-8.737,-8.6982,-8.6982,-8.6982,0.0,0.0,0.0,0.0,0.0,0.0,0.0,0.0,0.0,0.0,0.0,0.0,0.0,0.0,0.0,0.0,0.0,0.0,0.0,0.0,0.0,0.0,0.0,0.0,0.0,0.0,0.0,0.0,0.0,0.0,0.0,0.0,0.0,0.0,0.0,0.0,0.0,0.0,0.0,0.0,0.0,0.0,0.0,0.0,0.0,0.0,0.0,0.0,0.0,0.0,0.0,0.0,0.0,0.0,0.0,0.0,0.0,0.0,0.0,0.0,-8.8992,0.0,0.0,0.0,0.0,0.0,0.0,0.0,0.0,0.0,0.0,0.0,0.0,0.0,0.0,0.0,0.0,0.0,0.0,0.0,0.0,0.0,0.0,0.0,0.0,0.0,0.0,0.0,0.0,0.0,0.0,0.0,0.0,0.0,0.0,0.0,0.0,0.0,0.0,0.0,0.0,-8.9925,-8.9398,-8.9075,-8.9437,-8.9079,-8.8691,-8.8341,-8.7875,-8.7448,-8.702,-8.6982,0.0,0.0,0.0,0.0,0.0,0.0,0.0,0.0,0.0,0.0,0.0,0.0,0.0,0.0,0.0,0.0,0.0,0.0,0.0,0.0,0.0,0.0,0.0,0.0,0.0,0.0,0.0,0.0,0.0,0.0,0.0,0.0,0.0,0.0,0.0,0.0,0.0,0.0,0.0,0.0,0.0,0.0,0.0,0.0,0.0,0.0,0.0,0.0,0.0,0.0,0.0,0.0,0.0,-8.8992,-8.8992,-8.8992,-8.8992,-8.8992,-8.8992,-8.8992,-8.8992,-8.8992,-8.8992,0.0,0.0,0.0,0.0,0.0,0.0,0.0,0.0,0.0,0.0,0.0,0.0,0.0,0.0,0.0,0.0,0.0,0.0,0.0,0.0,0.0,0.0,0.0,0.0,-8.8992,-8.8992,-8.8992,0.0,0.0,0.0,0.0,0.0,0.0,0.0,0.0,0.0,0.0,0.0,-8.9435,-8.9862,-9.0133,-8.9952,-9.0323,-9.0051,-8.8846,-8.8458,-8.7992,-8.7254,-8.7059,-8.6982,0.0,0.0,0.0,0.0,0.0,0.0,0.0,0.0,0.0,0.0,0.0,0.0,0.0,0.0,0.0,0.0,0.0,0.0,0.0,0.0,0.0,0.0,0.0,0.0,0.0,0.0,0.0,0.0,0.0,0.0,0.0,0.0,-8.4518,-8.5335,0.0,0.0,0.0,0.0,0.0,0.0,0.0,0.0,0.0,0.0,0.0,0.0,0.0,-8.8269,-8.8562,-8.8562,-8.8708,-8.8992,-8.8992,-8.8992,-8.8992,-8.8992,-8.8992,-8.8992,-8.8992,0.0,-8.8992,-8.8992,0.0,0.0,0.0,0.0,0.0,0.0,0.0,0.0,0.0,0.0,0.0,0.0,0.0,0.0,0.0,0.0,0.0,0.0,0.0,0.0,0.0,0.0,-8.8992,-8.8992,-8.8992,-8.8992,0.0,-8.9019,-8.9092,-8.922,-8.94,0.0,0.0,0.0,0.0,0.0,0.0,0.0,-9.0132,-8.9571,-8.9729,-9.1573,-9.0517,-8.9895,-9.04,-8.9157,-8.8264,-8.8147,-8.7409,-8.6982,-8.6982,-8.6982,0.0,0.0,0.0,0.0,0.0,0.0,0.0,0.0,0.0,0.0,0.0,0.0,0.0,0.0,0.0,0.0,0.0,0.0,0.0,0.0,0.0,0.0,0.0,0.0,0.0,0.0,0.0,0.0,0.0,-8.4555,-8.5372,-8.6189,-8.6598,-8.7007,0.0,0.0,0.0,0.0,0.0,0.0,0.0,0.0,0.0,-8.8084,-8.8084,-8.8208,-8.8384,-8.8436,-8.865,-8.8917,-8.8964,-8.8992,-8.8992,-8.8992,-8.8992,-8.8992,-8.8992,-8.8992,-8.8992,-8.8992,-8.8992,-8.8992,0.0,0.0,0.0,0.0,-8.8992,-8.8992,-8.8992,-8.8992,-8.8992,-8.8992,0.0,0.0,0.0,0.0,0.0,0.0,0.0,0.0,0.0,0.0,-8.8992,-8.8992,-8.8992,-8.8992,-8.8992,-8.8992,-8.9075,0.0,-8.9423,-8.9427,-8.9581,0.0,0.0,0.0,0.0,-8.8845,-8.964,-8.962,-9.001,-9.1223,-9.1138,-9.0905,-9.0789,-8.9662,-8.8769,-8.8341,-8.7487,-8.6982,-8.6982,-8.6982,-8.6982,0.0,0.0,0.0,0.0,0.0,0.0,0.0,0.0,0.0,0.0,0.0,0.0,0.0,0.0,0.0,0.0,0.0,0.0,0.0,0.0,0.0,0.0,0.0,0.0,0.0,0.0,0.0,0.0,-8.5521,-8.6189,-8.7044,-8.7118,-8.7378,0.0,0.0,0.0,0.0,0.0,0.0,-8.8084,-8.8084,-8.8084,-8.8084,-8.8307,-8.8475,-8.8591,-8.8966,-8.9256,-8.9402,-8.9574,-8.963,-8.963,-8.963,-8.963,-8.963,-8.963,-8.963,-8.9592,-8.9179,-8.8992,-8.8992,-8.8992,-8.8992,-8.8992,-8.8992,-8.8992,-8.8992,-8.8992,-8.8992,-8.8992,-8.8992,-8.8992,-8.8992,-8.8992,0.0,0.0,0.0,0.0,-8.8992,-8.8992,-8.8992,-8.8992,-8.8992,-8.8992,-8.8992,-8.8992,-8.8992,-8.9047,0.0,-8.9318,-8.94,-8.9645,0.0,0.0,0.0,0.0,-8.8762,-8.9252,-8.9793,-9.0358,-9.1068,-9.1721,-9.1838,-9.1177,-9.0323,-8.9468,-8.8652,-8.7797,-8.7215,-8.702,-8.6982,-8.6982,-8.6982,0.0,0.0,0.0,0.0,0.0,0.0,0.0,0.0,0.0,0.0,0.0,0.0,0.0,0.0,0.0,0.0,0.0,0.0,0.0,0.0,0.0,0.0,0.0,0.0,0.0,0.0,0.0,0.0,0.0,-8.7935,-8.801,0.0,0.0,0.0,0.0,-8.8084,-8.8084,-8.8084,-8.8084,-8.8084,-8.8084,-8.8084,-8.8827,-8.9293,-8.9448,-9.0415,-9.0939,-9.1088,-9.13,-9.1357,-9.1357,-9.1357,-9.1357,-9.1357,-9.1357,-9.1357,-9.1245,-8.9667,-8.8992,-8.8992,-8.8992,-8.8992,-8.8992,-8.8992,-8.8992,-8.8992,-8.8992,-8.8992,-8.8992,-8.8992,-8.8992,-8.8992,-8.8992,-8.8992,0.0,0.0,-8.8992,-8.8992,-8.8992,-8.8992,-8.8992,-8.8992,-8.8992,-8.8992,-8.8992,-8.8992,-8.8992,0.0,-8.9019,-8.8839,-8.8303,0.0,-8.8016,-8.7516,-8.7635,-8.8218,-8.9521,-8.9932,-9.059,-9.1922,-9.2071,-9.2071,-9.2032,-9.1255,-9.0361,-8.9507,-8.8691,-8.7875,-8.702,-8.6982,-8.6982,-8.6982,-8.6982,0.0,0.0,0.0,0.0,0.0,0.0,0.0,0.0,0.0,0.0,0.0,0.0,0.0,0.0,0.0,0.0,0.0,0.0,0.0,0.0,0.0,0.0,0.0,0.0,0.0,0.0,0.0,0.0,-8.8047,-8.8567,0.0,-8.8864,-8.9347,-8.9644,-8.9644,-8.9644,-8.9644,-8.9644,-8.9644,-8.9644,-8.9644,-8.9904,-9.0185,-9.0342,-9.0788,-9.1089,-9.12,-9.1412,-9.1507,-9.1507,-9.1507,-9.1507,-9.1507,-9.1507,-9.1507,-9.1432,-9.0869,-9.0606,-9.0606,-9.0606,-9.0268,-8.978,-8.978,-8.9442,-8.8992,-8.8992,-8.8992,-8.8992,-8.8992,-8.8992,-8.8992,-8.8992,-8.8992,-8.8992,-8.8992,-8.8992,-8.8992,-8.8992,-8.8992,-8.8992,-8.8992,-8.8992,-8.8992,-8.8992,-8.8992,-8.8992,-8.8992,-8.8992,-8.8962,-8.8956,-8.8775,-8.8726,-8.8883,-8.899,-8.9368,-9.0167,-9.0646,-9.1097,-9.1785,-9.2005,-9.211,-9.211,-9.1294,-9.0439,-8.9546,-8.873,-8.7914,-8.702,-8.6982,-8.6982,-8.6982,-8.6982,-8.6982,0.0,0.0,0.0,0.0,0.0,0.0,0.0,0.0,0.0,0.0,0.0,0.0,0.0,0.0,0.0,0.0,0.0,0.0,0.0,0.0,0.0,0.0,0.0,0.0,0.0,0.0,-8.8493,-8.8493,-8.9198,-8.9681,-8.9681,-9.0202,-9.0499,-9.0499,-9.0499,-9.0499,-9.0499,-9.0499,-9.0499,-9.0499,-9.0759,-9.1004,-9.1199,-9.1616,-9.1911,-9.2061,-9.2275,-9.2333,-9.2333,-9.2333,-9.2333,-9.2333,-9.2333,-9.2333,-9.2333,-9.2333,-9.2333,-9.2296,-9.1695,-9.1132,-9.0644,-9.0644,-9.0306,-8.9818,-8.9818,-8.9818,-8.978,-8.9517,-8.9405,-8.9367,-8.9067,-8.8992,-8.8992,-8.8992,-8.8992,-8.8992,-8.8992,-8.8992,-8.8992,-8.8992,-8.8992,-8.8992,-8.8992,-8.8992,-8.8992,-8.8992,-8.8992,-8.9047,-8.9238,-8.9129,-8.9129,-8.9464,-8.9667,-8.9944,-9.0402,-9.0965,-9.1415,-9.1682,-9.1921,-9.211,-9.211,-9.1566,-9.0866,-8.9973,-8.9157,-8.8302,-8.7487,-8.7137,-8.6982,-8.6982,-8.6982,-8.6982,-8.6982,0.0,0.0,0.0,0.0,0.0,0.0,0.0,0.0,0.0,0.0,0.0,0.0,0.0,0.0,0.0,0.0,0.0,0.0,0.0,0.0,0.0,0.0,0.0,-8.8121,-8.879,-8.931,-8.931,-9.0053,-9.0536,-9.0536,-9.0573,-9.0573,-9.0573,-9.0573,-9.0573,-9.0573,-9.0573,-9.0573,-9.0573,-9.1316,-9.1859,-9.2019,-9.2996,-9.3594,-9.3709,-9.3927,-9.3986,-9.3986,-9.3986,-9.3986,-9.3986,-9.3986,-9.3986,-9.3986,-9.3986,-9.3986,-9.3865,-9.2183,-9.1545,-9.1545,-9.1545,-9.1507,-9.1507,-9.1507,-9.1507,-9.1357,-9.0531,-9.0231,-9.0118,-8.9292,-8.9067,-8.9029,-8.9029,-8.9029,-8.8992,-8.8992,-8.8992,-8.8992,-8.8992,-8.8992,-8.8992,-8.8992,-8.8992,-8.8992,-8.8992,-8.8992,-8.8992,-8.8992,-8.8992,-8.8992,-8.8992,-8.9438,0.0,-9.0165,-9.0836,-9.14,-9.1668,-9.1909,-9.2099,-9.211,-9.211,-9.1721,-9.0866,-8.9973,-8.9157,-8.8341,-8.7448,-8.6982,-8.6982,-8.6982,-8.6982,-8.6982,0.0,0.0,0.0,0.0,0.0,0.0,0.0,0.0,0.0,0.0,0.0,0.0,0.0,0.0,0.0,0.0,0.0,0.0,0.0,0.0,0.0,0.0,-8.8976,-8.8976,-8.9161,-8.9533,-9.009,-9.087,-9.1353,-9.1353,-9.1948,-9.2319,-9.2319,-9.2319,-9.2319,-9.2319,-9.2319,-9.2319,-9.2319,-9.2542,-9.2784,-9.3102,-9.3358,-9.3656,-9.3927,-9.3986,-9.3986,-9.3986,-9.3986,-9.3986,-9.3986,-9.3986,-9.3986,-9.3986,-9.3986,-9.3986,-9.3948,-9.346,-9.2934,-9.2371,-9.2371,-9.1996,-9.1507,-9.1507,-9.1507,-9.1432,-9.1207,-9.1132,-9.1094,-9.0869,-9.0381,-8.9893,-8.9893,-8.9442,-8.8992,-8.8992,-8.8992,-8.8992,-8.8992,-8.8992,-8.8992,-8.8992,-8.8992,-8.8992,-8.8992,-8.8992,-8.8992,-8.8992,-8.8992,-8.8992,-8.8992,-8.9438,0.0,-8.9897,-9.0584,-9.1164,-9.14,-9.1668,-9.1885,-9.2099,-9.211,-9.1721,-9.0866,-8.9973,-8.9157,-8.8341,-8.7448,-8.6982,-8.6982,-8.6982,-8.6982,0.0,0.0,0.0,0.0,0.0,0.0,0.0,0.0,0.0,0.0,0.0,0.0,0.0,0.0,0.0,0.0,0.0,0.0,0.0,0.0,0.0,0.0,-8.8976,-8.9533,-9.0202,-9.0313,-9.0462,-9.0945,-9.1725,-9.2245,-9.2245,-9.2691,-9.2988,-9.2988,-9.2988,-9.2988,-9.2988,-9.2988,-9.2988,-9.2988,-9.3054,-9.3216,-9.3501,-9.3563,-9.3747,-9.3986,-9.3986,-9.3986,-9.3986,-9.3986,-9.3986,-9.3986,-9.3986,-9.3986,-9.3986,-9.3986,-9.3986,0.0,0.0,0.0,0.0,0.0,-9.2934,-9.2521,-9.2521,-9.2521,-9.2484,-9.2108,-9.1996,-9.192,-9.1582,-9.1132,-9.0756,-9.0756,-9.0156,-8.9517,-8.9517,-8.9254,-8.8992,-8.8992,-8.8992,-8.8992,-8.8992,-8.8992,-8.8992,-8.8992,-8.8992,0.0,-8.8992,-8.8992,-8.8992,-8.8992,-8.9438,-8.979,-8.979,-9.0499,-9.1044,-9.1181,-9.1475,-9.176,-9.1909,-9.2028,0.0,0.0,0.0,-8.8963,-8.7797,-8.7254,0.0,0.0,0.0,-8.6982,-8.6982,0.0,0.0,0.0,-8.6749,-8.671,0.0,0.0,0.0,0.0,0.0,0.0,0.0,0.0,0.0,0.0,0.0,0.0,0.0,0.0,0.0,0.0,-8.9459,-9.0053,-9.1502,-9.1799,-9.1836,-9.1836,-9.2542,-9.2988,-9.2988,-9.2988,-9.2988,-9.2988,-9.2988,-9.2988,-9.2988,0.0,0.0,0.0,0.0,-9.3275,-9.3501,-9.3618,-9.38,-9.3986,-9.3986,-9.3986,-9.3986,-9.3986,-9.3986,-9.3986,-9.3986,-9.3986,-9.3986,-9.3986,-9.3986,-9.3986,-9.3986,-9.3986,-9.3986,-9.3986,-9.3986,-9.3986,-9.3986,0.0,0.0,-9.3084,-9.2859,-9.2709,-9.1996,-9.1695,-9.162,-9.162,-9.1019,-9.0343,-9.0231,-8.9667,-8.9104,-8.9029,-8.8992,-8.8992,-8.8992,-8.8992,-8.8992,-8.8992,-8.8992,-8.8992,-8.8992,-8.8992,-8.8992,-8.8992,-8.9438,-8.979,-8.979,-9.0496,-9.0991,-9.1009,0.0,0.0,-9.1708,-9.196,-9.211,-9.211,-9.0478,-8.8807,-8.7215,-8.7059,-8.6982,-8.6982,-8.6982,-8.6982,-8.6982,-8.6982,-8.6982,-8.6982,-8.6982,-8.6982,0.0,0.0,0.0,0.0,0.0,0.0,0.0,0.0,0.0,0.0,0.0,0.0,0.0,0.0,0.0,-8.9273,-9.0387,-9.1353,-9.165,-9.2319,-9.2728,-9.2728,-9.2914,-9.2988,-9.2988,-9.2988,-9.2988,-9.2988,-9.2988,-9.2988,-9.2988,-9.2988,-9.2988,-9.2988,-9.3114,-9.3275,-9.3501,-9.3618,-9.38,-9.3986,0.0,0.0,-9.3986,-9.3986,-9.3986,-9.3986,-9.3986,-9.3986,-9.3986,-9.3986,-9.3986,-9.3986,-9.3986,-9.3986,-9.3986,-9.3986,-9.3986,-9.3986,-9.3986,-9.3986,-9.3948,-9.3798,-9.3723,-9.3723,-9.3535,-9.3009,0.0,-9.2484,-9.1883,-9.1094,-9.0381,-9.0081,-8.9818,-8.9142,-8.8992,-8.8992,-8.8992,-8.8992,-8.8992,-8.8992,-8.8992,-8.8992,-8.8992,-8.8992,-8.8992,-8.8992,-8.9438,-8.979,-8.979,-9.0317,-9.0739,-9.0991,-9.1248,-9.1475,-9.1695,-9.196,-9.211,-9.211,-9.0478,-8.9041,-8.8108,-8.737,-8.6982,-8.6982,-8.6982,-8.6982,-8.6982,-8.6982,-8.6982,-8.6982,-8.6982,-8.6982,0.0,0.0,0.0,0.0,0.0,0.0,0.0,0.0,0.0,0.0,0.0,-8.8195,0.0,0.0,-8.957,-9.0387,-9.1167,-9.1836,-9.2282,-9.2728,-9.2988,-9.2988,-9.2988,-9.2988,-9.2988,-9.2988,-9.2988,-9.2988,-9.2988,-9.2988,-9.2988,-9.2988,-9.2988,-9.2988,-9.3248,-9.3407,-9.3501,-9.3747,-9.3927,-9.3986,-9.3986,-9.3986,-9.3986,-9.3986,-9.3986,-9.3986,-9.3986,-9.3986,-9.3986,-9.3986,-9.3986,-9.3986,-9.3986,-9.3986,-9.3986,-9.3986,-9.3986,-9.3986,-9.3986,-9.3986,-9.3986,-9.3986,-9.3986,-9.3986,-9.3986,-9.3685,-9.3347,-9.3347,-9.2747,-9.1996,-9.1582,-9.0832,-9.0118,-8.9705,-8.9292,-8.8992,-8.8992,-8.8992,-8.8992,-8.8992,-8.8992,-8.8992,-8.8992,-8.8992,-8.8992,-8.8992,-8.9579,-8.9999,-8.9999,-9.0564,-9.1006,-9.1147,-9.1354,-9.1547,-9.1695,-9.196,-9.1915,-9.1488,-9.0633,-8.9584,-8.8341,-8.7875,-8.7448,-8.702,-8.6982,-8.6982,-8.6982,-8.6982,-8.6982,-8.6982,-8.6982,-8.6982,0.0,0.0,0.0,0.0,0.0,0.0,0.0,0.0,-8.7927,-8.7261,-8.7776,-8.853,-8.9161,-8.957,-9.0202,-9.1502,-9.1836,-9.2208,-9.2914,-9.2988,-9.2988,-9.2988,-9.2988,-9.2988,-9.2988,-9.2988,-9.2988,-9.2988,-9.2988,-9.2988,-9.2988,-9.2988,-9.3021,-9.3054,-9.3344,-9.3501,-9.3532,-9.3837,-9.3986,-9.3986,-9.3986,-9.3986,-9.3986,-9.3986,-9.3986,-9.3986,-9.3986,-9.3986,-9.3986,-9.3986,-9.3986,-9.3986,-9.3986,-9.3986,-9.3986,-9.3986,-9.3986,-9.3986,-9.3986,-9.3986,-9.3986,-9.3986,-9.3986,-9.3986,-9.3986,-9.3986,-9.3986,-9.3986,-9.3498,-9.2897,-9.2747,-9.1582,-9.0418,-9.0231,-8.9592,-8.8992,-8.8992,-8.8992,-8.8992,-8.8992,-8.8992,-8.8992,-8.8992,-8.8992,-8.8992,-8.8992,-8.9641,-9.0143,-9.0193,-9.0799,-9.1258,-9.1307,-9.1533,-9.1722,-9.176,-9.1983,-9.1799,-9.11,-9.0866,-9.0128,-8.8613,-8.838,-8.7875,-8.702,-8.6982,-8.6982,-8.6982,-8.6982,-8.6982,-8.6982,-8.6982,-8.6982,-8.2886,-8.3031,-8.3208,-8.3208,-8.4396,-8.5582,0.0,0.0,-8.8084,-8.799,-8.861,-8.9198,-8.9273,-9.0462,-9.1502,-9.1688,-9.2356,-9.2876,-9.2988,-9.2988,-9.2988,-9.2988,-9.2988,-9.2988,-9.2988,-9.2988,-9.2988,-9.2988,-9.2988,-9.2988,-9.2988,-9.2988,-9.3054,-9.3179,-9.3407,-9.3563,-9.3679,-9.3897,-9.3986,-9.3986,-9.3986,-9.3986,-9.3986,-9.3986,-9.3986,-9.3986,-9.3986,-9.3986,-9.3986,-9.3986,-9.3986,-9.3986,-9.3986,-9.3986,-9.3986,-9.3986,-9.3986,-9.3986,-9.3986,-9.3986,-9.3986,-9.3986,-9.3986,-9.3986,-9.3986,-9.3986,-9.3986,-9.3986,-9.3911,-9.3685,-9.2897,-9.2033,-9.1169,-9.0381,-8.9592,-8.8992,-8.8992,-8.8992,-8.8992,-8.8992,-8.8992,-8.8992,-8.8992,-8.8992,-8.8992,-8.8992,-8.9489,-8.9944,-9.0149,-9.0684,-9.1095,-9.1291,-9.1533,-9.1824,-9.2028,-9.2099,-9.2071,-9.1954,-9.1216,-9.0361,-8.939,-8.8691,-8.7875,-8.702,-8.6982,-8.6982,-8.6982,-8.6982,-8.6982,-8.6982,-8.6982,-8.6982,-8.2941,-8.312,-8.3208,-8.3208,-8.4058,-8.4765,-8.4308,-8.588,-8.7409,-8.7402,-8.8424,-8.957,-9.0536,-9.1242,-9.1873,0.0,-9.2765,-9.2988,-9.2988,-9.2988,-9.2988,-9.2988,-9.2988,-9.2988,-9.2988,-9.2988,-9.2988,-9.2988,-9.2988,-9.2988,-9.2988,-9.3086,-9.3146,-9.3211,-9.3464,-9.3618,-9.3709,-9.3927,-9.3986,-9.3986,-9.3986,-9.3986,-9.3986,-9.3986,-9.3986,-9.3986,-9.3986,-9.3986,-9.3986,-9.3986,-9.3986,-9.3986,-9.3986,-9.3986,-9.3986,-9.3986,-9.3986,-9.3986,-9.3986,-9.3986,-9.3986,-9.3986,-9.3986,-9.3986,-9.3986,-9.3986,-9.3986,-9.3986,-9.3986,-9.3911,-9.3535,-9.2822,-9.1996,-9.1132,-9.0306,-8.9555,-8.9104,-8.8992,-8.8992,-8.8992,-8.8992,-8.8992,-8.8992,-8.8992,-8.8992,-8.8992,-8.9566,-9.012,-9.0402,-9.1,-9.1513,-9.1735,-9.1873,-9.1983,-9.2099,-9.211,-9.211,-9.211,-9.176,-9.1177,-9.0284,-8.9468,-8.8613,-8.7759,-8.7254,-8.6982,-8.6982,-8.6982,-8.6982,-8.6982,-8.6982,-8.6982,-8.312,-8.3208,0.0,-8.3208,-8.3798,-8.4267,-8.3662,-8.5078,-8.6682,-8.7157,-8.8313,-8.979,-9.1395,-9.191,-9.2282,-9.2914,-9.2988,-9.2988,-9.2988,-9.2988,-9.2988,-9.2988,-9.2988,-9.2988,-9.2988,-9.2988,-9.2988,-9.2988,-9.2988,-9.2988,-9.2988,-9.3114,-9.3243,-9.3275,-9.3557,-9.3709,-9.377,-9.3927,-9.3986,-9.3986,-9.3986,-9.3986,-9.3986,-9.3986,-9.3986,-9.3986,-9.3986,-9.3986,-9.3986,-9.3986,-9.3986,-9.3986,-9.3986,-9.3986,-9.3986,-9.3986,-9.3986,-9.3986,-9.3986,-9.3986,-9.3986,-9.3986,-9.3986,-9.3986,-9.3986,-9.3986,-9.3986,-9.3986,-9.3986,-9.3986,-9.3986,-9.3347,-9.2484,-9.1695,-9.0832,-9.0005,-8.9179,-8.8992,-8.8992,-8.8992,-8.8992,-8.8992,-8.8992,-8.8992,-8.9047,-8.9211,-8.9714,-9.0187,-9.0444,-9.122,-9.1785,-9.2088,-9.211,-9.211,-9.211,-9.211,-9.211,-9.211,-9.211,-9.1721,-9.0828,-8.9973,-8.9118,-8.8302,-8.7448,-8.6982,-8.6982,-8.6982,-8.6982,-8.6982,-8.6982,-8.6982,-8.3208,0.0,-8.3208,-8.3208,-8.3798,-8.4396,-8.4355,-8.5003,-8.6099,-8.77,-8.8718,-8.9772,-9.1408,-9.2393,-9.2951,-9.2988,-9.2988,-9.2988,-9.2988,-9.2988,-9.2988,-9.2988,-9.2988,-9.2988,0.0,-9.2988,-9.2988,-9.2988,-9.2988,-9.2988,-9.2988,-9.3114,-9.3275,-9.347,-9.3618,-9.377,-9.3986,-9.3986,-9.3986,-9.3986,-9.3986,-9.3986,-9.3986,-9.3986,-9.3986,-9.3986,-9.3986,-9.3986,-9.3986,-9.3986,-9.3986,-9.3986,-9.3986,-9.3986,-9.3986,-9.3986,-9.3986,-9.3986,-9.3986,-9.3986,-9.3986,-9.3986,-9.3986,-9.3986,-9.3986,-9.3986,-9.3986,-9.3986,-9.3986,-9.3986,-9.3986,-9.3347,-9.2484,-9.1695,-9.0832,-9.0005,-8.9179,-8.8992,-8.8992,-8.8992,-8.8992,-8.8992,-8.8992,-8.8992,-8.9184,-8.9692,-8.979,-8.9897,-9.0187,-9.1099,-9.1785,-9.2088,-9.211,-9.211,-9.211,-9.211,-9.211,-9.211,-9.211,-9.1721,-9.0828,-8.9973,-8.9118,-8.8302,-8.7448,-8.6982,-8.6982,-8.6982,-8.6982,-8.6982,-8.6982,-8.6982,0.0,0.0,-8.3208,-8.3208,-8.3393,-8.3619,-8.3619,-8.511,-8.6784,-8.7847,-8.9562,-9.1239,-9.2361,-9.2802,-9.2988,-9.2988,-9.2988,-9.2988,-9.2988,-9.2988,-9.2988,-9.2988,-9.2988,0.0,0.0,0.0,0.0,-9.2988,-9.2988,-9.3054,-9.3114,-9.3275,-9.3464,-9.3618,-9.3807,-9.3927,-9.3986,-9.3986,-9.3986,-9.3986,-9.3986,-9.3986,-9.3986,-9.3986,-9.3986,-9.3986,-9.3986,-9.3986,-9.3986,-9.3986,-9.3986,-9.3986,-9.3986,-9.3986,-9.3986,-9.3986,-9.3986,-9.3986,-9.3986,-9.3986,-9.3986,-9.3986,-9.3986,-9.3986,-9.3986,-9.3986,-9.3986,-9.3986,-9.3986,-9.3986,-9.3986,-9.376,-9.3197,-9.1808,-9.1282,-9.0681,-8.9292,-8.8992,-8.8992,-8.8992,-8.8992,-8.8992,-8.8992,-8.8992,-8.9184,-8.9716,-9.0113,-9.0449,-9.0703,-9.1159,-9.1533,-9.1824,-9.1994,-9.211,-9.211,-9.211,-9.211,-9.211,-9.211,-9.1954,-9.1682,-9.0284,-8.9351,-8.9118,-8.772,-8.6982,-8.6982,-8.6982,-8.6982,-8.6982,-8.6982,-8.6982,0.0,-8.3208,-8.3208,-8.3208,-8.3208,-8.3279,-8.356,-8.4869,-8.6468,-8.8185,-8.9752,-9.127,-9.2703,-9.2988,-9.2988,-9.2988,-9.2988,-9.2988,-9.2988,-9.2988,-9.2988,-9.2988,-9.2988,-9.2988,0.0,0.0,0.0,-9.2988,-9.2988,-9.3054,-9.3211,-9.3407,-9.3563,-9.3679,-9.3897,-9.3986,-9.3986,-9.3986,-9.3986,-9.3986,-9.3986,-9.3986,-9.3986,-9.3986,-9.3986,-9.3986,-9.3986,-9.3986,-9.3986,-9.3986,-9.3986,-9.3986,-9.3986,-9.3986,-9.3986,-9.3986,-9.3986,-9.3986,-9.3986,-9.3986,-9.3986,-9.3986,-9.3986,-9.3986,-9.3986,-9.3986,-9.3986,-9.3986,-9.3986,-9.3986,-9.3986,-9.3986,-9.3573,-9.1883,-9.1507,-9.1019,-8.9367,-8.8992,-8.8992,-8.8992,-8.8992,-8.8992,-8.8992,-8.9184,-8.9386,-8.9741,-9.025,-9.0697,-9.0991,-9.1198,-9.1415,-9.1682,-9.1921,-9.211,-9.211,-9.211,-9.211,-9.211,-9.211,-9.211,-9.211,-9.0711,-8.9818,-8.9507,-8.8147,-8.7292,-8.6982,-8.6982,-8.6982,-8.6982,-8.6982,-8.6982,-8.3208,-8.3208,-8.3208,-8.3208,-8.3208,-8.3419,-8.4227,-8.4482,-8.5445,-8.8634,-8.9392,-9.0147,0.0,0.0,-9.2988,-9.2988,-9.2988,-9.2988,-9.2988,-9.2988,-9.2988,0.0,0.0,0.0,0.0,0.0,0.0,-9.2988,0.0,-9.3086,-9.3211,-9.3407,-9.3594,-9.3709,-9.3927,-9.3986,-9.3986,-9.3986,-9.3986,-9.3986,-9.3986,-9.3986,-9.3986,-9.3986,-9.3986,-9.3986,-9.3986,-9.3986,-9.3986,-9.3986,-9.3986,-9.3986,-9.3986,-9.3986,-9.3986,-9.3986,-9.3986,-9.3986,-9.3986,-9.3986,-9.3986,-9.3986,-9.3986,-9.3986,-9.3986,-9.3986,-9.3986,-9.3986,-9.3986,-9.3986,-9.3986,-9.3986,-9.3573,-9.1883,-9.1507,-9.1019,-8.9367,-8.8992,-8.8992,-8.8992,-8.8992,-8.8992,-8.8992,-8.9438,-8.979,-8.979,-9.025,-9.0697,-9.0953,-9.1181,-9.14,-9.1668,-9.1921,-9.211,-9.211,-9.211,-9.211,-9.211,-9.211,-9.211,-9.211,-9.1255,-9.04,-8.9507,-8.873,-8.7875,-8.6982,-8.6982,-8.6982,-8.6982,-8.6982,-8.6982,-8.3208,-8.3208,-8.3208,-8.3208,-8.3208,-8.3419,-8.4227,-8.5322,-8.6787,-8.8863,-9.0253,-9.1473,0.0,0.0,0.0,-9.2988,-9.2988,0.0,-9.2988,-9.2988,0.0,-9.2988,-9.2988,-9.2988,-9.2988,-9.2988,0.0,0.0,-9.3082,-9.3211,-9.3438,-9.3594,-9.3709,-9.3927,-9.3986,-9.3986,-9.3986,-9.3986,-9.3986,-9.3986,-9.3986,-9.3986,-9.3986,-9.3986,-9.3986,-9.3986,-9.3986,-9.3986,-9.3986,-9.3986,-9.3986,-9.3986,-9.3986,-9.3986,-9.3986,-9.3986,-9.3986,-9.3986,-9.3986,-9.3986,-9.3986,-9.3986,-9.3986,-9.3986,-9.3986,-9.3986,-9.3986,-9.3986,-9.3986,-9.3986,-9.3986,-9.3986,-9.3573,-9.1883,-9.1507,-9.1019,-8.9367,-8.8992,-8.8992,-8.8992,-8.8992,-8.8992,-8.8992,-8.9438,-8.979,-8.979,-9.025,-9.0614,-9.0697,-9.1059,-9.1338,-9.14,-9.1837,-9.211,-9.211,-9.211,-9.211,-9.211,-9.211,-9.211,-9.211,-9.1255,-9.04,-8.9507,-8.873,-8.7875,-8.6982,-8.6982,-8.6982,-8.6982,-8.6982,-8.6982,-8.3208,-8.3208,-8.3208,-8.3208,-8.3489,-8.3946,-8.4718,-8.5825,-8.7322,-8.9365,-9.0502,-9.151,-9.2751,-9.2988,0.0,0.0,0.0,0.0,-9.2988,-9.2988,-9.2988,0.0,-9.2988,0.0,-9.2988,-9.2988,-9.3021,0.0,-9.3146,-9.3275,-9.3501,-9.3618,-9.377,-9.3986,-9.3986,-9.3986,-9.3986,-9.3986,-9.3986,-9.3986,-9.3986,-9.3986,-9.3986,-9.3986,-9.3986,-9.3986,0.0,-9.3986,-9.3986,-9.3986,-9.3986,-9.3986,-9.3986,-9.3986,-9.3986,-9.3986,-9.3986,-9.3986,-9.3986,-9.3986,-9.3986,-9.3986,-9.3986,-9.3986,-9.3986,-9.3986,-9.3986,-9.3986,-9.3986,-9.3986,-9.3986,-9.3986,-9.3573,-9.1883,-9.1507,-9.1019,-8.9367,-8.8992,-8.8992,-8.8992,-8.8992,-8.9047,-8.9157,-8.9515,-8.9839,-8.9935,-9.0317,-9.0593,-9.0593,-9.1024,-9.1322,-9.1322,-9.1773,-9.211,-9.211,-9.211,-9.211,-9.211,-9.211,-9.211,-9.211,-9.1643,-9.0789,-8.9507,-8.9079,-8.8225,-8.6982,-8.6982,-8.6982,-8.6982,-8.6982,-8.6982,-8.3208,-8.3208,-8.3208,-8.3208,-8.3805,-8.4613,-8.5315,-8.6214,-8.7551,-8.9898,-9.048,-9.1098,-9.2717,-9.2988,-9.2988,-9.2988,0.0,-9.2988,-9.2988,-9.2988,-9.2988,-9.2988,-9.2988,-9.2988,-9.2988,-9.2988,-9.3054,-9.3179,-9.3243,-9.3306,-9.3532,-9.3649,-9.38,-9.3986,-9.3986,-9.3986,-9.3986,-9.3986,-9.3986,-9.3986,-9.3986,-9.3986,-9.3986,-9.3986,-9.3986,-9.3986,-9.3986,0.0,-9.3986,-9.3986,-9.3986,-9.3986,-9.3986,-9.3986,-9.3986,-9.3986,-9.3986,-9.3986,-9.3986,-9.3986,-9.3986,-9.3986,-9.3986,-9.3986,-9.3986,-9.3986,-9.3986,-9.3986,-9.3986,-9.3986,-9.3986,-9.3986,-9.3573,-9.1883,-9.1507,-9.1019,-8.9367,-8.8992,-8.8992,-8.8992,-8.8992,-8.9075,-8.9371,-8.9616,-8.9887,-9.0182,-9.0443,-9.0593,-9.0593,-9.1024,-9.1322,-9.1322,-9.1773,-9.211,-9.211,-9.211,-9.211,-9.211,-9.211,-9.211,-9.211,-9.1993,-9.1177,-8.9546,-8.939,-8.8574,-8.6982,-8.6982,-8.6982,-8.6982,-8.6982,-8.6982,-8.3208,-8.3208,-8.3208,-8.3208,-8.3805,-8.4613,-8.5315,-8.6683,0.0,0.0,-9.0947,-9.1803,-9.2818,-9.2988,-9.2988,-9.2988,0.0,0.0,0.0,-9.2988,-9.2988,0.0,-9.2988,-9.2988,-9.2988,-9.2988,0.0,0.0,0.0,-9.3532,-9.3649,-9.383,-9.3956,-9.3986,-9.3986,-9.3986,-9.3986,-9.3986,-9.3986,-9.3986,-9.3986,-9.3986,-9.3986,-9.3986,-9.3986,-9.3986,-9.3986,0.0,-9.3986,-9.3986,-9.3986,-9.3986,-9.3986,-9.3986,-9.3986,-9.3986,-9.3986,-9.3986,-9.3986,-9.3986,-9.3986,-9.3986,-9.3986,-9.3986,-9.3986,-9.3986,-9.3986,-9.3986,-9.3986,-9.3986,-9.3986,-9.3986,-9.3573,-9.1883,-9.1507,-9.1019,-8.9367,-8.8992,-8.8992,-8.8992,-8.8992,-8.9075,-8.9371,-8.9616,-8.9887,-9.0182,-9.0443,-9.0593,-9.0593,-9.1024,-9.1322,-9.1322,-9.1773,-9.211,-9.211,-9.211,-9.211,-9.211,-9.211,-9.211,-9.211,-9.141,-9.0556,-8.9507,-8.8846,-8.7992,-8.6982,-8.6982,-8.6982,-8.6982,-8.6982,-8.6982,-8.3208,-8.3208,-8.3208,-8.3208,-8.4086,-8.5069,-8.542,0.0,0.0,0.0,-9.1098,-9.1946,-9.2818,-9.2988,0.0,-9.2988,0.0,0.0,0.0,0.0,0.0,-9.2988,-9.2988,-9.2988,0.0,-9.3086,0.0,0.0,0.0,-9.3618,-9.3709,-9.3897,-9.3986,-9.3986,-9.3986,-9.3986,-9.3986,-9.3986,-9.3986,-9.3986,-9.3986,-9.3986,-9.3986,-9.3986,-9.3986,-9.3986,-9.3986,0.0,-9.3986,-9.3986,-9.3986,-9.3986,-9.3986,-9.3986,-9.3986,-9.3986,-9.3986,-9.3986,-9.3986,-9.3986,-9.3986,-9.3986,-9.3986,-9.3986,-9.3986,-9.3986,-9.3986,-9.3986,-9.3986,-9.3986,-9.3986,-9.3986,-9.3573,-9.1883,-9.0832,-8.9968,-8.9179,-8.8992,-8.8992,-8.8992,-8.9102,-8.9318,-8.9541,-8.9814,-9.0113,-9.0362,-9.0508,-9.0593,-9.0593,-9.0915,-9.1159,-9.1307,-9.1773,-9.211,-9.211,-9.211,-9.211,-9.211,-9.211,-9.211,-9.211,-9.1255,-9.04,-8.9507,-8.873,-8.7875,-8.6982,-8.6982,-8.6982,-8.6982,-8.6982,-8.6982,-8.3208,-8.3208,-8.3244,-8.3419,-8.4508,-8.5561,-8.5736,-8.7489,0.0,0.0,-9.0793,-9.1693,-9.2545,-9.2717,-9.2785,0.0,-9.2988,0.0,0.0,0.0,0.0,0.0,0.0,0.0,0.0,0.0,0.0,0.0,0.0,0.0,-9.374,-9.3927,-9.3986,-9.3986,-9.3986,-9.3986,-9.3986,-9.3986,-9.3986,-9.3986,-9.3986,-9.3986,-9.3986,-9.3986,-9.3986,-9.3986,-9.3986,0.0,0.0,-9.3986,-9.3986,-9.3986,-9.3986,-9.3986,-9.3986,-9.3986,-9.3986,-9.3986,-9.3986,-9.3986,-9.3986,-9.3986,-9.3986,-9.3986,-9.3986,-9.3986,-9.3986,-9.3986,-9.3986,-9.3986,-9.3986,-9.3835,-9.3272,-9.162,-9.0081,-8.8992,-8.8992,-8.8992,-8.9019,-8.9075,-8.9265,-8.9489,-8.9814,-9.0052,-9.0295,-9.0551,-9.0593,-9.0593,-9.0593,-9.0838,-9.1062,-9.1209,-9.1695,-9.2028,-9.211,-9.211,-9.211,-9.211,-9.211,-9.211,-9.211,-9.1061,-9.0206,-8.9507,-8.8536,-8.7681,-8.6982,-8.6982,-8.6982,-8.6982,-8.6982,-8.6982,-8.3208,-8.3208,-8.3384,-8.4121,-8.4894,-8.5701,-8.6439,0.0,0.0,-8.9192,-8.9914,-9.0793,-9.1657,-9.1839,-9.209,-9.2888,-9.2988,-9.2988,0.0,0.0,0.0,0.0,0.0,0.0,0.0,0.0,0.0,0.0,0.0,0.0,-9.3986,-9.3986,-9.3986,-9.3986,-9.3986,-9.3986,-9.3986,-9.3986,-9.3986,-9.3986,-9.3986,-9.3986,-9.3986,-9.3986,-9.3986,-9.3986,-9.3986,0.0,0.0,-9.3986,-9.3986,-9.3986,-9.3986,-9.3986,-9.3986,-9.3986,-9.3986,-9.3986,-9.3986,-9.3986,-9.3986,-9.3986,-9.3986,-9.3986,-9.3986,-9.3986,-9.3986,-9.3986,-9.3986,-9.3986,-9.3986,-9.3385,-9.2409,-9.0719,-8.963,-8.8992,-8.8992,-8.8992,-8.9075,-8.9318,-8.9397,-8.9541,-9.009,-9.0205,-9.0295,-9.0551,-9.0593,-9.0593,-9.0593,-9.0838,-9.0989,-9.1026,-9.1469,-9.1849,-9.2099,-9.211,-9.211,-9.211,-9.211,-9.211,-9.211,-9.0517,-8.9584,-8.9507,-8.7914,-8.7059,-8.6982,-8.6982,-8.6982,-8.6982,-8.6982,-8.6982,-8.3208,-8.3208,-8.3384,-8.4227,-8.4964,-8.5701,-8.6509,0.0,0.0,-8.9106,-8.9791,-9.0676,-9.1547,-9.1693,-9.1982,-9.2888,-9.2988,0.0,0.0,0.0,0.0,0.0,0.0,0.0,0.0,0.0,0.0,0.0,0.0,0.0,-9.3986,-9.3986,-9.3986,-9.3986,-9.3986,-9.3986,-9.3986,-9.3986,-9.3986,-9.3986,-9.3986,-9.3986,-9.3986,-9.3986,-9.3986,-9.3986,-9.3986,0.0,0.0,-9.3986,-9.3986,-9.3986,-9.3986,-9.3986,-9.3986,-9.3986,-9.3986,-9.3986,-9.3986,-9.3986,-9.3986,-9.3986,-9.3986,-9.3986,-9.3986,-9.3986,-9.3986,-9.3986,-9.3986,-9.3986,-9.3986,-9.2972,-9.1695,-9.0494,-8.9592,-8.8992,-8.8992,-8.9129,-8.9291,-8.9397,-8.9642,-8.9935,-9.0182,-9.0317,-9.0487,-9.0572,-9.0593,-9.0593,-9.0593,-9.0697,-9.0819,-9.0971,-9.1423,-9.1735,-9.1861,-9.2005,-9.211,-9.211,-9.211,-9.211,-9.211,-9.0439,-8.9507,-8.9507,-8.7836,-8.6982,-8.6982,-8.6982,-8.6982,-8.6982,-8.6982,-8.6982,-8.3208,-8.3384,-8.3735,-8.4543,-8.528,-8.6087,0.0,0.0,0.0,-8.8783,-8.9236,-8.9996,-9.1098,-9.1287,-9.1693,-9.2818,0.0,-9.2988,-9.2988,0.0,0.0,0.0,0.0,0.0,0.0,0.0,0.0,0.0,0.0,0.0,0.0,-9.3986,-9.3986,-9.3986,-9.3986,-9.3986,-9.3986,-9.3986,-9.3986,-9.3986,-9.3986,-9.3986,-9.3986,-9.3986,-9.3986,-9.3986,-9.3986,0.0,0.0,-9.3986,-9.3986,-9.3986,-9.3986,-9.3986,-9.3986,-9.3986,-9.3986,-9.3986,-9.3986,-9.3986,-9.3986,-9.3986,-9.3986,-9.3986,-9.3986,-9.3986,-9.3986,-9.3986,-9.3798,-9.3535,-9.331,-9.2183,-9.0907,-9.0043,-8.9405,-8.8992,-8.8992,-8.9211,-8.9423,-8.9489,-8.9863,-9.0228,-9.0295,-9.0487,-9.0593,-9.0593,-9.0593,-9.0593,-9.0593,-9.0593,-9.0676,-9.0858,-9.1313,-9.1603,-9.1695,-9.196,-9.211,-9.211,-9.211,-9.211,-9.211,-9.0439,-8.9507,-8.9507,-8.7836,-8.6982,-8.6982,-8.6982,-8.6982,-8.6982,-8.6982,-8.6982,-8.3208,-8.3805,-8.4578,-8.5315,-8.6087,-8.6895,0.0,0.0,0.0,-8.7925,-8.7925,-8.8416,-9.0119,-9.044,-9.0986,-9.2717,-9.2988,0.0,0.0,0.0,0.0,0.0,0.0,0.0,0.0,0.0,0.0,0.0,0.0,0.0,0.0,-9.3986,-9.3986,-9.3986,-9.3986,-9.3986,-9.3986,-9.3986,-9.3986,-9.3986,-9.3986,-9.3986,-9.3986,-9.3986,-9.3986,0.0,0.0,0.0,0.0,-9.3986,-9.3986,-9.3986,-9.3986,-9.3986,-9.3986,-9.3986,-9.3986,-9.3986,-9.3986,-9.3986,-9.3986,-9.3986,-9.3986,-9.3986,-9.3986,-9.3986,-9.3986,-9.3986,-9.3385,-9.2521,-9.1733,-9.0869,-9.0005,-8.9179,-8.8992,-8.8992,-8.8992,-8.9211,-8.9501,-8.9741,-9.0006,-9.0295,-9.0551,-9.0572,-9.0593,-9.0593,-9.0593,-9.0593,-9.0593,-9.0593,-9.0593,-9.0593,-9.1041,-9.1415,-9.1682,-9.196,-9.211,-9.211,-9.211,-9.211,-9.211,-9.0439,-8.9507,-8.9507,-8.7836,-8.6982,-8.6982,-8.6982,-8.6982,-8.6982,-8.6982,-8.6982,-8.3208,-8.3805,-8.4578,-8.5315,-8.6087,-8.6895,-8.7749,0.0,0.0,-8.7925,-8.8325,-8.9063,-9.02,-9.0871,-9.1657,-9.2818,-9.2988,0.0,0.0,0.0,0.0,0.0,0.0,0.0,0.0,0.0,0.0,0.0,0.0,0.0,0.0,-9.3986,-9.3986,-9.3986,-9.3986,-9.3986,-9.3986,-9.3986,-9.3986,-9.3986,-9.3986,-9.3986,-9.3986,-9.3986,-9.3986,0.0,0.0,0.0,0.0,-9.3986,-9.3986,-9.3986,-9.3986,-9.3986,-9.3986,-9.3986,-9.3986,-9.3986,-9.3986,-9.3986,-9.3986,-9.3986,-9.3986,-9.3986,-9.3986,-9.3986,-9.3873,-9.3272,-9.2897,-9.2371,-9.0982,-9.0418,-9.0005,-8.9179,-8.8992,-8.9047,-8.9238,-8.9464,-8.9741,-9.0006,-9.0295,-9.0508,-9.0572,-9.0593,-9.0593,-9.0593,-9.0593,-9.0593,-9.0593,-9.0593,-9.0593,-9.0593,-9.0896,-9.1198,-9.1415,-9.1849,-9.211,-9.211,-9.211,-9.1838,-9.1255,-9.0089,-8.9235,-8.8691,-8.7564,-8.6982,-8.6982,-8.6982,-8.6982,-8.6982,-8.6982,-8.6982,0.0,-8.4016,-8.4929,-8.5385,-8.6333,0.0,0.0,0.0,0.0,-8.7925,-8.8315,-8.9011,-9.02,-9.0832,-9.162,-9.2785,0.0,0.0,0.0,0.0,0.0,0.0,0.0,0.0,0.0,0.0,0.0,0.0,0.0,0.0,0.0,-9.3986,-9.3986,-9.3986,-9.3986,-9.3986,-9.3986,-9.3986,-9.3986,-9.3986,-9.3986,-9.3986,-9.3986,-9.3986,0.0,0.0,0.0,0.0,0.0,-9.3986,-9.3986,-9.3986,-9.3986,-9.3986,-9.3986,-9.3986,-9.3986,-9.3986,-9.3986,-9.3986,-9.3986,-9.3986,-9.3986,-9.3911,-9.361,-9.3498,-9.3385,-9.2859,-9.2258,-9.1545,-9.0494,-8.9968,-8.963,-8.9104,-8.8992,-8.9075,-8.9345,-8.9591,-8.9863,-9.0159,-9.0443,-9.0593,-9.0593,-9.0593,-9.0593,-9.0593,-9.0593,-9.0593,-9.0593,-9.0593,-9.0593,-9.0593,-9.0838,-9.1059,-9.1291,-9.1708,-9.1994,-9.2099,-9.211,-9.1721,-9.0828,-8.9973,-8.9118,-8.8302,-8.7448,-8.6982,-8.6982,-8.6982,-8.6982,-8.6982,-8.6982,-8.6982,0.0,-8.4367,0.0,0.0,0.0,0.0,0.0,0.0,0.0,-8.7925,-8.7971,-8.8461,-9.0037,-9.04,-9.0986,0.0,0.0,0.0,0.0,0.0,0.0,0.0,0.0,0.0,0.0,0.0,0.0,0.0,0.0,0.0,0.0,-9.3986,-9.3986,-9.3986,-9.3986,-9.3986,-9.3986,-9.3986,-9.3986,-9.3986,-9.3986,-9.3986,-9.3986,-9.3986,-9.3986,0.0,0.0,0.0,0.0,-9.3986,-9.3986,-9.3986,-9.3986,-9.3986,-9.3986,-9.3986,-9.3986,-9.3986,-9.3986,-9.3986,-9.3986,-9.3986,-9.3948,-9.376,-9.2934,-9.2709,-9.2671,-9.2559,-9.1395,-9.0193,-9.0156,-8.9555,-8.8992,-8.9019,-8.9019,-8.9102,-8.9359,-8.9642,-8.9887,-9.0182,-9.0443,-9.0593,-9.0593,-9.0593,-9.0593,-9.0593,-9.0593,-9.0593,-9.0593,-9.0593,-9.0593,-9.0593,-9.0819,-9.108,-9.1291,-9.1533,-9.1798,-9.2099,-9.2032,-9.1605,-9.075,-8.9895,-8.9041,-8.8225,-8.7409,-8.6982,-8.6982,-8.6982,-8.6982,-8.6982,-8.6982,-8.6982,-8.3981,0.0,-8.5631,-8.6263,-8.7141,-8.7925,0.0,-8.7925,-8.7925,-8.7925,-8.8371,-8.8924,-8.9364,-9.048,-9.1547,0.0,0.0,0.0,0.0,0.0,0.0,0.0,0.0,0.0,0.0,0.0,0.0,0.0,0.0,0.0,0.0,-9.3986,-9.3986,-9.3986,-9.3986,-9.3986,-9.3986,-9.3986,-9.3986,-9.3986,-9.3986,-9.3986,-9.3986,-9.3986,-9.3986,0.0,0.0,0.0,-9.3986,-9.3986,-9.3986,-9.3986,-9.3986,-9.3986,-9.3986,-9.3986,-9.3986,-9.3986,-9.3986,-9.3986,-9.3986,-9.3986,-9.3535,-9.2972,-9.2747,-9.2709,-9.2446,-9.1169,-9.0494,-9.0081,-8.9442,-8.9142,-8.9047,-8.9265,-8.9318,-8.9449,-8.9887,-9.0052,-9.0205,-9.0465,-9.0551,-9.0593,-9.0593,-9.0593,-9.0593,-9.0593,-9.0593,-9.0593,-9.0593,-9.0593,-9.0593,-9.0593,-9.0656,-9.0858,-9.1275,-9.1533,-9.1798,-9.2099,-9.1488,-9.0711,-8.9856,-8.9002,-8.8186,-8.7331,-8.7098,-8.6982,-8.6982,-8.6982,-8.6982,-8.6982,-8.6982,-8.6982,-8.4613,-8.521,-8.5701,-8.6509,-8.7281,-8.7925,-8.7925,-8.7925,-8.7925,-8.7925,-8.827,-8.865,-8.9019,-8.9873,0.0,0.0,0.0,0.0,0.0,0.0,0.0,0.0,0.0,0.0,0.0,0.0,0.0,0.0,0.0,0.0,0.0,-9.3986,-9.3986,-9.3986,-9.3986,-9.3986,-9.3986,-9.3986,-9.3986,-9.3986,-9.3986,-9.3986,-9.3986,-9.3986,-9.3986,0.0,0.0,0.0,-9.3986,-9.3986,-9.3986,-9.3986,-9.3986,-9.3986,-9.3986,-9.3986,-9.3986,-9.3986,-9.3986,-9.3986,-9.3911,-9.3535,-9.3084,-9.2559,-9.1808,-9.1545,-9.1357,-9.0456,-8.993,-8.9555,-8.9104,-8.8992,-8.9075,-8.9345,-8.9423,-8.9578,-9.0075,-9.0205,-9.0273,-9.0551,-9.0593,-9.0593,-9.0593,-9.0593,-9.0593,-9.0593,-9.0593,-9.0593,-9.0593,-9.0593,-9.0593,-9.0593,-9.0593,-9.078,-9.1275,-9.1445,-9.1502,-9.1516,-9.1061,-9.0245,-8.9002,-8.8536,-8.7875,-8.702,-8.6982,-8.6982,-8.6982,-8.6982,-8.6982,-8.6982,-8.6982,-8.6982,-8.5069,-8.5491,-8.5736,-8.6649,-8.7386,-8.7925,-8.7925,-8.7925,-8.7925,-8.7925,-8.7925,-8.8121,-8.8792,-8.9019,0.0,0.0,0.0,0.0,0.0,0.0,0.0,0.0,0.0,0.0,0.0,0.0,0.0,0.0,0.0,0.0,0.0,-9.3986,-9.3986,-9.3986,-9.3986,-9.3986,-9.3986,-9.3986,-9.3986,-9.3986,-9.3986,-9.3986,-9.3986,-9.3986,-9.3986,-9.3986,0.0,0.0,-9.3986,-9.3986,-9.3986,-9.3986,-9.3986,-9.3986,-9.3986,-9.3986,-9.3986,-9.3986,-9.3986,-9.3911,-9.3685,-9.2934,-9.2521,-9.2071,-9.0644,-9.0118,-9.0043,-9.0043,-8.9517,-8.8992,-8.8992,-8.8992,-8.9075,-8.9397,-8.9475,-8.9591,-9.0159,-9.0273,-9.0317,-9.0551,-9.0593,-9.0593,-9.0593,-9.0593,-9.0593,-9.0593,-9.0593,-9.0593,-9.0593,-9.0593,-9.0593,-9.0593,-9.0593,-9.078,-9.1275,-9.1207,-9.0977,-9.0612,-9.0595,-8.9856,-8.8186,-8.8108,-8.7759,-8.702,-8.6982,-8.6982,-8.6982,-8.6982,-8.6982,-8.6982,-8.6982,-8.6982,-8.5069,-8.5491,-8.5842,-8.7316,-8.7819,-8.7925,-8.7925,-8.7925,-8.7925,-8.7925,-8.7925,-8.7971,-8.8075,-8.865,-8.9149,0.0,0.0,0.0,0.0,0.0,0.0,0.0,0.0,0.0,0.0,0.0,0.0,0.0,0.0,0.0,0.0,-9.3986,-9.3986,-9.3986,-9.3986,-9.3986,-9.3986,-9.3986,-9.3986,-9.3986,-9.3986,-9.3986,-9.3986,-9.3986,-9.3986,-9.3986,0.0,-9.3986,-9.3986,-9.3986,-9.3986,-9.3986,-9.3986,-9.3986,-9.3986,-9.3986,-9.3986,-9.3986,-9.3986,-9.3498,-9.2897,-9.2747,-9.1733,-9.0531,-9.0306,-8.9705,-8.9179,-8.9179,-8.9104,-8.8992,-8.8992,-8.8992,-8.9129,-8.9616,-8.9716,-8.9901,-9.0443,-9.053,-9.0551,-9.0572,-9.0593,-9.0593,-9.0593,-9.0593,-9.0593,-9.0593,-9.0593,-9.0593,-9.0593,-9.0593,-9.0593,-9.0593,-9.0593,-9.078,-9.1275,-9.0666,-9.0126,-8.9719,-8.9701,-8.8963,-8.7254,-8.7215,-8.7137,-8.6982,-8.6982,-8.6982,-8.6982,-8.6982,-8.6982,-8.6982,-8.6982,-8.6982,-8.5069,-8.5491,-8.5877,-8.7492,-8.7925,-8.7925,-8.7925,-8.7925,-8.7925,-8.7925,-8.7925,-8.7925,0.0,0.0,-8.8748,-8.9791,0.0,0.0,0.0,0.0,0.0,0.0,0.0,0.0,0.0,0.0,0.0,0.0,0.0,0.0,0.0,0.0,-9.3986,-9.3986,-9.3986,-9.3986,-9.3986,-9.3986,-9.3986,-9.3986,-9.3986,-9.3986,-9.3986,-9.3986,-9.3986,-9.3986,0.0,-9.3986,-9.3986,-9.3986,-9.3986,-9.3986,-9.3986,-9.3986,-9.3986,-9.3986,-9.3685,-9.331,-9.331,-9.2747,-9.1958,-9.1507,-9.0832,-9.0118,-8.9667,-8.9292,-8.8992,-8.8992,-8.8992,-8.8992,-8.8992,-8.8992,-8.9157,-8.9667,-8.979,-8.9973,-9.0487,-9.0593,-9.0593,-9.0593,-9.0593,-9.0593,-9.0593,-9.0593,-9.0593,-9.0593,-9.0593,-9.0593,-9.0593,-9.0593,-9.0593,-9.0593,-9.0593,-9.0548,-9.0458,-9.024,-8.974,-8.8903,-8.8419,-8.7797,-8.702,-8.6982,-8.6982,-8.6982,-8.6982,-8.6982,-8.6982,-8.6982,-8.6982,-8.6982,-8.6982,-8.6982,-8.5139,-8.5631,-8.6123,-8.7573,-8.7925,-8.7925,-8.7925,-8.7925,-8.7925,-8.7925,-8.7925,-8.7925,0.0,-8.7925,0.0,0.0,0.0,0.0,0.0,0.0,0.0,0.0,0.0,0.0,0.0,0.0,0.0,0.0,0.0,0.0,0.0,0.0,-9.3986,-9.3986,-9.3986,-9.3986,-9.3986,-9.3986,-9.3986,-9.3986,-9.3986,-9.3986,-9.3986,-9.3986,-9.3986,-9.3986,-9.3986,-9.3986,-9.3986,-9.3986,-9.3986,-9.3986,-9.3986,-9.3986,-9.3977,-9.376,-9.3272,-9.2671,-9.2484,-9.1883,-9.1094,-9.0418,-9.0081,-8.9818,-8.9179,-8.8992,-8.8992,-8.8992,-8.8992,-8.8992,-8.8992,-8.9047,-8.9238,-8.9667,-8.9839,-9.0006,-9.0508,-9.0593,-9.0593,-9.0593,-9.0593,-9.0593,-9.0593,-9.0593,-9.0593,-9.0593,-9.0593,-9.0593,-9.0593,-9.0593,-9.0593,-9.0593,-9.044,-8.9992,-8.9255,-8.9408,-8.9138,-8.8049,-8.737,-8.6982,-8.6982,-8.6982,-8.6982,-8.6982,-8.6982,-8.6982,-8.6982,-8.6982,-8.6982,-8.6982,-8.6982,-8.6982,-8.528,-8.6052,-8.6825,-8.7667,-8.7925,-8.7925,-8.7925,-8.7925,-8.7925,-8.7925,-8.7925,-8.7925,-8.7925,-8.7925,0.0,0.0,0.0,0.0,0.0,0.0,0.0,0.0,0.0,0.0,0.0,0.0,0.0,0.0,0.0,0.0,0.0,0.0,0.0,-9.3986,-9.3986,-9.3986,-9.3986,-9.3986,-9.3986,-9.3986,-9.3986,-9.3986,-9.3986,-9.3986,-9.3986,-9.3986,-9.3986,-9.3986,-9.3986,-9.3986,-9.3986,-9.3986,-9.3986,-9.3986,-9.3873,-9.3084,-9.2747,-9.2596,-9.1845,-9.1019,-9.0306,-9.0231,-8.9705,-8.9067,-8.9029,-8.8992,-8.8992,-8.8992,-8.8992,-8.8992,-8.8992,-8.9184,-8.9412,-8.9716,-8.9982,-9.025,-9.053,-9.0593,-9.0593,-9.0593,-9.0593,-9.0593,-9.0593,-9.0593,-9.0593,-9.0593,-9.0593,-9.0593,-9.0593,-9.0593,-9.0593,-9.0593,-8.9867,-8.8922,-8.7773,-8.7884,-8.7793,-8.7127,-8.702,-8.6982,-8.6982,-8.6982,-8.6982,-8.6982,-8.6982,-8.6982,-8.6982,-8.6982,-8.6982,-8.6982,-8.6982,-8.6982,-8.5315,-8.6087,-8.6895,-8.7667,-8.7925,-8.7925,-8.7925,-8.7925,-8.7925,-8.7925,-8.7925,-8.7925,-8.7925,0.0,0.0,0.0,0.0,0.0,0.0,0.0,0.0,0.0,0.0,0.0,0.0,0.0,0.0,0.0,0.0,0.0,0.0,0.0,0.0,-9.3986,-9.3986,-9.3986,-9.3986,-9.3986,-9.3986,-9.3986,-9.3986,-9.3986,-9.3986,-9.3986,-9.3986,-9.3986,-9.3986,-9.3986,-9.3986,-9.3986,-9.3986,-9.3948,-9.3385,-9.3197,-9.3084,-9.2258,-9.162,-9.1094,-9.0794,-9.0156,-8.9442,-8.9442,-8.9254,-8.8992,-8.8992,-8.8992,-8.8992,-8.8992,-8.8992,-8.8992,-8.8992,-8.9211,-8.9475,-8.9716,-8.9982,-9.0273,-9.053,-9.0593,-9.0593,-9.0593,-9.0593,-9.0593,-9.0593,-9.0593,-9.0593,-9.0593,-9.0593,-9.0593,-9.0593,-9.0593,-9.0593,-9.0593,-8.937,-8.829,-8.7573,-8.7114,-8.6933,-8.701,-8.6982,-8.6982,-8.6982,-8.6982,-8.6982,-8.6982,-8.6982,-8.6982,-8.6982,-8.6982,-8.6982,-8.6982,-8.6982,-8.6982,-8.535,-8.6263,-8.7211,-8.7784,-8.7925,-8.7925,-8.7925,-8.7925,-8.7925,-8.7925,-8.7925,-8.7925,-8.7925,-8.8224,0.0,0.0,0.0,0.0,0.0,0.0,0.0,0.0,0.0,0.0,0.0,0.0,0.0,0.0,0.0,0.0,0.0,0.0,0.0,0.0,-9.3986,-9.3986,-9.3986,-9.3986,-9.3986,-9.3986,-9.3723,-9.3723,-9.3986,-9.3986,-9.3986,-9.3986,-9.3685,-9.3573,-9.3573,-9.331,-9.3197,-9.3122,-9.2559,-9.2333,-9.2221,-9.1395,-9.0719,-9.0156,-8.993,-8.9442,-8.8992,-8.8992,-8.8992,-8.8992,-8.8992,-8.8992,-8.8992,-8.8992,-8.8992,-8.8992,-8.8992,-8.9265,-8.9566,-8.9741,-9.009,-9.0362,-9.0551,-9.0593,-9.0593,-9.0593,-9.0593,-9.0593,-9.0593,-9.0593,-9.0593,-9.0593,-9.0593,-9.0593,-9.0593,-9.0593,-9.0402,-8.9867,-8.853,-8.7485,-8.7038,-8.657,-8.6465,-8.6849,-8.6961,-8.6982,-8.6982,-8.6982,-8.6982,-8.6982,-8.6982,-8.6982,-8.6982,-8.6982,-8.6982,-8.6982,-8.6982,-8.6982,-8.5491,-8.6649,-8.7925,-8.7925,-8.7925,-8.7925,-8.7925,-8.7925,-8.7925,-8.7925,-8.7925,-8.7925,-8.7925,-8.8224,0.0,0.0,0.0,0.0,0.0,0.0,0.0,0.0,0.0,0.0,0.0,0.0,0.0,0.0,0.0,0.0,0.0,0.0,0.0,0.0,-9.3986,-9.3986,-9.3986,-9.3986,-9.3986,-9.3977,-9.3084,-9.3122,-9.3986,-9.3977,-9.3977,-9.3911,-9.3047,-9.2709,-9.2634,-9.1808,-9.1507,-9.1507,-9.147,-9.147,-9.1357,-9.0531,-9.0193,-9.0081,-8.9292,-8.8992,-8.8992,-8.8992,-8.8992,-8.8992,-8.8992,-8.8992,-8.8992,-8.8992,-8.8992,-8.8992,-8.8992,-8.9386,-8.979,-8.979,-9.0205,-9.0593,-9.0593,-9.0593,-9.0593,-9.0593,-9.0593,-9.0593,-9.0593,-9.0593,-9.0593,-9.0593,-9.0593,-9.0593,-9.0593,-9.0593,-8.9944,-8.8262,-8.7307,-8.6547,-8.594,-8.6168,-8.6409,-8.6584,-8.6849,-8.6982,-8.6982,-8.6982,-8.6982,-8.6982,-8.6982,-8.6982,-8.6982,-8.6982,-8.6982,-8.6982,-8.6982,-8.6982,-8.5491,-8.6649,-8.7925,-8.7925,-8.7925,-8.7925,-8.7925,-8.7925,-8.7925,-8.7925,-8.7925,-8.7925,-8.7925,-8.8224,0.0,0.0,0.0,0.0,0.0,0.0,0.0,0.0,0.0,0.0,0.0,0.0,0.0,0.0,0.0,0.0,0.0,0.0,0.0,0.0,-9.3986,-9.3986,-9.3986,-9.3385,-9.3084,-9.3084,-9.2258,-9.2296,-9.3084,-9.2484,-9.2221,-9.2221,-9.1958,-9.1845,-9.1845,-9.1582,-9.1507,-9.1432,-9.0832,-9.0606,-9.0494,-8.9667,-8.9367,-8.933,-8.9067,-8.8992,-8.8992,-8.8992,-8.8992,-8.8992,-8.8992,-8.8992,-8.8992,-8.8992,-8.8992,-8.9047,-8.9238,-8.9515,-8.979,-8.979,-9.0205,-9.0593,-9.0593,-9.0593,-9.0593,-9.0593,-9.0593,-9.0593,-9.0593,-9.0593,-9.0593,-9.0593,-9.0593,-9.0593,-9.0593,-9.0058,-8.9294,-8.8224,-8.7307,-8.6547,-8.594,-8.6168,-8.6409,-8.6584,-8.6849,-8.6982,-8.6982,-8.6982,-8.6982,-8.6982,-8.6982,-8.6982,-8.6982,-8.6982,-8.6982,-8.6982,-8.6982,-8.6982,-8.5877,-8.6895,-8.7925,-8.7925,-8.7925,-8.7925,-8.7925,-8.7925,-8.7925,-8.7925,-8.7925,-8.7971,-8.8121,-8.8497,0.0,0.0,0.0,0.0,0.0,0.0,0.0,0.0,0.0,0.0,0.0,0.0,0.0,0.0,0.0,0.0,0.0,0.0,0.0,0.0,-9.3648,-9.346,-9.346,-9.2634,-9.2221,-9.2221,-9.1395,-9.1245,-9.1695,-9.1545,-9.1507,-9.147,-9.1132,-9.0794,-9.0494,-9.0494,-9.0494,-9.0456,-8.993,-8.9705,-8.9667,-8.9179,-8.8992,-8.8992,-8.8992,-8.8992,-8.8992,-8.8992,-8.8992,-8.8992,-8.8992,-8.8992,-8.8992,-8.8992,-8.9075,-8.9211,-8.9371,-8.9667,-8.9935,-8.9935,-9.0273,-9.0593,-9.0593,-9.0593,-9.0593,-9.0593,-9.0593,-9.0593,-9.0593,-9.0593,-9.0593,-9.0593,-9.0593,-9.0478,-9.0135,-8.937,-8.8492,-8.7689,-8.681,-8.6163,-8.5779,-8.6005,-8.6223,-8.6453,-8.6708,-8.6881,-8.6982,-8.6982,-8.6982,-8.6982,-8.6982,-8.6982,-8.6982,-8.6982,-8.6982,-8.6982,-8.6982,-8.6982,-8.6474,-8.7281,-8.7925,-8.7925,-8.7925,-8.7925,-8.7925,-8.7925,-8.7925,-8.7925,0.0,-8.7983,-8.8406,-8.8863,0.0,0.0,0.0,0.0,0.0,0.0,0.0,0.0,0.0,0.0,0.0,0.0,0.0,0.0,0.0,0.0,0.0,0.0,0.0,-9.3873,-9.3122,-9.2671,-9.2596,-9.177,-9.1357,-9.1357,-9.0494,-9.0081,-9.0118,-9.0907,-9.1245,-9.1207,-9.0418,-8.9667,-8.8992,-8.8992,-8.8992,-8.8992,-8.8992,-8.8992,-8.8992,-8.8992,-8.8992,-8.8992,-8.8992,-8.8992,-8.8992,-8.8992,-8.8992,-8.8992,-8.8992,-8.8992,-8.8992,-8.8992,-8.9211,-8.9423,-8.9449,-8.9814,-9.0205,-9.0228,-9.0443,-9.0593,-9.0593,-9.0593,-9.0593,-9.0593,-9.0593,-9.0593,-9.0593,-9.0593,-9.0593,-9.0593,-9.0593,-9.0287,-8.9409,-8.8606,-8.7766,-8.6887,-8.6008,-8.5511,-8.5511,-8.5759,-8.5983,-8.6262,-8.6467,-8.672,-8.6961,-8.6982,-8.6982,-8.6982,-8.6982,-8.6982,-8.6982,-8.6982,-8.6982,-8.6982,-8.6982,-8.6982,-8.6474,-8.7281,0.0,-8.7925,-8.7925,-8.7925,-8.7925,-8.7925,-8.7925,-8.7925,-8.7925,-8.7925,-8.7983,0.0,0.0,0.0,0.0,0.0,0.0,0.0,0.0,0.0,0.0,0.0,0.0,0.0,0.0,0.0,0.0,0.0,0.0,0.0,0.0,-9.3009,-9.2784,-9.2409,-9.177,-9.0907,-9.0494,0.0,-8.9667,-8.9254,-8.9254,-8.9442,-8.9517,-8.9517,-8.933,-8.9142,-8.8992,-8.8992,-8.8992,-8.8992,-8.8992,-8.8992,-8.8992,-8.8992,-8.8992,-8.8992,-8.8992,-8.8992,-8.8992,-8.8992,-8.8992,-8.8992,-8.8992,-8.8992,-8.8992,-8.8992,-8.9211,-8.9475,-8.9642,-8.9973,-9.025,-9.0465,-9.0551,-9.0593,-9.0593,-9.0593,-9.0593,-9.0593,-9.0593,-9.0593,-9.0593,-9.0593,-9.0593,-9.0593,-9.0593,-9.0287,-8.9409,-8.8606,-8.7766,-8.6887,-8.6008,-8.5511,-8.5511,-8.5759,-8.5915,-8.5967,-8.6384,-8.6621,-8.6696,-8.6881,-8.6982,-8.6982,-8.6982,-8.6982,-8.6982,-8.6982,-8.6982,-8.6982,-8.6982,-8.6982,0.0,0.0,0.0,-8.7925,0.0,-8.7925,-8.7925,-8.7925,-8.7925,-8.7925,-8.7925,0.0,0.0,0.0,0.0,0.0,0.0,0.0,0.0,0.0,0.0,0.0,0.0,0.0,0.0,0.0,0.0,0.0,0.0,0.0,0.0,-9.361,-9.316,-9.2709,-9.192,-9.132,-9.0869,-9.0043,-8.963,-8.963,-8.9179,-8.8992,-8.8992,-8.8992,-8.8992,-8.8992,-8.8992,-8.8992,-8.8992,-8.8992,-8.8992,-8.8992,-8.8992,-8.8992,-8.8992,-8.8992,-8.8992,-8.8992,-8.8992,-8.8992,-8.8992,-8.8992,-8.8992,-8.8992,-8.8992,-8.8992,-8.9019,-8.9157,-8.9359,-8.9642,-8.9911,-9.0205,-9.0443,-9.0551,-9.0593,-9.0593,-9.0593,-9.0593,-9.0593,-9.0593,-9.0593,-9.0593,-9.0593,-9.0593,-9.0593,-9.0593,-9.0593,-9.0173,-8.8874,-8.8339,-8.7613,-8.6314,-8.5779,-8.5511,-8.5511,-8.5628,-8.5777,-8.5881,-8.6253,-8.6494,-8.6596,-8.686,-8.6982,-8.6982,-8.6982,-8.6982,-8.6982,-8.6982,-8.6982,-8.6982,-8.6982,-8.6982,0.0,0.0,-8.7925,-8.7925,-8.7925,0.0,-8.7925,-8.7925,-8.7925,-8.7983,0.0,0.0,0.0,0.0,0.0,0.0,0.0,0.0,0.0,0.0,0.0,0.0,0.0,0.0,0.0,0.0,0.0,0.0,0.0,0.0,-9.376,-9.3084,-9.2559,-9.2296,-9.0944,-9.0156,-9.0005,-8.933,-8.8992,-8.8992,-8.8992,-8.8992,-8.8992,-8.8992,-8.8992,-8.8992,-8.8992,-8.8992,-8.8992,-8.8992,-8.8992,-8.8992,-8.8992,-8.8992,-8.8992,-8.8992,-8.8992,-8.8992,-8.8992,-8.8992,-8.8992,-8.8992,-8.8992,-8.8992,-8.8992,-8.9019,-8.9129,-8.9345,-8.9616,-8.9911,-9.0159,-9.0383,-9.0593,-9.0593,-9.0593,-9.0593,-9.0593,-9.0593,-9.0593,-9.0593,-9.0593,-9.0593,-9.0593,-9.0593,-9.0593,-9.0593,-9.0593,-8.9982,-8.8301,-8.811,-8.7422,-8.5702,-8.5511,-8.5511,-8.5511,-8.5511,-8.5571,-8.5831,-8.6066,-8.6312,-8.6533,-8.6777,-8.6961,-8.6982,-8.6982,-8.6982,-8.6982,-8.6982,-8.6982,-8.6982,-8.6982,-8.6982,0.0,0.0,-8.7925,0.0,-8.7925,-8.7925,0.0,0.0,0.0,0.0,0.0,0.0,0.0,0.0,0.0,0.0,0.0,0.0,0.0,0.0,0.0,0.0,0.0,0.0,0.0,0.0,0.0,0.0,0.0,0.0,-9.2897,-9.2747,-9.2033,-9.0606,-9.0343,-8.9893,-8.9179,-8.9029,-8.8992,-8.8992,-8.8992,-8.8992,-8.8992,-8.8992,-8.8992,-8.8992,-8.8992,-8.8992,-8.8992,-8.8992,-8.8992,-8.8992,-8.8992,-8.8992,-8.8992,-8.8992,-8.8992,-8.8992,-8.8992,-8.8992,-8.8992,-8.8992,-8.8992,-8.8992,-8.8992,-8.9157,-8.9371,-8.9397,-8.9741,-9.0159,-9.0205,-9.0383,-9.0593,-9.0593,-9.0593,-9.0593,-9.0593,-9.0593,-9.0593,-9.0593,-9.0593,-9.0593,-9.0593,-9.0593,-9.0593,-9.0593,-9.0593,-8.9982,-8.8301,-8.811,-8.7422,-8.5702,-8.5511,-8.5511,-8.5511,-8.5511,-8.5531,-8.557,-8.5813,-8.6049,-8.6336,-8.6533,-8.6754,-8.6982,-8.6982,-8.6982,-8.6982,-8.6982,-8.6982,-8.6982,-8.6982,-8.6982,-8.7819,-8.7925,-8.7925,0.0,-8.7925,-8.7925,-8.7925,0.0,0.0,0.0,0.0,0.0,0.0,0.0,0.0,0.0,0.0,0.0,0.0,0.0,0.0,0.0,0.0,0.0,0.0,0.0,0.0,0.0,0.0,-9.3084,-9.2709,-9.1808,-9.0982,-9.0231,-8.978,-8.9367,-8.8992,-8.8992,-8.8992,-8.8992,-8.8992,-8.8992,-8.8992,-8.8992,-8.8992,-8.8992,-8.8992,-8.8992,-8.8992,-8.8992,-8.8992,-8.8992,-8.8992,-8.8992,-8.8992,-8.8992,-8.8992,-8.8992,-8.8992,-8.8992,-8.8992,-8.8992,-8.8992,-8.8992,-8.8992,-8.9184,-8.9449,-8.9566,-8.9887,-9.025,-9.04,-9.0508,-9.0593,-9.0593,-9.0593,-9.0593,-9.0593,-9.0593,-9.0593,-9.0593,-9.0593,-9.0593,-9.0593,-9.0593,-9.0593,-9.0593,-9.0593,-8.9982,-8.8301,-8.811,-8.7422,-8.5702,-8.5511,-8.5511,-8.5511,-8.5511,-8.5511,-8.5511,-8.5759,-8.6,-8.6292,-8.648,-8.6731,-8.6982,-8.6982,-8.6982,-8.6982,-8.6982,-8.6982,-8.6982,-8.6982,-8.6982,0.0,0.0,-8.7925,-8.7925,-8.8018,-8.8029,0.0,0.0,0.0,0.0,0.0,0.0,0.0,0.0,0.0,0.0,0.0,0.0,0.0,0.0,0.0,0.0,0.0,0.0,0.0,0.0,0.0,0.0,0.0,-9.2521,-9.2108,-9.0907,-9.0118,-8.9893,-8.9292,-8.8992,-8.8992,-8.8992,-8.8992,-8.8992,-8.8992,-8.8992,-8.8992,-8.8992,-8.8992,-8.8992,-8.8992,-8.8992,-8.8992,-8.8992,-8.8992,-8.8992,-8.8992,-8.8992,-8.8992,-8.8992,-8.8992,-8.8992,-8.8992,-8.8992,-8.8992,-8.8992,-8.8992,-8.9019,-8.9075,-8.9291,-8.9578,-8.9814,-9.0075,-9.034,-9.0551,-9.0593,-9.0593,-9.0593,-9.0593,-9.0593,-9.0593,-9.0593,-9.0593,-9.0593,-9.0593,-9.0593,-9.0593,-9.0593,-9.0593,-9.0593,-9.0593,-8.9982,-8.8301,-8.811,-8.7422,-8.5702,-8.5511,-8.5511,-8.5511,-8.5511,-8.5511,-8.5511,-8.5685,-8.5933,-8.6292,-8.6426,-8.6684,-8.6982,-8.6982,-8.6982,-8.6982,-8.6982,-8.6982,-8.6982,-8.6982,-8.6982,0.0,-8.7925,0.0,-8.7925,0.0,0.0,0.0,0.0,0.0,0.0,0.0,0.0,0.0,0.0,0.0,0.0,0.0,0.0,0.0,0.0,0.0,0.0,0.0,0.0,0.0,0.0,0.0,0.0,0.0,-9.2033,-9.0418,-9.0268,-8.9855,-8.9104,-8.9029,-8.8992,-8.8992,-8.8992,-8.8992,-8.8992,-8.8992,-8.8992,-8.8992,-8.8992,-8.8992,-8.8992,-8.8992,-8.8992,-8.8992,-8.8992,-8.8992,-8.8992,-8.8992,-8.8992,-8.8992,-8.8992,-8.8992,-8.8992,-8.8992,-8.8992,-8.8992,-8.8992,-8.8992,-8.9047,-8.9318,-8.9541,-8.9814,-9.0075,-9.0362,-9.0572,-9.0572,-9.0593,-9.0593,-9.0593,-9.0593,-9.0593,-9.0593,-9.0593,-9.0593,-9.0593,-9.0593,-9.0593,-9.0593,-9.0593,-9.0593,-9.0593,-9.0593,-8.9982,-8.8301,-8.811,-8.7422,-8.5702,-8.5511,-8.5511,-8.5511,-8.5511,-8.5511,-8.5511,-8.5531,-8.5759,-8.6277,-8.6322,-8.6532,-8.6982,-8.6982,-8.6982,-8.6982,-8.6982,-8.6982,-8.6982,-8.6982,-8.6982,0.0,0.0,0.0,0.0,0.0,0.0,0.0,0.0,0.0,0.0,0.0,0.0,0.0,0.0,0.0,0.0,0.0,0.0,0.0,0.0,0.0,0.0,0.0,0.0,0.0,0.0,0.0,0.0,0.0,0.0,-9.0231,-8.9705,-8.9292,-8.8992,-8.8992,-8.8992,-8.8992,-8.8992,-8.8992,-8.8992,-8.8992,-8.8992,-8.8992,-8.8992,-8.8992,-8.8992,-8.8992,-8.8992,-8.8992,-8.8992,-8.8992,-8.8992,-8.8992,-8.8992,-8.8992,-8.8992,-8.8992,-8.8992,-8.8992,-8.8992,-8.9019,-8.9211,-8.9265,-8.9318,-8.9566,-8.9839,-9.009,-9.0182,-9.0383,-9.0593,-9.0593,-9.0593,-9.0593,-9.0593,-9.0593,-9.0593,-9.0593,-9.0593,-9.0593,-9.0593,-9.0593,-9.0593,-9.0593,-9.0593,-9.0593,-9.0593,-9.0593,-8.9982,-8.8301,-8.811,-8.7422,-8.5702,-8.5511,-8.5511,-8.5511,-8.5511,-8.5511,-8.5511,-8.5511,-8.5741,-8.6277,-8.6307,-8.6519,-8.6982,-8.6982,-8.6982,-8.6982,-8.6982,-8.6982,-8.6982,-8.6982,-8.6982,-8.7925,0.0,0.0,0.0,0.0,0.0,0.0,0.0,0.0,0.0,0.0,0.0,0.0,0.0,0.0,0.0,0.0,0.0,0.0,0.0,0.0,0.0,0.0,0.0,0.0,0.0,0.0,0.0,0.0,0.0,-8.9818,-8.9292,-8.8992,-8.8992,-8.8992,-8.8992,-8.8992,-8.8992,-8.8992,-8.8992,-8.8992,-8.8992,-8.8992,-8.8992,-8.8992,-8.8992,-8.8992,-8.8992,-8.8992,-8.8992,-8.8992,-8.8992,-8.8992,-8.8992,-8.8992,-8.8992,-8.8992,-8.8992,-8.8992,-8.8992,-8.9047,-8.9318,-8.9423,-8.9475,-8.9814,-9.0067,-9.0228,-9.0295,-9.0465,-9.0593,-9.0593,-9.0593,-9.0593,-9.0593,-9.0593,-9.0593,-9.0593,-9.0593,-9.0593,-9.0593,-9.0593,-9.0593,-9.0593,-9.0593,-9.0593,-9.0593,-9.0364,-8.9676,-8.8262,-8.7842,-8.7116,-8.5664,-8.5511,-8.5511,-8.5511,-8.5511,-8.5511,-8.5511,-8.5511,-8.5704,-8.6168,-8.6262,-8.6492,-8.686,-8.6961,-8.6982,-8.6982,-8.6982,-8.6982,-8.6982,-8.6982,-8.6982,0.0,0.0,0.0,0.0,0.0,0.0,0.0,0.0,0.0,0.0,0.0,0.0,0.0,0.0,0.0,0.0,0.0,0.0,0.0,0.0,0.0,0.0,0.0,0.0,0.0,0.0,0.0,0.0,0.0,-8.9818,-8.9029,-8.8992,-8.8992,-8.8992,-8.8992,-8.8992,-8.8992,-8.8992,-8.8992,-8.8992,-8.8992,-8.8992,-8.8992,-8.8992,-8.8992,-8.8992,-8.8992,-8.8992,-8.8992,-8.8992,-8.8992,-8.8992,-8.8992,-8.8992,-8.8992,-8.8992,-8.8992,-8.8992,-8.8992,-8.8992,-8.9047,-8.9345,-8.9423,-8.9515,-9.0029,-9.0228,-9.0273,-9.053,-9.0593,-9.0593,-9.0593,-9.0593,-9.0593,-9.0593,-9.0593,-9.0593,-9.0593,-9.0593,-9.0593,-9.0593,-9.0593,-9.0593,-9.0593,-9.0593,-9.0593,-9.0593,-8.9867,-8.9027,-8.8186,-8.7345,-8.6467,-8.5588,-8.5511,-8.5511,-8.5511,-8.5511,-8.5511,-8.5511,-8.5511,-8.5609,-8.5881,-8.6184,-8.6423,-8.6596,-8.686,-8.6982,-8.6982,-8.6982,-8.6982,-8.6982,-8.6982,-8.6982,-8.7925,0.0,0.0,0.0,0.0,0.0,0.0,0.0,0.0,0.0,0.0,0.0,0.0,0.0,0.0,0.0,0.0,0.0,0.0,0.0,0.0,0.0,0.0,0.0,0.0,0.0,0.0,0.0,-8.9667,-8.9217,-8.8992,-8.8992,-8.8992,-8.8992,-8.8992,-8.8992,-8.8992,-8.8992,-8.8992,-8.8992,-8.8992,-8.8992,-8.8992,-8.8992,-8.8992,-8.8992,-8.8992,-8.8992,-8.8992,-8.8992,-8.8992,-8.8992,-8.8992,-8.8992,-8.8992,-8.8992,-8.8992,-8.8992,-8.8992,-8.9129,-8.9345,-8.9591,-8.9814,-9.0029,-9.04,-9.0487,-9.0508,-9.0572,-9.0593,-9.0593,-9.0593,-9.0593,-9.0593,-9.0593,-9.0593,-9.0593,-9.0593,-9.0593,-9.0593,-9.0593,-9.0593,-9.0593,-9.0593,-9.0593,-9.0593,-9.0593,-8.9867,-8.9027,-8.8186,-8.7345,-8.6467,-8.5588,-8.5511,-8.5511,-8.5511,-8.5511,-8.5511,-8.5511,-8.5511,-8.5704,-8.6184,-8.6262,-8.6492,-8.687,-8.6961,-8.6982,-8.6982,-8.6982,-8.6982,-8.6982,-8.6982,-8.6982,-8.7925,-8.7925,-8.7971,-8.8121,0.0,0.0,0.0,-8.9893,0.0,0.0,0.0,0.0,0.0,0.0,0.0,0.0,0.0,0.0,0.0,0.0,0.0,0.0,0.0,0.0,0.0,0.0,0.0,-8.9705,-8.9254,-8.8992,-8.8992,-8.8992,-8.8992,-8.8992,-8.8992,-8.8992,-8.8992,-8.8992,-8.8992,-8.8992,-8.8992,-8.8992,-8.8992,-8.8992,-8.8992,-8.8992,-8.8992,-8.8992,-8.8992,-8.8992,-8.8992,-8.8992,-8.8992,-8.8992,-8.8992,-8.8992,-8.8992,-8.9019,-8.9129,-8.9291,-8.9475,-8.9839,-9.0052,-9.025,-9.053,-9.0593,-9.0593,-9.0593,-9.0593,-9.0593,-9.0593,-9.0593,-9.0593,-9.0593,-9.0593,-9.0593,-9.0593,-9.0593,-9.0593,-9.0593,-9.0593,-9.0593,-9.0593,-9.0593,-9.0478,-9.0135,-8.9332,-8.8492,-8.7651,-8.681,-8.6084,-8.555,-8.5511,-8.5511,-8.5511,-8.5511,-8.5511,-8.5511,-8.5511,-8.5628,-8.5933,-8.62,-8.6437,-8.6684,-8.692,-8.6982,-8.6982,-8.6982,-8.6982,-8.6982,-8.6982,-8.6982,-8.7925,-8.7925,-8.8029,-8.8416,-8.8551,0.0,-8.9683,-8.997,-9.0058,0.0,0.0,0.0,0.0,0.0,0.0,0.0,0.0,0.0,0.0,0.0,0.0,0.0,0.0,0.0,0.0,-9.0081,-8.978,-8.9029,-8.8992,-8.8992,-8.8992,-8.8992,-8.8992,-8.8992,-8.8992,-8.8992,-8.8992,-8.8992,-8.8992,-8.8992,-8.8992,-8.8992,-8.8992,-8.8992,-8.8992,-8.8992,-8.8992,-8.8992,-8.8992,-8.8992,-8.8992,-8.8992,-8.8992,-8.8992,-8.8992,-8.8992,-8.9019,-8.9075,-8.9318,-8.9449,-8.9541,-9.0067,-9.0228,-9.0295,-9.053,-9.0593,-9.0593,-9.0593,-9.0593,-9.0593,-9.0593,-9.0593,-9.0593,-9.0593,-9.0593,-9.0593,-9.0593,-9.0593,-9.0593,-9.0593,-9.0593,-9.0593,-9.0593,-9.0593,-9.0326,-8.9447,-8.8606,-8.7804,-8.6925,-8.6046,-8.5511,-8.5511,-8.5511,-8.5511,-8.5511,-8.5511,-8.5511,-8.5511,-8.5511,-8.5531,-8.5551,-8.6055,-8.6322,-8.6336,-8.6782,-8.6982,-8.6982,-8.6982,-8.6982,-8.6982,-8.6982,-8.6982,-8.7925,-8.8167,-8.8406,-8.8461,-8.9083,0.0,-8.9887,-9.0218,-9.028,0.0,0.0,0.0,0.0,0.0,0.0,0.0,0.0,0.0,0.0,0.0,0.0,0.0,0.0,0.0,0.0,-8.9217,-8.9179,-8.8992,-8.8992,-8.8992,-8.8992,-8.8992,-8.8992,-8.8992,-8.8992,-8.8992,-8.8992,-8.8992,-8.8992,-8.8992,-8.8992,-8.8992,-8.8992,-8.8992,-8.8992,-8.8992,-8.8992,-8.8992,-8.8992,-8.8992,-8.8992,-8.8992,-8.8992,-8.8992,-8.8992,-8.8992,-8.9129,-8.9345,-8.9397,-8.9667,-9.0052,-9.0182,-9.034,-9.053,-9.0572,-9.0593,-9.0593,-9.0593,-9.0593,-9.0593,-9.0593,-9.0593,-9.0593,-9.0593,-9.0593,-9.0593,-9.0593,-9.0593,-9.0593,-9.0593,-9.0593,-9.0593,-9.0593,-9.0593,-9.0326,-8.9447,-8.8606,-8.7804,-8.6925,-8.6046,-8.5511,-8.5511,-8.5511,-8.5511,-8.5511,-8.5511,-8.5511,-8.5511,-8.5511,-8.559,-8.5793,-8.6153,-8.6394,-8.6533,-8.6838,-8.6982,-8.6982,-8.6982,-8.6982,-8.6982,-8.6982,-8.6982,-8.7925,-8.8178,-8.8551,-8.8775,-8.9386,0.0,0.0,-9.0132,-8.9893,0.0,0.0,0.0,0.0,0.0,0.0,0.0,0.0,0.0,0.0,0.0,0.0,0.0,0.0,0.0,0.0,-8.8992,-8.8992,-8.8992,-8.8992,-8.8992,-8.8992,-8.8992,-8.8992,-8.8992,-8.8992,-8.8992,-8.8992,-8.8992,-8.8992,-8.8992,-8.8992,-8.8992,-8.8992,-8.8992,-8.8992,-8.8992,-8.8992,-8.8992,-8.8992,-8.8992,-8.8992,-8.8992,-8.8992,-8.8992,-8.9019,-8.9157,-8.9291,-8.9449,-8.9692,-8.9996,-9.0228,-9.034,-9.0487,-9.0593,-9.0593,-9.0593,-9.0593,-9.0593,-9.0593,-9.0593,-9.0593,-9.0593,-9.0593,-9.0593,-9.0593,-9.0593,-9.0593,-9.0593,-9.0593,-9.0593,-9.0593,-9.0593,-9.0593,-9.0249,-8.9676,-8.8835,-8.7995,-8.7154,-8.6275,-8.5779,-8.5511,-8.5511,-8.5511,-8.5511,-8.5511,-8.5511,-8.5511,-8.5511,-8.5511,-8.5532,-8.5704,-8.5971,-8.6253,-8.6596,-8.686,-8.6982,-8.6982,-8.6982,-8.6982,-8.6982,-8.6982,-8.6982,0.0,0.0,0.0,0.0,0.0,-9.0053,0.0,0.0,0.0,0.0,0.0,0.0,0.0,0.0,0.0,0.0,0.0,0.0,0.0,0.0,0.0,0.0,0.0,0.0,0.0,-8.8992,-8.8992,-8.8992,-8.8992,-8.8992,-8.8992,-8.8992,-8.8992,-8.8992,-8.8992,-8.8992,-8.8992,-8.8992,-8.8992,-8.8992,-8.8992,-8.8992,-8.8992,-8.8992,-8.8992,-8.8992,-8.8992,-8.8992,-8.8992,-8.8992,-8.8992,-8.8992,-8.8992,-8.8992,-8.9019,-8.9318,-8.9449,-8.9578,-9.0006,-9.025,-9.0317,-9.053,-9.0593,-9.0593,-9.0593,-9.0593,-9.0593,-9.0593,-9.0593,-9.0593,-9.0593,-9.0593,-9.0593,-9.0593,-9.0593,-9.0593,-9.0593,-9.0593,-9.0555,-9.0402,-9.0364,-9.0364,-9.0364,-8.9791,-8.8988,-8.7995,-8.7269,-8.6505,-8.5626,-8.5511,-8.5511,-8.5511,-8.5511,-8.5511,-8.5511,-8.5511,-8.5511,-8.5511,-8.5511,-8.5511,-8.5511,-8.5813,-8.6177,-8.6584,-8.686,-8.6982,-8.6982,-8.6982,-8.6982,-8.6982,-8.6982,-8.6982,0.0,0.0,0.0,0.0,-8.9556,0.0,0.0,0.0,-8.9205,-8.8481,0.0,0.0,0.0,0.0,0.0,0.0,0.0,0.0,0.0,0.0,0.0,0.0,0.0,0.0,0.0,0.0,-8.8992,-8.8992,-8.8992,-8.8992,-8.8992,-8.8992,-8.8992,-8.8992,-8.8992,-8.8992,-8.8992,-8.8992,-8.8992,-8.8992,-8.8992,-8.8992,-8.8992,-8.8992,-8.8992,-8.8992,-8.8992,-8.8992,-8.8992,-8.8992,-8.8992,-8.8992,-8.8992,-8.8992,-8.9019,-8.9318,-8.9541,-8.979,-9.0113,-9.034,-9.0551,-9.0572,-9.0593,-9.0593,-9.0593,-9.0593,-9.0593,-9.0593,-9.0593,-9.0593,-9.0593,-9.0593,-9.0593,-9.0593,-9.0593,-9.0593,-9.0593,-9.0593,-9.0364,-8.96,-8.9447,-8.9447,-8.9447,-8.937,-8.8759,-8.7192,-8.6887,-8.6505,-8.5626,-8.5511,-8.5511,-8.5511,-8.5511,-8.5511,-8.5511,-8.5511,-8.5511,-8.5511,-8.5511,-8.5511,-8.5511,-8.6005,-8.6341,-8.6596,-8.686,-8.6982,-8.6982,-8.6982,-8.6982,-8.6982,-8.6982,-8.6982,0.0,0.0,0.0,0.0,0.0,0.0,-9.0541,0.0,-8.8626,0.0,0.0,0.0,0.0,0.0,0.0,0.0,0.0,0.0,0.0,0.0,0.0,0.0,0.0,0.0,0.0,0.0,0.0,0.0,0.0,-8.8992,-8.8992,-8.8992,-8.8992,-8.8992,-8.8992,-8.8992,-8.8992,-8.8992,-8.8992,-8.8992,-8.8992,-8.8992,-8.8992,-8.8992,-8.8992,-8.8992,-8.8992,-8.8992,-8.8992,-8.8992,-8.8992,-8.8992,-8.8992,-8.8992,-8.9047,-8.9464,-8.9692,-8.9839,-9.0273,-9.0508,-9.0593,-9.0593,-9.0593,-9.0593,-9.0593,-9.0593,-9.0593,-9.0593,-9.0593,-9.0593,-9.0593,-9.0593,-9.0593,-9.0593,-9.0593,-9.0593,-9.0593,-9.0211,-8.9752,-8.937,-8.8912,-8.8453,-8.7957,-8.7842,-8.7613,-8.6925,-8.639,-8.5932,-8.555,-8.5511,-8.5511,-8.5511,-8.5511,-8.5511,-8.5511,-8.5511,-8.5511,-8.5511,-8.5511,-8.5552,-8.5741,-8.612,-8.637,-8.6596,-8.686,-8.6982,-8.6982,-8.6982,-8.6982,-8.6982,-8.6982,-8.6982,-8.8406,0.0,0.0,0.0,0.0,0.0,0.0,0.0,0.0,0.0,0.0,0.0,0.0,0.0,0.0,0.0,0.0,0.0,0.0,0.0,0.0,0.0,0.0,0.0,0.0,0.0,0.0,0.0,-8.8992,-8.8992,-8.8992,-8.8992,-8.8992,-8.8992,-8.8992,-8.8992,-8.8992,-8.8992,-8.8992,-8.8992,-8.8992,-8.8992,-8.8992,-8.8992,-8.8992,-8.8992,-8.8992,-8.8992,-8.8992,-8.8992,-8.8992,-8.8992,-8.8992,-8.9047,-8.9184,-8.9616,-8.979,-8.9863,-9.0422,-9.0593,-9.0593,-9.0593,-9.0593,-9.0593,-9.0593,-9.0593,-9.0593,-9.0593,-9.0593,-9.0593,-9.0593,-9.0593,-9.0593,-9.0593,-9.044,-9.0249,-9.0249,-8.9561,-8.8912,-8.8683,-8.8148,-8.746,-8.6581,-8.6658,-8.6734,-8.6505,-8.5932,-8.5511,-8.5511,-8.5511,-8.5511,-8.5511,-8.5511,-8.5511,-8.5511,-8.5511,-8.5511,-8.5511,-8.5511,-8.5571,-8.5795,-8.6137,-8.638,-8.6507,-8.6838,-8.6982,-8.6982,-8.6982,-8.6982,-8.6982,-8.6982,-8.6982,0.0,0.0,0.0,-8.9641,0.0,0.0,0.0,0.0,-8.8188,0.0,0.0,0.0,0.0,0.0,0.0,-8.3393,0.0,0.0,0.0,0.0,0.0,0.0,0.0,0.0,0.0,0.0,0.0,-8.8992,-8.8992,-8.8992,-8.8992,-8.8992,-8.8992,-8.8992,-8.8992,-8.8992,-8.8992,-8.8992,-8.8992,-8.8992,-8.8992,-8.8992,-8.8992,-8.8992,-8.8992,-8.8992,-8.8992,-8.8992,-8.8992,-8.8992,-8.8992,-8.8992,-8.8992,-8.9157,-8.9423,-8.9692,-8.979,-8.9863,-9.0422,-9.0593,-9.0593,-9.0593,-9.0593,-9.0593,-9.0593,-9.0593,-9.0593,-9.0593,-9.0593,-9.0593,-9.0593,-9.0593,-9.0593,-9.0593,-8.9982,-8.9332,-8.9332,-8.8721,-8.788,-8.704,-8.6887,-8.6581,-8.5702,-8.6237,-8.6505,-8.5664,-8.5511,-8.5511,-8.5511,-8.5511,-8.5511,-8.5511,-8.5511,-8.5511,-8.5511,-8.5511,-8.5511,-8.5511,-8.5511,-8.5511,-8.5511,-8.6038,-8.6307,-8.6307,-8.677,-8.6982,-8.6982,-8.6982,-8.6982,-8.6982,-8.6982,-8.6982,0.0,0.0,-8.9556,-9.0218,0.0,0.0,0.0,0.0,0.0,0.0,0.0,0.0,0.0,0.0,0.0,0.0,0.0,0.0,0.0,0.0,0.0,0.0,0.0,0.0,0.0,0.0,0.0,-8.8992,-8.8992,-8.8992,0.0,-8.8992,-8.8992,-8.8992,-8.8992,-8.8992,-8.8992,-8.8992,-8.8992,-8.8992,-8.8992,-8.8992,-8.8992,-8.8992,-8.8992,-8.8992,-8.8992,-8.8992,-8.8992,-8.8992,-8.8992,-8.9019,-8.9211,-8.9318,-8.9449,-8.9692,-8.9887,-9.0137,-9.0487,-9.0593,-9.0593,-9.0593,-9.0593,-9.0593,-9.0593,-9.0593,-9.0593,-9.0593,-9.0593,-9.0593,-9.0593,-9.0173,-8.9752,-8.9752,-8.9103,-8.8492,-8.8492,-8.7842,-8.7154,-8.6887,-8.6352,-8.5855,-8.555,-8.5741,-8.5855,-8.555,-8.5511,-8.5511,-8.5511,-8.5511,-8.5511,-8.5511,-8.5511,-8.5511,-8.5511,-8.5511,-8.5511,-8.5511,-8.5511,-8.5647,-8.6,-8.6215,-8.6451,-8.677,-8.693,-8.6982,-8.6982,-8.6982,-8.6982,-8.6982,-8.6982,-8.6982,-8.93,-8.9683,0.0,-9.0461,-9.0581,0.0,-9.0581,0.0,0.0,0.0,0.0,0.0,0.0,0.0,0.0,0.0,0.0,0.0,0.0,0.0,0.0,0.0,0.0,0.0,0.0,0.0,-8.8992,-8.8992,-8.8992,-8.8992,0.0,0.0,-8.8992,-8.8992,-8.8992,-8.8992,-8.8992,-8.8992,-8.8992,-8.8992,-8.8992,-8.8992,-8.8992,-8.8992,-8.8992,-8.8992,-8.8992,-8.8992,-8.8992,-8.8992,-8.9047,-8.9157,-8.9345,-8.9527,-8.9692,-8.9863,-9.0113,-9.0362,-9.053,-9.0593,-9.0593,-9.0593,-9.0593,-9.0593,-9.0593,-9.0593,-9.0555,-9.0211,-9.0364,-9.0478,-8.9867,-8.9523,-8.9218,-8.895,-8.8224,-8.7651,-8.7651,-8.6963,-8.6352,-8.6352,-8.5893,-8.5511,-8.5511,-8.5511,-8.5511,-8.5511,-8.5511,-8.5511,-8.5511,-8.5511,-8.5511,-8.5511,-8.5511,-8.5511,-8.5511,-8.5511,-8.5511,-8.5511,-8.5511,-8.5647,-8.6022,-8.6215,-8.6567,-8.7185,-8.7047,-8.7137,-8.7448,-8.7137,-8.6982,-8.6982,-8.6982,-8.6982]},{"header":{"parameterUnit":"m.s-1","parameterCategory":1,"la1":30.6,"la2":29.2853,"lo1":-89.7004,"lo2":-87.6739,"dy":0.0162,"dx":0.0183,"nx":112,"ny":82,"refTime":"2023-03-21T06:00:00:Z","depth":0,"parameterNumber":3,"parameterNumberName":"V-component_of_WINDS"},"data":[0.0,0.0,0.0,0.0,0.0,0.0,0.0,0.0,0.0,0.0,0.0,0.0,0.0,0.0,0.0,0.0,0.0,0.0,0.0,0.0,0.0,0.0,0.0,0.0,0.0,0.0,0.0,0.0,0.0,0.0,0.0,0.0,0.0,0.0,0.0,0.0,0.0,0.0,0.0,0.0,0.0,0.0,0.0,0.0,0.0,0.0,0.0,0.0,0.0,0.0,0.0,0.0,0.0,0.0,0.0,0.0,0.0,0.0,0.0,0.0,0.0,0.0,0.0,0.0,0.0,0.0,0.0,0.0,0.0,0.0,0.0,0.0,0.0,0.0,0.0,0.0,0.0,0.0,0.0,0.0,0.0,0.0,0.0,0.0,0.0,0.0,0.0,0.0,0.0,0.0,-1.4903,-1.3216,-1.0581,-0.8897,-0.8913,-0.8901,-0.8897,-0.8913,0.0,0.0,0.0,0.0,0.0,0.0,0.0,0.0,0.0,0.0,0.0,0.0,0.0,0.0,0.0,0.0,0.0,0.0,0.0,0.0,0.0,0.0,0.0,0.0,0.0,0.0,0.0,0.0,0.0,0.0,0.0,0.0,0.0,0.0,0.0,0.0,0.0,0.0,0.0,0.0,0.0,0.0,0.0,0.0,0.0,0.0,0.0,0.0,0.0,0.0,0.0,0.0,0.0,0.0,0.0,0.0,0.0,0.0,0.0,0.0,0.0,0.0,0.0,0.0,0.0,0.0,0.0,0.0,0.0,0.0,0.0,0.0,0.0,0.0,0.0,0.0,0.0,0.0,0.0,0.0,0.0,0.0,0.0,0.0,0.0,0.0,0.0,0.0,0.0,0.0,0.0,0.0,0.0,0.0,0.0,0.0,0.0,0.0,0.0,0.0,0.0,0.0,0.0,0.0,-1.6196,-1.3665,-1.0738,-0.902,-0.9097,-0.9032,-0.902,-0.9097,0.0,0.0,0.0,0.0,0.0,0.0,0.0,0.0,0.0,0.0,0.0,0.0,0.0,0.0,0.0,0.0,0.0,0.0,0.0,0.0,0.0,0.0,0.0,0.0,0.0,0.0,0.0,0.0,0.0,0.0,0.0,0.0,0.0,0.0,0.0,0.0,0.0,0.0,0.0,0.0,0.0,0.0,0.0,0.0,0.0,0.0,0.0,0.0,0.0,0.0,0.0,0.0,0.0,0.0,0.0,0.0,0.0,0.0,0.0,0.0,0.0,0.0,0.0,0.0,0.0,0.0,0.0,0.0,0.0,0.0,0.0,0.0,0.0,0.0,0.0,0.0,0.0,0.0,0.0,0.0,0.0,0.0,0.0,0.0,0.0,0.0,0.0,0.0,0.0,0.0,0.0,0.0,0.0,0.0,0.0,0.0,0.0,0.0,0.0,0.0,0.0,0.0,0.0,-1.5807,-1.4527,-1.2526,-1.039,-0.9097,-0.9142,-0.9105,-0.9097,-0.9142,-0.9065,0.0,0.0,0.0,0.0,0.0,0.0,0.0,0.0,0.0,0.0,0.0,0.0,0.0,0.0,0.0,0.0,0.0,0.0,0.0,0.0,0.0,0.0,0.0,0.0,0.0,0.0,0.0,0.0,0.0,0.0,0.0,0.0,0.0,0.0,0.0,0.0,0.0,0.0,0.0,0.0,0.0,0.0,0.0,0.0,0.0,0.0,0.0,0.0,0.0,0.0,0.0,0.0,0.0,0.0,0.0,0.0,0.0,0.0,0.0,0.0,0.0,0.0,0.0,0.0,0.0,0.0,0.0,0.0,0.0,0.0,0.0,0.0,0.0,0.0,0.0,0.0,0.0,0.0,0.0,0.0,0.0,0.0,0.0,0.0,0.0,0.0,0.0,0.0,0.0,0.0,0.0,0.0,0.0,0.0,0.0,0.0,0.0,0.0,0.0,0.0,0.0,0.0,-1.444,-1.2894,-1.1579,-0.9991,-0.9142,-0.9142,-0.9142,-0.9142,-0.9142,-0.9142,0.0,0.0,0.0,0.0,0.0,0.0,0.0,0.0,0.0,0.0,0.0,0.0,0.0,0.0,0.0,0.0,0.0,0.0,0.0,0.0,0.0,0.0,0.0,0.0,0.0,0.0,0.0,0.0,0.0,0.0,0.0,0.0,0.0,0.0,0.0,0.0,0.0,0.0,0.0,0.0,0.0,0.0,0.0,0.0,0.0,0.0,0.0,0.0,0.0,0.0,0.0,0.0,0.0,0.0,0.0,0.0,0.0,0.0,0.0,0.0,0.0,0.0,0.0,0.0,0.0,0.0,0.0,0.0,0.0,0.0,0.0,0.0,0.0,0.0,0.0,0.0,0.0,0.0,0.0,0.0,0.0,0.0,0.0,0.0,0.0,0.0,0.0,0.0,0.0,0.0,0.0,0.0,0.0,0.0,0.0,0.0,0.0,0.0,0.0,0.0,0.0,0.0,-1.4591,-1.3093,-1.159,-0.9991,-0.9142,-0.9142,-0.9142,-0.9142,-0.9142,-0.9142,0.0,0.0,0.0,0.0,0.0,0.0,0.0,0.0,0.0,0.0,0.0,0.0,0.0,0.0,0.0,0.0,0.0,0.0,0.0,0.0,0.0,0.0,0.0,0.0,0.0,0.0,0.0,0.0,0.0,0.0,0.0,0.0,0.0,0.0,0.0,0.0,0.0,0.0,0.0,0.0,0.0,0.0,0.0,0.0,0.0,0.0,0.0,0.0,0.0,0.0,0.0,0.0,0.0,0.0,0.0,0.0,0.0,0.0,0.0,0.0,0.0,0.0,0.0,0.0,0.0,0.0,0.0,0.0,0.0,0.0,0.0,0.0,0.0,0.0,0.0,0.0,0.0,0.0,0.0,0.0,0.0,0.0,0.0,0.0,0.0,0.0,0.0,0.0,0.0,0.0,0.0,0.0,0.0,0.0,0.0,0.0,0.0,0.0,0.0,0.0,0.0,0.0,-1.4604,-1.3104,0.0,-0.9991,-0.9142,-0.9142,-0.9142,-0.9142,-0.9142,0.0,0.0,0.0,0.0,0.0,0.0,0.0,0.0,0.0,0.0,0.0,0.0,0.0,0.0,0.0,0.0,0.0,0.0,0.0,0.0,0.0,0.0,0.0,0.0,0.0,0.0,0.0,0.0,0.0,0.0,0.0,0.0,0.0,0.0,0.0,0.0,0.0,0.0,0.0,0.0,0.0,0.0,0.0,0.0,0.0,0.0,0.0,0.0,0.0,0.0,0.0,0.0,0.0,0.0,0.0,0.0,0.0,0.0,0.0,0.0,0.0,0.0,0.0,0.0,0.0,0.0,0.0,0.0,0.0,0.0,0.0,0.0,0.0,0.0,0.0,0.0,0.0,0.0,0.0,0.0,0.0,0.0,0.0,0.0,0.0,0.0,0.0,0.0,0.0,0.0,0.0,0.0,0.0,0.0,0.0,0.0,0.0,0.0,0.0,0.0,0.0,0.0,-1.5348,-1.3852,-1.2345,0.0,-0.9707,-0.9142,-0.9142,-0.9142,-0.9142,-0.9142,0.0,0.0,0.0,0.0,0.0,0.0,0.0,0.0,0.0,0.0,0.0,0.0,0.0,0.0,0.0,0.0,0.0,0.0,0.0,0.0,0.0,0.0,0.0,0.0,0.0,0.0,0.0,0.0,0.0,0.0,0.0,0.0,0.0,0.0,0.0,0.0,0.0,0.0,0.0,0.0,0.0,0.0,0.0,0.0,0.0,0.0,0.0,0.0,0.0,0.0,0.0,0.0,0.0,0.0,0.0,0.0,0.0,0.0,0.0,0.0,0.0,0.0,0.0,0.0,0.0,0.0,0.0,0.0,0.0,0.0,0.0,0.0,0.0,0.0,0.0,0.0,0.0,0.0,0.0,0.0,0.0,0.0,0.0,0.0,0.0,0.0,0.0,0.0,0.0,0.0,0.0,0.0,0.0,0.0,0.0,0.0,0.0,0.0,0.0,0.0,0.0,0.0,-1.3858,-1.2345,-1.0838,-0.9237,-0.9142,-0.9142,-0.9142,-0.9142,-0.9142,0.0,0.0,0.0,0.0,0.0,0.0,0.0,0.0,0.0,0.0,0.0,0.0,0.0,0.0,0.0,0.0,0.0,0.0,0.0,0.0,0.0,0.0,0.0,0.0,0.0,0.0,0.0,0.0,0.0,0.0,0.0,0.0,0.0,0.0,0.0,0.0,0.0,0.0,0.0,0.0,0.0,0.0,0.0,0.0,0.0,0.0,0.0,0.0,0.0,0.0,0.0,0.0,0.0,0.0,0.0,0.0,0.0,0.0,0.0,0.0,0.0,0.0,0.0,0.0,0.0,0.0,0.0,0.0,0.0,0.0,0.0,0.0,0.0,0.0,0.0,0.0,0.0,0.0,0.0,0.0,0.0,0.0,0.0,0.0,0.0,0.0,0.0,0.0,0.0,0.0,0.0,0.0,0.0,0.0,0.0,0.0,0.0,0.0,0.0,0.0,0.0,0.0,0.0,-1.2651,-1.2684,-1.1972,-0.9427,-0.9142,-0.9142,-0.9142,-0.9142,-0.9142,-0.9142,0.0,0.0,0.0,0.0,0.0,0.0,0.0,0.0,0.0,0.0,0.0,0.0,0.0,0.0,0.0,0.0,0.0,0.0,0.0,0.0,0.0,0.0,0.0,0.0,0.0,0.0,0.0,0.0,0.0,0.0,0.0,0.0,0.0,0.0,0.0,0.0,0.0,0.0,0.0,0.0,0.0,0.0,0.0,0.0,0.0,0.0,0.0,0.0,0.0,0.0,0.0,0.0,0.0,0.0,0.0,0.0,0.0,0.0,0.0,0.0,0.0,0.0,0.0,0.0,0.0,0.0,0.0,0.0,0.0,0.0,0.0,0.0,0.0,0.0,0.0,0.0,0.0,0.0,0.0,0.0,0.0,0.0,0.0,0.0,0.0,0.0,0.0,0.0,0.0,0.0,0.0,0.0,0.0,0.0,0.0,0.0,0.0,0.0,0.0,0.0,0.0,0.0,-1.2876,-1.225,-1.1237,-0.939,-0.9199,-0.9183,-0.9146,-0.9142,-0.9142,-0.9142,0.0,0.0,0.0,0.0,0.0,0.0,0.0,0.0,0.0,0.0,0.0,0.0,0.0,0.0,0.0,0.0,0.0,0.0,0.0,0.0,0.0,0.0,0.0,0.0,0.0,0.0,0.0,0.0,0.0,0.0,0.0,0.0,0.0,0.0,0.0,0.0,0.0,0.0,0.0,0.0,0.0,0.0,0.0,0.0,0.0,0.0,0.0,0.0,0.0,0.0,0.0,0.0,0.0,0.0,0.0,0.0,0.0,0.0,0.0,0.0,0.0,0.0,0.0,0.0,0.0,0.0,0.0,0.0,0.0,0.0,0.0,0.0,0.0,0.0,0.0,0.0,0.0,0.0,0.0,0.0,0.0,0.0,0.0,0.0,0.0,0.0,0.0,0.0,0.0,0.0,0.0,0.0,0.0,0.0,0.0,0.0,0.0,0.0,0.0,0.0,0.0,0.0,-1.3788,-1.1445,-0.9658,-0.9301,-0.9277,-0.9236,-0.9163,-0.915,-0.9142,-0.9142,0.0,0.0,0.0,0.0,0.0,0.0,0.0,0.0,0.0,0.0,0.0,0.0,0.0,0.0,0.0,0.0,0.0,0.0,0.0,0.0,0.0,0.0,0.0,0.0,0.0,0.0,0.0,0.0,0.0,0.0,0.0,0.0,0.0,0.0,0.0,0.0,0.0,0.0,0.0,0.0,0.0,0.0,0.0,0.0,0.0,0.0,0.0,0.0,0.0,0.0,0.0,0.0,0.0,0.0,0.0,0.0,0.0,0.0,0.0,0.0,-2.5518,0.0,0.0,0.0,0.0,0.0,0.0,0.0,0.0,0.0,0.0,0.0,0.0,0.0,0.0,0.0,0.0,0.0,0.0,0.0,0.0,0.0,0.0,0.0,0.0,0.0,0.0,0.0,0.0,0.0,0.0,0.0,0.0,0.0,0.0,0.0,0.0,0.0,0.0,0.0,0.0,0.0,-1.1073,-1.1906,-1.2015,-0.9667,-0.9256,-0.9195,-0.9248,-0.9183,-0.9142,-0.9142,-0.9142,0.0,0.0,0.0,0.0,0.0,0.0,0.0,0.0,0.0,0.0,0.0,0.0,0.0,0.0,0.0,0.0,0.0,0.0,0.0,0.0,0.0,0.0,0.0,0.0,0.0,0.0,0.0,0.0,0.0,0.0,0.0,0.0,0.0,0.0,0.0,0.0,0.0,0.0,0.0,0.0,0.0,0.0,0.0,0.0,0.0,0.0,0.0,0.0,0.0,0.0,0.0,0.0,0.0,0.0,0.0,0.0,0.0,0.0,0.0,0.0,-2.5518,0.0,0.0,0.0,0.0,0.0,0.0,0.0,0.0,0.0,0.0,0.0,0.0,0.0,0.0,0.0,0.0,0.0,0.0,0.0,0.0,0.0,0.0,0.0,0.0,0.0,0.0,0.0,0.0,0.0,0.0,0.0,0.0,0.0,0.0,0.0,0.0,0.0,0.0,0.0,0.0,-1.1241,-1.1968,-1.2024,-0.9696,-0.9363,-0.9322,-0.9285,-0.9236,-0.9191,-0.9146,-0.9142,0.0,0.0,0.0,0.0,0.0,0.0,0.0,0.0,0.0,0.0,0.0,0.0,0.0,0.0,0.0,0.0,0.0,0.0,0.0,0.0,0.0,0.0,0.0,0.0,0.0,0.0,0.0,0.0,0.0,0.0,0.0,0.0,0.0,0.0,0.0,0.0,0.0,0.0,0.0,0.0,0.0,0.0,0.0,0.0,0.0,0.0,0.0,0.0,0.0,0.0,0.0,0.0,0.0,-2.5518,-2.5518,-2.5518,-2.5518,-2.5518,-2.5518,-2.5518,-2.5518,-2.5518,-2.5518,0.0,0.0,0.0,0.0,0.0,0.0,0.0,0.0,0.0,0.0,0.0,0.0,0.0,0.0,0.0,0.0,0.0,0.0,0.0,0.0,0.0,0.0,0.0,0.0,-2.5518,-2.5518,-2.5518,0.0,0.0,0.0,0.0,0.0,0.0,0.0,0.0,0.0,0.0,0.0,-1.2271,-1.203,-1.1466,-0.9653,-0.9493,-0.9465,-0.9338,-0.9297,-0.9248,-0.9171,-0.915,-0.9142,0.0,0.0,0.0,0.0,0.0,0.0,0.0,0.0,0.0,0.0,0.0,0.0,0.0,0.0,0.0,0.0,0.0,0.0,0.0,0.0,0.0,0.0,0.0,0.0,0.0,0.0,0.0,0.0,0.0,0.0,0.0,0.0,-2.7461,-2.7727,0.0,0.0,0.0,0.0,0.0,0.0,0.0,0.0,0.0,0.0,0.0,0.0,0.0,-2.8043,-2.6971,-2.6971,-2.6487,-2.5518,-2.5518,-2.5518,-2.5518,-2.5518,-2.5518,-2.5518,-2.5518,0.0,-2.5518,-2.5518,0.0,0.0,0.0,0.0,0.0,0.0,0.0,0.0,0.0,0.0,0.0,0.0,0.0,0.0,0.0,0.0,0.0,0.0,0.0,0.0,0.0,0.0,-2.5518,-2.5518,-2.5518,-2.5518,0.0,-2.5421,-2.5022,-2.4115,-2.3746,0.0,0.0,0.0,0.0,0.0,0.0,0.0,-1.2367,-1.2987,-1.271,-0.9928,-0.9514,-0.9448,-0.9501,-0.9371,-0.9277,-0.9265,-0.9187,-0.9142,-0.9142,-0.9142,0.0,0.0,0.0,0.0,0.0,0.0,0.0,0.0,0.0,0.0,0.0,0.0,0.0,0.0,0.0,0.0,0.0,0.0,0.0,0.0,0.0,0.0,0.0,0.0,0.0,0.0,0.0,0.0,0.0,-2.7473,-2.7739,-2.8005,-2.8137,-2.827,0.0,0.0,0.0,0.0,0.0,0.0,0.0,0.0,0.0,-2.862,-2.862,-2.8236,-2.755,-2.7249,-2.6681,-2.5917,-2.5615,-2.5518,-2.5518,-2.5518,-2.5518,-2.5518,-2.5518,-2.5518,-2.5518,-2.5518,-2.5518,-2.5518,0.0,0.0,0.0,0.0,-2.5518,-2.5518,-2.5518,-2.5518,-2.5518,-2.5518,0.0,0.0,0.0,0.0,0.0,0.0,0.0,0.0,0.0,0.0,-2.5518,-2.5518,-2.5518,-2.5518,-2.5518,-2.5518,-2.5227,0.0,-2.3961,-2.3336,-2.1094,0.0,0.0,0.0,0.0,-1.7874,-1.2498,-1.3194,-1.2951,-0.989,-0.9579,-0.9555,-0.9542,-0.9424,-0.933,-0.9285,-0.9195,-0.9142,-0.9142,-0.9142,-0.9142,0.0,0.0,0.0,0.0,0.0,0.0,0.0,0.0,0.0,0.0,0.0,0.0,0.0,0.0,0.0,0.0,0.0,0.0,0.0,0.0,0.0,0.0,0.0,0.0,0.0,0.0,0.0,0.0,-2.7787,-2.8005,-2.8282,-2.8306,-2.8391,0.0,0.0,0.0,0.0,0.0,0.0,-2.862,-2.862,-2.862,-2.862,-2.8693,-2.8427,-2.7933,-2.7518,-2.6969,-2.6482,-2.5896,-2.5701,-2.5701,-2.5701,-2.5701,-2.5701,-2.5701,-2.5701,-2.569,-2.5572,-2.5518,-2.5518,-2.5518,-2.5518,-2.5518,-2.5518,-2.5518,-2.5518,-2.5518,-2.5518,-2.5518,-2.5518,-2.5518,-2.5518,-2.5518,0.0,0.0,0.0,0.0,-2.5518,-2.5518,-2.5518,-2.5518,-2.5518,-2.5518,-2.5518,-2.5518,-2.5518,-2.5324,0.0,-2.4351,-2.3746,-2.1832,0.0,0.0,0.0,0.0,-1.8665,-1.3538,-1.362,-1.3001,-0.9873,-0.964,-0.9653,-0.9583,-0.9493,-0.9403,-0.9318,-0.9228,-0.9167,-0.9146,-0.9142,-0.9142,-0.9142,0.0,0.0,0.0,0.0,0.0,0.0,0.0,0.0,0.0,0.0,0.0,0.0,0.0,0.0,0.0,0.0,0.0,0.0,0.0,0.0,0.0,0.0,0.0,0.0,0.0,0.0,0.0,0.0,0.0,-2.8572,-2.8596,0.0,0.0,0.0,0.0,-2.862,-2.862,-2.862,-2.862,-2.862,-2.862,-2.862,-2.8862,-2.869,-2.8203,-2.7858,-2.7478,-2.6981,-2.6396,-2.6196,-2.6196,-2.6196,-2.6196,-2.6196,-2.6196,-2.6196,-2.6164,-2.5712,-2.5518,-2.5518,-2.5518,-2.5518,-2.5518,-2.5518,-2.5518,-2.5518,-2.5518,-2.5518,-2.5518,-2.5518,-2.5518,-2.5518,-2.5518,-2.5518,0.0,0.0,-2.5518,-2.5518,-2.5518,-2.5518,-2.5518,-2.5518,-2.5518,-2.5518,-2.5518,-2.5518,-2.5518,0.0,-2.5421,-2.5055,-2.3764,0.0,-2.3173,-2.182,-2.0837,-1.9154,-1.5986,-1.4747,-1.3034,-0.9966,-0.9677,-0.9677,-0.9673,-0.9591,-0.9497,-0.9408,-0.9322,-0.9236,-0.9146,-0.9142,-0.9142,-0.9142,-0.9142,0.0,0.0,0.0,0.0,0.0,0.0,0.0,0.0,0.0,0.0,0.0,0.0,0.0,0.0,0.0,0.0,0.0,0.0,0.0,0.0,0.0,0.0,0.0,0.0,0.0,0.0,0.0,0.0,-2.8608,-2.8777,0.0,-2.8874,-2.9031,-2.9127,-2.9127,-2.9127,-2.9127,-2.9127,-2.9127,-2.9127,-2.9127,-2.9212,-2.8977,-2.8485,-2.7973,-2.7523,-2.7015,-2.6428,-2.6239,-2.6239,-2.6239,-2.6239,-2.6239,-2.6239,-2.6239,-2.6218,-2.6056,-2.5981,-2.5981,-2.5981,-2.5884,-2.5744,-2.5744,-2.5647,-2.5518,-2.5518,-2.5518,-2.5518,-2.5518,-2.5518,-2.5518,-2.5518,-2.5518,-2.5518,-2.5518,-2.5518,-2.5518,-2.5518,-2.5518,-2.5518,-2.5518,-2.5518,-2.5518,-2.5518,-2.5518,-2.5518,-2.5518,-2.5518,-2.5195,-2.4044,-2.4411,-2.4294,-2.247,-2.1879,-2.0632,-1.7833,-1.5678,-1.3615,-1.1473,-1.0279,-0.9681,-0.9681,-0.9595,-0.9506,-0.9412,-0.9326,-0.924,-0.9146,-0.9142,-0.9142,-0.9142,-0.9142,-0.9142,0.0,0.0,0.0,0.0,0.0,0.0,0.0,0.0,0.0,0.0,0.0,0.0,0.0,0.0,0.0,0.0,0.0,0.0,0.0,0.0,0.0,0.0,0.0,0.0,0.0,0.0,-2.8753,-2.8753,-2.8982,-2.9139,-2.9139,-2.9308,-2.9405,-2.9405,-2.9405,-2.9405,-2.9405,-2.9405,-2.9405,-2.9405,-2.9489,-2.924,-2.8755,-2.8338,-2.7772,-2.727,-2.6678,-2.6476,-2.6476,-2.6476,-2.6476,-2.6476,-2.6476,-2.6476,-2.6476,-2.6476,-2.6476,-2.6465,-2.6293,-2.6132,-2.5992,-2.5992,-2.5895,-2.5755,-2.5755,-2.5755,-2.5744,-2.5669,-2.5636,-2.5626,-2.5539,-2.5518,-2.5518,-2.5518,-2.5518,-2.5518,-2.5518,-2.5518,-2.5518,-2.5518,-2.5518,-2.5518,-2.5518,-2.5518,-2.5518,-2.5518,-2.5518,-2.5324,-2.4643,-2.5032,-2.5032,-2.3658,-2.2877,-2.1594,-1.9216,-1.6347,-1.3866,-1.2274,-1.0676,-0.9681,-0.9681,-0.9624,-0.955,-0.9457,-0.9371,-0.9281,-0.9195,-0.9158,-0.9142,-0.9142,-0.9142,-0.9142,-0.9142,0.0,0.0,0.0,0.0,0.0,0.0,0.0,0.0,0.0,0.0,0.0,0.0,0.0,0.0,0.0,0.0,0.0,0.0,0.0,0.0,0.0,0.0,0.0,-2.8632,-2.885,-2.9019,-2.9019,-2.926,-2.9417,-2.9417,-2.9429,-2.9429,-2.9429,-2.9429,-2.9429,-2.9429,-2.9429,-2.9429,-2.9429,-2.967,-2.9515,-2.9013,-2.8765,-2.828,-2.7758,-2.7155,-2.695,-2.695,-2.695,-2.695,-2.695,-2.695,-2.695,-2.695,-2.695,-2.695,-2.6805,-2.6433,-2.625,-2.625,-2.625,-2.6239,-2.6239,-2.6239,-2.6239,-2.6196,-2.5959,-2.5873,-2.5841,-2.5604,-2.5539,-2.5529,-2.5529,-2.5529,-2.5518,-2.5518,-2.5518,-2.5518,-2.5518,-2.5518,-2.5518,-2.5518,-2.5518,-2.5518,-2.5518,-2.5518,-2.5518,-2.5518,-2.5518,-2.5518,-2.5518,-2.3756,0.0,-2.0299,-1.6835,-1.3966,-1.2374,-1.0777,-0.9782,-0.9681,-0.9681,-0.964,-0.955,-0.9457,-0.9371,-0.9285,-0.9191,-0.9142,-0.9142,-0.9142,-0.9142,-0.9142,0.0,0.0,0.0,0.0,0.0,0.0,0.0,0.0,0.0,0.0,0.0,0.0,0.0,0.0,0.0,0.0,0.0,0.0,0.0,0.0,0.0,0.0,-2.891,-2.891,-2.897,-2.9091,-2.9272,-2.9526,-2.9682,-2.9682,-2.9876,-2.9996,-2.9996,-2.9996,-2.9996,-2.9996,-2.9996,-2.9996,-2.9996,-3.0069,-2.97,-2.8687,-2.8654,-2.8076,-2.7155,-2.695,-2.695,-2.695,-2.695,-2.695,-2.695,-2.695,-2.695,-2.695,-2.695,-2.695,-2.6939,-2.6799,-2.6648,-2.6487,-2.6487,-2.6379,-2.6239,-2.6239,-2.6239,-2.6218,-2.6153,-2.6132,-2.6121,-2.6056,-2.5916,-2.5776,-2.5776,-2.5647,-2.5518,-2.5518,-2.5518,-2.5518,-2.5518,-2.5518,-2.5518,-2.5518,-2.5518,-2.5518,-2.5518,-2.5518,-2.5518,-2.5518,-2.5518,-2.5518,-2.5518,-2.3756,0.0,-2.179,-1.8533,-1.5665,-1.3966,-1.2374,-1.0977,-0.9782,-0.9681,-0.964,-0.955,-0.9457,-0.9371,-0.9285,-0.9191,-0.9142,-0.9142,-0.9142,-0.9142,0.0,0.0,0.0,0.0,0.0,0.0,0.0,0.0,0.0,0.0,0.0,0.0,0.0,0.0,0.0,0.0,0.0,0.0,0.0,0.0,0.0,0.0,-2.891,-2.9091,-2.9308,-2.9344,-2.9393,-2.955,-2.9803,-2.9972,-2.9972,-3.0117,-3.0214,-3.0214,-3.0214,-3.0214,-3.0214,-3.0214,-3.0214,-3.0214,-3.0011,-2.9503,-2.8586,-2.8382,-2.7769,-2.695,-2.695,-2.695,-2.695,-2.695,-2.695,-2.695,-2.695,-2.695,-2.695,-2.695,-2.695,0.0,0.0,0.0,0.0,0.0,-2.6648,-2.653,-2.653,-2.653,-2.6519,-2.6412,-2.6379,-2.6358,-2.6261,-2.6132,-2.6024,-2.6024,-2.5852,-2.5669,-2.5669,-2.5593,-2.5518,-2.5518,-2.5518,-2.5518,-2.5518,-2.5518,-2.5518,-2.5518,-2.5518,0.0,-2.5518,-2.5518,-2.5518,-2.5518,-2.3756,-2.2387,-2.2387,-1.9133,-1.6566,-1.5565,-1.3467,-1.1673,-1.0777,-1.0079,0.0,0.0,0.0,-0.935,-0.9228,-0.9171,0.0,0.0,0.0,-0.9142,-0.9142,0.0,0.0,0.0,-0.9118,-0.9114,0.0,0.0,0.0,0.0,0.0,0.0,0.0,0.0,0.0,0.0,0.0,0.0,0.0,0.0,0.0,0.0,-2.9067,-2.926,-2.9731,-2.9827,-2.9839,-2.9839,-3.0069,-3.0214,-3.0214,-3.0214,-3.0214,-3.0214,-3.0214,-3.0214,-3.0214,0.0,0.0,0.0,0.0,-2.9186,-2.8586,-2.8065,-2.7451,-2.695,-2.695,-2.695,-2.695,-2.695,-2.695,-2.695,-2.695,-2.695,-2.695,-2.695,-2.695,-2.695,-2.695,-2.695,-2.695,-2.695,-2.695,-2.695,-2.695,0.0,0.0,-2.6692,-2.6627,-2.6584,-2.6379,-2.6293,-2.6272,-2.6272,-2.6099,-2.5906,-2.5873,-2.5712,-2.555,-2.5529,-2.5518,-2.5518,-2.5518,-2.5518,-2.5518,-2.5518,-2.5518,-2.5518,-2.5518,-2.5518,-2.5518,-2.5518,-2.3756,-2.2387,-2.2387,-1.9339,-1.707,-1.697,0.0,0.0,-1.2074,-1.0681,-0.9681,-0.9681,-0.951,-0.9334,-0.9167,-0.915,-0.9142,-0.9142,-0.9142,-0.9142,-0.9142,-0.9142,-0.9142,-0.9142,-0.9142,-0.9142,0.0,0.0,0.0,0.0,0.0,0.0,0.0,0.0,0.0,0.0,0.0,0.0,0.0,0.0,0.0,-2.9006,-2.9369,-2.9682,-2.9779,-2.9996,-3.0129,-3.0129,-3.0189,-3.0214,-3.0214,-3.0214,-3.0214,-3.0214,-3.0214,-3.0214,-3.0214,-3.0214,-3.0214,-3.0214,-2.9694,-2.9186,-2.8586,-2.8065,-2.7451,-2.695,0.0,0.0,-2.695,-2.695,-2.695,-2.695,-2.695,-2.695,-2.695,-2.695,-2.695,-2.695,-2.695,-2.695,-2.695,-2.695,-2.695,-2.695,-2.695,-2.695,-2.6939,-2.6896,-2.6875,-2.6875,-2.6821,-2.667,0.0,-2.6519,-2.6347,-2.6121,-2.5916,-2.583,-2.5755,-2.5561,-2.5518,-2.5518,-2.5518,-2.5518,-2.5518,-2.5518,-2.5518,-2.5518,-2.5518,-2.5518,-2.5518,-2.5518,-2.3756,-2.2387,-2.2387,-2.0333,-1.8358,-1.707,-1.5167,-1.3467,-1.2174,-1.0681,-0.9681,-0.9681,-0.951,-0.9359,-0.9261,-0.9183,-0.9142,-0.9142,-0.9142,-0.9142,-0.9142,-0.9142,-0.9142,-0.9142,-0.9142,-0.9142,0.0,0.0,0.0,0.0,0.0,0.0,0.0,0.0,0.0,0.0,0.0,-2.8656,0.0,0.0,-2.9103,-2.9369,-2.9622,-2.9839,-2.9984,-3.0129,-3.0214,-3.0214,-3.0214,-3.0214,-3.0214,-3.0214,-3.0214,-3.0214,-3.0214,-3.0214,-3.0214,-3.0214,-3.0214,-3.0214,-2.9401,-2.8892,-2.8586,-2.7769,-2.7155,-2.695,-2.695,-2.695,-2.695,-2.695,-2.695,-2.695,-2.695,-2.695,-2.695,-2.695,-2.695,-2.695,-2.695,-2.695,-2.695,-2.695,-2.695,-2.695,-2.695,-2.695,-2.695,-2.695,-2.695,-2.695,-2.695,-2.6864,-2.6767,-2.6767,-2.6595,-2.6379,-2.6261,-2.6046,-2.5841,-2.5723,-2.5604,-2.5518,-2.5518,-2.5518,-2.5518,-2.5518,-2.5518,-2.5518,-2.5518,-2.5518,-2.5518,-2.5518,-2.3062,-2.1192,-2.1192,-1.8631,-1.6559,-1.5764,-1.4265,-1.2968,-1.2174,-1.0681,-0.9661,-0.9616,-0.9526,-0.9416,-0.9285,-0.9236,-0.9191,-0.9146,-0.9142,-0.9142,-0.9142,-0.9142,-0.9142,-0.9142,-0.9142,-0.9142,0.0,0.0,0.0,0.0,0.0,0.0,0.0,0.0,-2.91,-3.0687,-2.9796,-2.8765,-2.897,-2.9103,-2.9308,-2.9731,-2.9839,-2.996,-3.0189,-3.0214,-3.0214,-3.0214,-3.0214,-3.0214,-3.0214,-3.0214,-3.0214,-3.0214,-3.0214,-3.0214,-3.0214,-3.0214,-3.0112,-3.0011,-2.9096,-2.8586,-2.8484,-2.7462,-2.695,-2.695,-2.695,-2.695,-2.695,-2.695,-2.695,-2.695,-2.695,-2.695,-2.695,-2.695,-2.695,-2.695,-2.695,-2.695,-2.695,-2.695,-2.695,-2.695,-2.695,-2.695,-2.695,-2.695,-2.695,-2.695,-2.695,-2.695,-2.695,-2.695,-2.681,-2.6638,-2.6595,-2.6261,-2.5927,-2.5873,-2.569,-2.5518,-2.5518,-2.5518,-2.5518,-2.5518,-2.5518,-2.5518,-2.5518,-2.5518,-2.5518,-2.5518,-2.2662,-2.0397,-1.9995,-1.7034,-1.4862,-1.4564,-1.3068,-1.1974,-1.1673,-1.048,-0.9648,-0.9575,-0.955,-0.9473,-0.9314,-0.9289,-0.9236,-0.9146,-0.9142,-0.9142,-0.9142,-0.9142,-0.9142,-0.9142,-0.9142,-0.9142,-4.1325,-4.0946,-4.0583,-4.0583,-3.7575,-3.4686,0.0,0.0,-2.862,-2.8908,-2.8898,-2.8982,-2.9006,-2.9393,-2.9731,-2.9791,-3.0008,-3.0177,-3.0214,-3.0214,-3.0214,-3.0214,-3.0214,-3.0214,-3.0214,-3.0214,-3.0214,-3.0214,-3.0214,-3.0214,-3.0214,-3.0214,-3.0011,-2.9491,-2.8892,-2.8382,-2.786,-2.7257,-2.695,-2.695,-2.695,-2.695,-2.695,-2.695,-2.695,-2.695,-2.695,-2.695,-2.695,-2.695,-2.695,-2.695,-2.695,-2.695,-2.695,-2.695,-2.695,-2.695,-2.695,-2.695,-2.695,-2.695,-2.695,-2.695,-2.695,-2.695,-2.695,-2.695,-2.6928,-2.6864,-2.6638,-2.639,-2.6142,-2.5916,-2.569,-2.5518,-2.5518,-2.5518,-2.5518,-2.5518,-2.5518,-2.5518,-2.5518,-2.5518,-2.5518,-2.5518,-2.3561,-2.1594,-2.0192,-1.8038,-1.6062,-1.4663,-1.3068,-1.1478,-1.0079,-0.9782,-0.9677,-0.9665,-0.9587,-0.9497,-0.9395,-0.9322,-0.9236,-0.9146,-0.9142,-0.9142,-0.9142,-0.9142,-0.9142,-0.9142,-0.9142,-0.9142,-4.1127,-4.0765,-4.0583,-4.0583,-3.8418,-3.6637,-3.7867,-3.4046,-3.0739,-3.2028,-3.0555,-2.9103,-2.9417,-2.9646,-2.9851,0.0,-3.0141,-3.0214,-3.0214,-3.0214,-3.0214,-3.0214,-3.0214,-3.0214,-3.0214,-3.0214,-3.0214,-3.0214,-3.0214,-3.0214,-3.0214,-2.9909,-2.9593,-2.9389,-2.8575,-2.8065,-2.7758,-2.7155,-2.695,-2.695,-2.695,-2.695,-2.695,-2.695,-2.695,-2.695,-2.695,-2.695,-2.695,-2.695,-2.695,-2.695,-2.695,-2.695,-2.695,-2.695,-2.695,-2.695,-2.695,-2.695,-2.695,-2.695,-2.695,-2.695,-2.695,-2.695,-2.695,-2.695,-2.695,-2.6928,-2.6821,-2.6616,-2.6379,-2.6132,-2.5895,-2.5679,-2.555,-2.5518,-2.5518,-2.5518,-2.5518,-2.5518,-2.5518,-2.5518,-2.5518,-2.5518,-2.2955,-2.0496,-1.9216,-1.6148,-1.3473,-1.1874,-1.1077,-1.048,-0.9782,-0.9681,-0.9681,-0.9681,-0.9644,-0.9583,-0.9489,-0.9403,-0.9314,-0.9224,-0.9171,-0.9142,-0.9142,-0.9142,-0.9142,-0.9142,-0.9142,-0.9142,-4.0765,-4.0583,0.0,-4.0583,-3.9076,-3.7959,-3.9458,-3.6004,-3.2733,-3.3894,-3.1925,-2.9934,-2.9806,-2.9864,-2.9984,-3.0189,-3.0214,-3.0214,-3.0214,-3.0214,-3.0214,-3.0214,-3.0214,-3.0214,-3.0214,-3.0214,-3.0214,-3.0214,-3.0214,-3.0214,-3.0214,-2.9694,-2.9288,-2.9186,-2.8269,-2.7758,-2.7553,-2.7155,-2.695,-2.695,-2.695,-2.695,-2.695,-2.695,-2.695,-2.695,-2.695,-2.695,-2.695,-2.695,-2.695,-2.695,-2.695,-2.695,-2.695,-2.695,-2.695,-2.695,-2.695,-2.695,-2.695,-2.695,-2.695,-2.695,-2.695,-2.695,-2.695,-2.695,-2.695,-2.695,-2.695,-2.6767,-2.6519,-2.6293,-2.6046,-2.5809,-2.5572,-2.5518,-2.5518,-2.5518,-2.5518,-2.5518,-2.5518,-2.5518,-2.5324,-2.474,-2.2368,-2.0201,-1.9018,-1.4856,-1.1473,-0.9882,-0.9681,-0.9681,-0.9681,-0.9681,-0.9681,-0.9681,-0.9681,-0.964,-0.9546,-0.9457,-0.9367,-0.9281,-0.9191,-0.9142,-0.9142,-0.9142,-0.9142,-0.9142,-0.9142,-0.9142,-4.0583,0.0,-4.0583,-4.0583,-3.9076,-3.7575,-3.7667,-3.6081,-3.4024,-3.2463,-3.2181,-3.179,-3.0142,-3.002,-3.0202,-3.0214,-3.0214,-3.0214,-3.0214,-3.0214,-3.0214,-3.0214,-3.0214,-3.0214,0.0,-3.0214,-3.0214,-3.0214,-3.0214,-3.0214,-3.0214,-2.9694,-2.9186,-2.8688,-2.8065,-2.7553,-2.695,-2.695,-2.695,-2.695,-2.695,-2.695,-2.695,-2.695,-2.695,-2.695,-2.695,-2.695,-2.695,-2.695,-2.695,-2.695,-2.695,-2.695,-2.695,-2.695,-2.695,-2.695,-2.695,-2.695,-2.695,-2.695,-2.695,-2.695,-2.695,-2.695,-2.695,-2.695,-2.695,-2.695,-2.695,-2.6767,-2.6519,-2.6293,-2.6046,-2.5809,-2.5572,-2.5518,-2.5518,-2.5518,-2.5518,-2.5518,-2.5518,-2.5518,-2.4838,-2.2779,-2.2387,-2.179,-2.0201,-1.5347,-1.1473,-0.9882,-0.9681,-0.9681,-0.9681,-0.9681,-0.9681,-0.9681,-0.9681,-0.964,-0.9546,-0.9457,-0.9367,-0.9281,-0.9191,-0.9142,-0.9142,-0.9142,-0.9142,-0.9142,-0.9142,-0.9142,0.0,0.0,-4.0583,-4.0583,-4.0112,-3.9549,-3.9549,-3.7117,-3.4733,-3.4383,-3.2377,-3.0528,-3.0121,-3.0153,-3.0214,-3.0214,-3.0214,-3.0214,-3.0214,-3.0214,-3.0214,-3.0214,-3.0214,0.0,0.0,0.0,0.0,-3.0214,-3.0214,-3.0011,-2.9694,-2.9186,-2.8575,-2.8065,-2.7565,-2.7155,-2.695,-2.695,-2.695,-2.695,-2.695,-2.695,-2.695,-2.695,-2.695,-2.695,-2.695,-2.695,-2.695,-2.695,-2.695,-2.695,-2.695,-2.695,-2.695,-2.695,-2.695,-2.695,-2.695,-2.695,-2.695,-2.695,-2.695,-2.695,-2.695,-2.695,-2.695,-2.695,-2.695,-2.695,-2.695,-2.6885,-2.6724,-2.6325,-2.6175,-2.6002,-2.5604,-2.5518,-2.5518,-2.5518,-2.5518,-2.5518,-2.5518,-2.5518,-2.4838,-2.2681,-2.1219,-1.9742,-1.8145,-1.5459,-1.3068,-1.1478,-1.038,-0.9681,-0.9681,-0.9681,-0.9681,-0.9681,-0.9681,-0.9665,-0.9636,-0.9489,-0.9391,-0.9367,-0.922,-0.9142,-0.9142,-0.9142,-0.9142,-0.9142,-0.9142,-0.9142,0.0,-4.0583,-4.0583,-4.0583,-4.0583,-4.0618,-4.0755,-3.8901,-3.6927,-3.5853,-3.3669,-3.165,-3.0457,-3.0214,-3.0214,-3.0214,-3.0214,-3.0214,-3.0214,-3.0214,-3.0214,-3.0214,-3.0214,-3.0214,0.0,0.0,0.0,-3.0214,-3.0214,-3.0011,-2.9389,-2.8892,-2.8382,-2.786,-2.7257,-2.695,-2.695,-2.695,-2.695,-2.695,-2.695,-2.695,-2.695,-2.695,-2.695,-2.695,-2.695,-2.695,-2.695,-2.695,-2.695,-2.695,-2.695,-2.695,-2.695,-2.695,-2.695,-2.695,-2.695,-2.695,-2.695,-2.695,-2.695,-2.695,-2.695,-2.695,-2.695,-2.695,-2.695,-2.695,-2.695,-2.695,-2.6832,-2.6347,-2.6239,-2.6099,-2.5626,-2.5518,-2.5518,-2.5518,-2.5518,-2.5518,-2.5518,-2.4838,-2.3951,-2.2583,-2.0629,-1.8762,-1.707,-1.5466,-1.3866,-1.2274,-1.0676,-0.9681,-0.9681,-0.9681,-0.9681,-0.9681,-0.9681,-0.9681,-0.9681,-0.9534,-0.944,-0.9408,-0.9265,-0.9175,-0.9142,-0.9142,-0.9142,-0.9142,-0.9142,-0.9142,-4.0583,-4.0583,-4.0583,-4.0583,-4.0583,-4.0686,-4.108,-4.1091,-4.0071,-3.6714,-3.589,-3.4717,0.0,0.0,-3.0214,-3.0214,-3.0214,-3.0214,-3.0214,-3.0214,-3.0214,0.0,0.0,0.0,0.0,0.0,0.0,-3.0214,0.0,-2.9909,-2.9389,-2.8892,-2.828,-2.7758,-2.7155,-2.695,-2.695,-2.695,-2.695,-2.695,-2.695,-2.695,-2.695,-2.695,-2.695,-2.695,-2.695,-2.695,-2.695,-2.695,-2.695,-2.695,-2.695,-2.695,-2.695,-2.695,-2.695,-2.695,-2.695,-2.695,-2.695,-2.695,-2.695,-2.695,-2.695,-2.695,-2.695,-2.695,-2.695,-2.695,-2.695,-2.695,-2.6832,-2.6347,-2.6239,-2.6099,-2.5626,-2.5518,-2.5518,-2.5518,-2.5518,-2.5518,-2.5518,-2.3756,-2.2387,-2.2387,-2.0629,-1.8762,-1.7268,-1.5565,-1.3966,-1.2374,-1.0676,-0.9681,-0.9681,-0.9681,-0.9681,-0.9681,-0.9681,-0.9681,-0.9681,-0.9591,-0.9501,-0.9408,-0.9326,-0.9236,-0.9142,-0.9142,-0.9142,-0.9142,-0.9142,-0.9142,-4.0583,-4.0583,-4.0583,-4.0583,-4.0583,-4.0686,-4.108,-4.0241,-3.864,-3.6468,-3.4984,-3.3293,0.0,0.0,0.0,-3.0214,-3.0214,0.0,-3.0214,-3.0214,0.0,-3.0214,-3.0214,-3.0214,-3.0214,-3.0214,0.0,0.0,-2.9796,-2.9389,-2.879,-2.828,-2.7758,-2.7155,-2.695,-2.695,-2.695,-2.695,-2.695,-2.695,-2.695,-2.695,-2.695,-2.695,-2.695,-2.695,-2.695,-2.695,-2.695,-2.695,-2.695,-2.695,-2.695,-2.695,-2.695,-2.695,-2.695,-2.695,-2.695,-2.695,-2.695,-2.695,-2.695,-2.695,-2.695,-2.695,-2.695,-2.695,-2.695,-2.695,-2.695,-2.695,-2.6832,-2.6347,-2.6239,-2.6099,-2.5626,-2.5518,-2.5518,-2.5518,-2.5518,-2.5518,-2.5518,-2.3756,-2.2387,-2.2387,-2.0629,-1.9157,-1.8762,-1.6261,-1.4364,-1.3966,-1.1378,-0.9681,-0.9681,-0.9681,-0.9681,-0.9681,-0.9681,-0.9681,-0.9681,-0.9591,-0.9501,-0.9408,-0.9326,-0.9236,-0.9142,-0.9142,-0.9142,-0.9142,-0.9142,-0.9142,-4.0583,-4.0583,-4.0583,-4.0583,-4.072,-4.0943,-4.132,-4.0822,-3.945,-3.6788,-3.5422,-3.3873,-3.0809,-3.0214,0.0,0.0,0.0,0.0,-3.0214,-3.0214,-3.0214,0.0,-3.0214,0.0,-3.0214,-3.0214,-3.0112,0.0,-2.9593,-2.9186,-2.8586,-2.8065,-2.7553,-2.695,-2.695,-2.695,-2.695,-2.695,-2.695,-2.695,-2.695,-2.695,-2.695,-2.695,-2.695,-2.695,0.0,-2.695,-2.695,-2.695,-2.695,-2.695,-2.695,-2.695,-2.695,-2.695,-2.695,-2.695,-2.695,-2.695,-2.695,-2.695,-2.695,-2.695,-2.695,-2.695,-2.695,-2.695,-2.695,-2.695,-2.695,-2.695,-2.6832,-2.6347,-2.6239,-2.6099,-2.5626,-2.5518,-2.5518,-2.5518,-2.5518,-2.5324,-2.4935,-2.3463,-2.2191,-2.1799,-2.0333,-1.9256,-1.9256,-1.646,-1.4464,-1.4464,-1.1573,-0.9681,-0.9681,-0.9681,-0.9681,-0.9681,-0.9681,-0.9681,-0.9681,-0.9632,-0.9542,-0.9408,-0.9363,-0.9273,-0.9142,-0.9142,-0.9142,-0.9142,-0.9142,-0.9142,-4.0583,-4.0583,-4.0583,-4.0583,-4.0875,-4.1268,-4.1611,-4.1817,-4.0825,-3.7237,-3.6327,-3.4855,-3.091,-3.0214,-3.0214,-3.0214,0.0,-3.0214,-3.0214,-3.0214,-3.0214,-3.0214,-3.0214,-3.0214,-3.0214,-3.0214,-3.0011,-2.9491,-2.9288,-2.9084,-2.8484,-2.7962,-2.7451,-2.695,-2.695,-2.695,-2.695,-2.695,-2.695,-2.695,-2.695,-2.695,-2.695,-2.695,-2.695,-2.695,-2.695,0.0,-2.695,-2.695,-2.695,-2.695,-2.695,-2.695,-2.695,-2.695,-2.695,-2.695,-2.695,-2.695,-2.695,-2.695,-2.695,-2.695,-2.695,-2.695,-2.695,-2.695,-2.695,-2.695,-2.695,-2.695,-2.6832,-2.6347,-2.6239,-2.6099,-2.5626,-2.5518,-2.5518,-2.5518,-2.5518,-2.5227,-2.4156,-2.3072,-2.1995,-2.0924,-1.9947,-1.9256,-1.9256,-1.646,-1.4464,-1.4464,-1.1573,-0.9681,-0.9681,-0.9681,-0.9681,-0.9681,-0.9681,-0.9681,-0.9681,-0.9669,-0.9583,-0.9412,-0.9395,-0.931,-0.9142,-0.9142,-0.9142,-0.9142,-0.9142,-0.9142,-4.0583,-4.0583,-4.0583,-4.0583,-4.0875,-4.1268,-4.1611,-4.0652,0.0,0.0,-3.5139,-3.3187,-3.0607,-3.0214,-3.0214,-3.0214,0.0,0.0,0.0,-3.0214,-3.0214,0.0,-3.0214,-3.0214,-3.0214,-3.0214,0.0,0.0,0.0,-2.8484,-2.7962,-2.7349,-2.7052,-2.695,-2.695,-2.695,-2.695,-2.695,-2.695,-2.695,-2.695,-2.695,-2.695,-2.695,-2.695,-2.695,-2.695,0.0,-2.695,-2.695,-2.695,-2.695,-2.695,-2.695,-2.695,-2.695,-2.695,-2.695,-2.695,-2.695,-2.695,-2.695,-2.695,-2.695,-2.695,-2.695,-2.695,-2.695,-2.695,-2.695,-2.695,-2.695,-2.6832,-2.6347,-2.6239,-2.6099,-2.5626,-2.5518,-2.5518,-2.5518,-2.5518,-2.5227,-2.4156,-2.3072,-2.1995,-2.0924,-1.9947,-1.9256,-1.9256,-1.646,-1.4464,-1.4464,-1.1573,-0.9681,-0.9681,-0.9681,-0.9681,-0.9681,-0.9681,-0.9681,-0.9681,-0.9608,-0.9518,-0.9408,-0.9338,-0.9248,-0.9142,-0.9142,-0.9142,-0.9142,-0.9142,-0.9142,-4.0583,-4.0583,-4.0583,-4.0583,-4.1012,-4.1491,-4.1662,0.0,0.0,0.0,-3.4855,-3.2786,-3.0607,-3.0214,0.0,-3.0214,0.0,0.0,0.0,0.0,0.0,-3.0214,-3.0214,-3.0214,0.0,-2.9909,0.0,0.0,0.0,-2.8065,-2.7758,-2.7257,-2.695,-2.695,-2.695,-2.695,-2.695,-2.695,-2.695,-2.695,-2.695,-2.695,-2.695,-2.695,-2.695,-2.695,-2.695,0.0,-2.695,-2.695,-2.695,-2.695,-2.695,-2.695,-2.695,-2.695,-2.695,-2.695,-2.695,-2.695,-2.695,-2.695,-2.695,-2.695,-2.695,-2.695,-2.695,-2.695,-2.695,-2.695,-2.695,-2.695,-2.6832,-2.6347,-2.6046,-2.5798,-2.5572,-2.5518,-2.5518,-2.5518,-2.5129,-2.4351,-2.3365,-2.2289,-2.1219,-2.0136,-1.9651,-1.9256,-1.9256,-1.7261,-1.5459,-1.4564,-1.1573,-0.9681,-0.9681,-0.9681,-0.9681,-0.9681,-0.9681,-0.9681,-0.9681,-0.9591,-0.9501,-0.9408,-0.9326,-0.9236,-0.9142,-0.9142,-0.9142,-0.9142,-0.9142,-0.9142,-4.0583,-4.0583,-4.0601,-4.0686,-4.1217,-4.1731,-4.1816,-4.0681,0.0,0.0,-3.5536,-3.3374,-3.1302,-3.091,-3.0708,0.0,-3.0214,0.0,0.0,0.0,0.0,0.0,0.0,0.0,0.0,0.0,0.0,0.0,0.0,0.0,-2.7656,-2.7155,-2.695,-2.695,-2.695,-2.695,-2.695,-2.695,-2.695,-2.695,-2.695,-2.695,-2.695,-2.695,-2.695,-2.695,-2.695,0.0,0.0,-2.695,-2.695,-2.695,-2.695,-2.695,-2.695,-2.695,-2.695,-2.695,-2.695,-2.695,-2.695,-2.695,-2.695,-2.695,-2.695,-2.695,-2.695,-2.695,-2.695,-2.695,-2.695,-2.6907,-2.6745,-2.6272,-2.583,-2.5518,-2.5518,-2.5518,-2.5421,-2.5227,-2.4546,-2.3561,-2.2289,-2.1308,-2.0432,-1.9454,-1.9256,-1.9256,-1.9256,-1.7863,-1.6467,-1.5161,-1.2174,-1.0079,-0.9681,-0.9681,-0.9681,-0.9681,-0.9681,-0.9681,-0.9681,-0.9571,-0.9481,-0.9408,-0.9305,-0.9216,-0.9142,-0.9142,-0.9142,-0.9142,-0.9142,-0.9142,-4.0583,-4.0583,-4.0669,-4.1029,-4.1405,-4.1799,-4.2159,0.0,0.0,-3.9478,-3.7704,-3.5536,-3.3474,-3.3087,-3.2498,-3.0518,-3.0214,-3.0214,0.0,0.0,0.0,0.0,0.0,0.0,0.0,0.0,0.0,0.0,0.0,0.0,-2.695,-2.695,-2.695,-2.695,-2.695,-2.695,-2.695,-2.695,-2.695,-2.695,-2.695,-2.695,-2.695,-2.695,-2.695,-2.695,-2.695,0.0,0.0,-2.695,-2.695,-2.695,-2.695,-2.695,-2.695,-2.695,-2.695,-2.695,-2.695,-2.695,-2.695,-2.695,-2.695,-2.695,-2.695,-2.695,-2.695,-2.695,-2.695,-2.695,-2.695,-2.6778,-2.6498,-2.6013,-2.5701,-2.5518,-2.5518,-2.5518,-2.5227,-2.4351,-2.4058,-2.3365,-2.1317,-2.0826,-2.0432,-1.9454,-1.9256,-1.9256,-1.9256,-1.7863,-1.6864,-1.6665,-1.3772,-1.1278,-0.9782,-0.9681,-0.9681,-0.9681,-0.9681,-0.9681,-0.9681,-0.9514,-0.9416,-0.9408,-0.924,-0.915,-0.9142,-0.9142,-0.9142,-0.9142,-0.9142,-0.9142,-4.0583,-4.0583,-4.0669,-4.108,-4.144,-4.1799,-4.2193,0.0,0.0,-3.9673,-3.7998,-3.5833,-3.3773,-3.3374,-3.2686,-3.0518,-3.0214,0.0,0.0,0.0,0.0,0.0,0.0,0.0,0.0,0.0,0.0,0.0,0.0,0.0,-2.695,-2.695,-2.695,-2.695,-2.695,-2.695,-2.695,-2.695,-2.695,-2.695,-2.695,-2.695,-2.695,-2.695,-2.695,-2.695,-2.695,0.0,0.0,-2.695,-2.695,-2.695,-2.695,-2.695,-2.695,-2.695,-2.695,-2.695,-2.695,-2.695,-2.695,-2.695,-2.695,-2.695,-2.695,-2.695,-2.695,-2.695,-2.695,-2.695,-2.695,-2.6659,-2.6293,-2.5949,-2.569,-2.5518,-2.5518,-2.5032,-2.4448,-2.4058,-2.2974,-2.1799,-2.0924,-2.0333,-1.975,-1.9355,-1.9256,-1.9256,-1.9256,-1.8762,-1.7962,-1.6963,-1.4071,-1.1874,-1.1177,-1.0279,-0.9681,-0.9681,-0.9681,-0.9681,-0.9681,-0.9506,-0.9408,-0.9408,-0.9232,-0.9142,-0.9142,-0.9142,-0.9142,-0.9142,-0.9142,-0.9142,-4.0583,-4.0669,-4.084,-4.1234,-4.1594,-4.1988,0.0,0.0,0.0,-4.0578,-3.9381,-3.7508,-3.4855,-3.4358,-3.3374,-3.0607,0.0,-3.0214,-3.0214,0.0,0.0,0.0,0.0,0.0,0.0,0.0,0.0,0.0,0.0,0.0,0.0,-2.695,-2.695,-2.695,-2.695,-2.695,-2.695,-2.695,-2.695,-2.695,-2.695,-2.695,-2.695,-2.695,-2.695,-2.695,-2.695,0.0,0.0,-2.695,-2.695,-2.695,-2.695,-2.695,-2.695,-2.695,-2.695,-2.695,-2.695,-2.695,-2.695,-2.695,-2.695,-2.695,-2.695,-2.695,-2.695,-2.695,-2.6896,-2.6821,-2.6756,-2.6433,-2.6067,-2.5819,-2.5636,-2.5518,-2.5518,-2.474,-2.3961,-2.3561,-2.2093,-2.0727,-2.0432,-1.975,-1.9256,-1.9256,-1.9256,-1.9256,-1.9256,-1.9256,-1.8861,-1.7764,-1.4769,-1.2568,-1.2174,-1.0681,-0.9681,-0.9681,-0.9681,-0.9681,-0.9681,-0.9506,-0.9408,-0.9408,-0.9232,-0.9142,-0.9142,-0.9142,-0.9142,-0.9142,-0.9142,-0.9142,-4.0583,-4.0875,-4.1251,-4.1611,-4.1988,-4.2381,0.0,0.0,0.0,-4.2765,-4.2765,-4.1464,-3.7213,-3.6425,-3.504,-3.091,-3.0214,0.0,0.0,0.0,0.0,0.0,0.0,0.0,0.0,0.0,0.0,0.0,0.0,0.0,0.0,-2.695,-2.695,-2.695,-2.695,-2.695,-2.695,-2.695,-2.695,-2.695,-2.695,-2.695,-2.695,-2.695,-2.695,0.0,0.0,0.0,0.0,-2.695,-2.695,-2.695,-2.695,-2.695,-2.695,-2.695,-2.695,-2.695,-2.695,-2.695,-2.695,-2.695,-2.695,-2.695,-2.695,-2.695,-2.695,-2.695,-2.6778,-2.653,-2.6304,-2.6056,-2.5809,-2.5572,-2.5518,-2.5518,-2.5518,-2.474,-2.3668,-2.2583,-2.1505,-2.0432,-1.9454,-1.9355,-1.9256,-1.9256,-1.9256,-1.9256,-1.9256,-1.9256,-1.9256,-1.9256,-1.636,-1.3866,-1.2274,-1.0681,-0.9681,-0.9681,-0.9681,-0.9681,-0.9681,-0.9506,-0.9408,-0.9408,-0.9232,-0.9142,-0.9142,-0.9142,-0.9142,-0.9142,-0.9142,-0.9142,-4.0583,-4.0875,-4.1251,-4.1611,-4.1988,-4.2381,-4.268,0.0,0.0,-4.2765,-4.1657,-3.977,-3.7017,-3.5338,-3.3474,-3.0607,-3.0214,0.0,0.0,0.0,0.0,0.0,0.0,0.0,0.0,0.0,0.0,0.0,0.0,0.0,0.0,-2.695,-2.695,-2.695,-2.695,-2.695,-2.695,-2.695,-2.695,-2.695,-2.695,-2.695,-2.695,-2.695,-2.695,0.0,0.0,0.0,0.0,-2.695,-2.695,-2.695,-2.695,-2.695,-2.695,-2.695,-2.695,-2.695,-2.695,-2.695,-2.695,-2.695,-2.695,-2.695,-2.695,-2.695,-2.6918,-2.6745,-2.6638,-2.6487,-2.6089,-2.5927,-2.5809,-2.5572,-2.5518,-2.5324,-2.4643,-2.3658,-2.2583,-2.1505,-2.0432,-1.9651,-1.9355,-1.9256,-1.9256,-1.9256,-1.9256,-1.9256,-1.9256,-1.9256,-1.9256,-1.9256,-1.736,-1.5466,-1.3866,-1.1278,-0.9681,-0.9681,-0.9681,-0.9653,-0.9591,-0.9469,-0.9379,-0.9322,-0.9203,-0.9142,-0.9142,-0.9142,-0.9142,-0.9142,-0.9142,-0.9142,0.0,-4.0977,-4.1423,-4.1645,-4.2108,0.0,0.0,0.0,0.0,-4.2765,-4.177,-3.998,-3.7017,-3.5437,-3.3574,-3.0708,0.0,0.0,0.0,0.0,0.0,0.0,0.0,0.0,0.0,0.0,0.0,0.0,0.0,0.0,0.0,-2.695,-2.695,-2.695,-2.695,-2.695,-2.695,-2.695,-2.695,-2.695,-2.695,-2.695,-2.695,-2.695,0.0,0.0,0.0,0.0,0.0,-2.695,-2.695,-2.695,-2.695,-2.695,-2.695,-2.695,-2.695,-2.695,-2.695,-2.695,-2.695,-2.695,-2.695,-2.6928,-2.6842,-2.681,-2.6778,-2.6627,-2.6455,-2.625,-2.5949,-2.5798,-2.5701,-2.555,-2.5518,-2.5227,-2.4253,-2.317,-2.2093,-2.1022,-1.9947,-1.9256,-1.9256,-1.9256,-1.9256,-1.9256,-1.9256,-1.9256,-1.9256,-1.9256,-1.9256,-1.9256,-1.7863,-1.6261,-1.4663,-1.2074,-1.038,-0.9782,-0.9681,-0.964,-0.9546,-0.9457,-0.9367,-0.9281,-0.9191,-0.9142,-0.9142,-0.9142,-0.9142,-0.9142,-0.9142,-0.9142,0.0,-4.1149,0.0,0.0,0.0,0.0,0.0,0.0,0.0,-4.2765,-4.2669,-4.1368,-3.741,-3.6524,-3.504,0.0,0.0,0.0,0.0,0.0,0.0,0.0,0.0,0.0,0.0,0.0,0.0,0.0,0.0,0.0,0.0,-2.695,-2.695,-2.695,-2.695,-2.695,-2.695,-2.695,-2.695,-2.695,-2.695,-2.695,-2.695,-2.695,-2.695,0.0,0.0,0.0,0.0,-2.695,-2.695,-2.695,-2.695,-2.695,-2.695,-2.695,-2.695,-2.695,-2.695,-2.695,-2.695,-2.695,-2.6939,-2.6885,-2.6648,-2.6584,-2.6573,-2.6541,-2.6207,-2.5862,-2.5852,-2.5679,-2.5518,-2.5421,-2.5421,-2.5129,-2.4048,-2.2974,-2.1995,-2.0924,-1.9947,-1.9256,-1.9256,-1.9256,-1.9256,-1.9256,-1.9256,-1.9256,-1.9256,-1.9256,-1.9256,-1.9256,-1.7962,-1.6367,-1.4663,-1.3068,-1.1373,-0.9782,-0.9673,-0.9628,-0.9538,-0.9448,-0.9359,-0.9273,-0.9187,-0.9142,-0.9142,-0.9142,-0.9142,-0.9142,-0.9142,-0.9142,-4.096,0.0,-4.1765,-4.2073,-4.2501,-4.2765,0.0,-4.2765,-4.2765,-4.2765,-4.1561,-4.0174,-3.9089,-3.6327,-3.3773,0.0,0.0,0.0,0.0,0.0,0.0,0.0,0.0,0.0,0.0,0.0,0.0,0.0,0.0,0.0,0.0,-2.695,-2.695,-2.695,-2.695,-2.695,-2.695,-2.695,-2.695,-2.695,-2.695,-2.695,-2.695,-2.695,-2.695,0.0,0.0,0.0,-2.695,-2.695,-2.695,-2.695,-2.695,-2.695,-2.695,-2.695,-2.695,-2.695,-2.695,-2.695,-2.695,-2.695,-2.6821,-2.6659,-2.6595,-2.6584,-2.6508,-2.6142,-2.5949,-2.583,-2.5647,-2.5561,-2.5324,-2.4546,-2.4351,-2.3863,-2.1995,-2.1308,-2.0826,-1.9849,-1.9454,-1.9256,-1.9256,-1.9256,-1.9256,-1.9256,-1.9256,-1.9256,-1.9256,-1.9256,-1.9256,-1.9256,-1.896,-1.7558,-1.4763,-1.3068,-1.1373,-0.9782,-0.9616,-0.9534,-0.9444,-0.9354,-0.9269,-0.9179,-0.9154,-0.9142,-0.9142,-0.9142,-0.9142,-0.9142,-0.9142,-0.9142,-4.1268,-4.156,-4.1799,-4.2193,-4.257,-4.2765,-4.2765,-4.2765,-4.2765,-4.2765,-4.1866,-4.0868,-3.9867,-3.7802,0.0,0.0,0.0,0.0,0.0,0.0,0.0,0.0,0.0,0.0,0.0,0.0,0.0,0.0,0.0,0.0,0.0,-2.695,-2.695,-2.695,-2.695,-2.695,-2.695,-2.695,-2.695,-2.695,-2.695,-2.695,-2.695,-2.695,-2.695,0.0,0.0,0.0,-2.695,-2.695,-2.695,-2.695,-2.695,-2.695,-2.695,-2.695,-2.695,-2.695,-2.695,-2.695,-2.6928,-2.6821,-2.6692,-2.6541,-2.6325,-2.625,-2.6196,-2.5938,-2.5787,-2.5679,-2.555,-2.5518,-2.5227,-2.4253,-2.3961,-2.3375,-2.121,-2.0826,-2.053,-1.9454,-1.9256,-1.9256,-1.9256,-1.9256,-1.9256,-1.9256,-1.9256,-1.9256,-1.9256,-1.9256,-1.9256,-1.9256,-1.9256,-1.7954,-1.4763,-1.3667,-1.2148,-0.972,-0.9571,-0.9485,-0.9354,-0.9305,-0.9236,-0.9146,-0.9142,-0.9142,-0.9142,-0.9142,-0.9142,-0.9142,-0.9142,-0.9142,-4.1491,-4.1697,-4.1816,-4.2262,-4.2621,-4.2765,-4.2765,-4.2765,-4.2765,-4.2765,-4.2765,-4.2268,-4.0465,-3.9867,0.0,0.0,0.0,0.0,0.0,0.0,0.0,0.0,0.0,0.0,0.0,0.0,0.0,0.0,0.0,0.0,0.0,-2.695,-2.695,-2.695,-2.695,-2.695,-2.695,-2.695,-2.695,-2.695,-2.695,-2.695,-2.695,-2.695,-2.695,-2.695,0.0,0.0,-2.695,-2.695,-2.695,-2.695,-2.695,-2.695,-2.695,-2.695,-2.695,-2.695,-2.695,-2.6928,-2.6864,-2.6648,-2.653,-2.6401,-2.5992,-2.5841,-2.5819,-2.5819,-2.5669,-2.5518,-2.5518,-2.5518,-2.5227,-2.4058,-2.3766,-2.317,-2.1022,-2.053,-2.0333,-1.9454,-1.9256,-1.9256,-1.9256,-1.9256,-1.9256,-1.9256,-1.9256,-1.9256,-1.9256,-1.9256,-1.9256,-1.9256,-1.9256,-1.7954,-1.4763,-1.4446,-1.309,-0.9724,-0.9522,-0.9444,-0.9269,-0.9261,-0.9224,-0.9146,-0.9142,-0.9142,-0.9142,-0.9142,-0.9142,-0.9142,-0.9142,-0.9142,-4.1491,-4.1697,-4.1868,-4.2587,-4.2714,-4.2765,-4.2765,-4.2765,-4.2765,-4.2765,-4.2765,-4.2669,-4.2364,-4.0868,-3.9575,0.0,0.0,0.0,0.0,0.0,0.0,0.0,0.0,0.0,0.0,0.0,0.0,0.0,0.0,0.0,0.0,-2.695,-2.695,-2.695,-2.695,-2.695,-2.695,-2.695,-2.695,-2.695,-2.695,-2.695,-2.695,-2.695,-2.695,-2.695,0.0,-2.695,-2.695,-2.695,-2.695,-2.695,-2.695,-2.695,-2.695,-2.695,-2.695,-2.695,-2.695,-2.681,-2.6638,-2.6595,-2.6304,-2.5959,-2.5895,-2.5723,-2.5572,-2.5572,-2.555,-2.5518,-2.5518,-2.5518,-2.5032,-2.3072,-2.2681,-2.2103,-1.9947,-1.9553,-1.9454,-1.9355,-1.9256,-1.9256,-1.9256,-1.9256,-1.9256,-1.9256,-1.9256,-1.9256,-1.9256,-1.9256,-1.9256,-1.9256,-1.9256,-1.7954,-1.4763,-1.436,-1.2967,-0.9628,-0.9428,-0.935,-0.9171,-0.9167,-0.9158,-0.9142,-0.9142,-0.9142,-0.9142,-0.9142,-0.9142,-0.9142,-0.9142,-0.9142,-4.1491,-4.1697,-4.1885,-4.2673,-4.2765,-4.2765,-4.2765,-4.2765,-4.2765,-4.2765,-4.2765,-4.2765,0.0,0.0,-4.0562,-3.7998,0.0,0.0,0.0,0.0,0.0,0.0,0.0,0.0,0.0,0.0,0.0,0.0,0.0,0.0,0.0,0.0,-2.695,-2.695,-2.695,-2.695,-2.695,-2.695,-2.695,-2.695,-2.695,-2.695,-2.695,-2.695,-2.695,-2.695,0.0,-2.695,-2.695,-2.695,-2.695,-2.695,-2.695,-2.695,-2.695,-2.695,-2.6864,-2.6756,-2.6756,-2.6595,-2.6369,-2.6239,-2.6046,-2.5841,-2.5712,-2.5604,-2.5518,-2.5518,-2.5518,-2.5518,-2.5518,-2.5518,-2.4935,-2.2877,-2.2387,-2.1808,-1.975,-1.9256,-1.9256,-1.9256,-1.9256,-1.9256,-1.9256,-1.9256,-1.9256,-1.9256,-1.9256,-1.9256,-1.9256,-1.9256,-1.9256,-1.9256,-1.9256,-1.8319,-1.5848,-1.4798,-1.2912,-0.954,-0.9293,-0.9228,-0.9146,-0.9142,-0.9142,-0.9142,-0.9142,-0.9142,-0.9142,-0.9142,-0.9142,-0.9142,-0.9142,-0.9142,-4.1525,-4.1765,-4.2005,-4.2594,-4.2765,-4.2765,-4.2765,-4.2765,-4.2765,-4.2765,-4.2765,-4.2765,0.0,-4.2765,0.0,0.0,0.0,0.0,0.0,0.0,0.0,0.0,0.0,0.0,0.0,0.0,0.0,0.0,0.0,0.0,0.0,0.0,-2.695,-2.695,-2.695,-2.695,-2.695,-2.695,-2.695,-2.695,-2.695,-2.695,-2.695,-2.695,-2.695,-2.695,-2.695,-2.695,-2.695,-2.695,-2.695,-2.695,-2.695,-2.695,-2.6837,-2.6885,-2.6745,-2.6573,-2.6519,-2.6347,-2.6121,-2.5927,-2.583,-2.5755,-2.5572,-2.5518,-2.5518,-2.5518,-2.5518,-2.5518,-2.5518,-2.5324,-2.4643,-2.2877,-2.2191,-2.1505,-1.9651,-1.9256,-1.9256,-1.9256,-1.9256,-1.9256,-1.9256,-1.9256,-1.9256,-1.9256,-1.9256,-1.9256,-1.9256,-1.9256,-1.9256,-1.9256,-1.9224,-1.8309,-1.614,-1.4561,-1.2428,-0.9449,-0.9183,-0.9142,-0.9142,-0.9142,-0.9142,-0.9142,-0.9142,-0.9142,-0.9142,-0.9142,-0.9142,-0.9142,-0.9142,-0.9142,-4.1594,-4.1971,-4.2347,-4.2758,-4.2765,-4.2765,-4.2765,-4.2765,-4.2765,-4.2765,-4.2765,-4.2765,-4.2765,-4.2765,0.0,0.0,0.0,0.0,0.0,0.0,0.0,0.0,0.0,0.0,0.0,0.0,0.0,0.0,0.0,0.0,0.0,0.0,0.0,-2.695,-2.695,-2.695,-2.695,-2.695,-2.695,-2.695,-2.695,-2.695,-2.695,-2.695,-2.695,-2.695,-2.695,-2.695,-2.695,-2.695,-2.695,-2.695,-2.695,-2.695,-2.6918,-2.6692,-2.6595,-2.6552,-2.6336,-2.6099,-2.5895,-2.5873,-2.5723,-2.5539,-2.5529,-2.5518,-2.5518,-2.5518,-2.5518,-2.5518,-2.5518,-2.4838,-2.3853,-2.2681,-2.1603,-2.0629,-1.9553,-1.9256,-1.9256,-1.9256,-1.9256,-1.9256,-1.9256,-1.9256,-1.9256,-1.9256,-1.9256,-1.9256,-1.9256,-1.9256,-1.9256,-1.9256,-1.9102,-1.7688,-1.4393,-1.2645,-1.0974,-0.9254,-0.9146,-0.9142,-0.9142,-0.9142,-0.9142,-0.9142,-0.9142,-0.9142,-0.9142,-0.9142,-0.9142,-0.9142,-0.9142,-0.9142,-4.1611,-4.1988,-4.2381,-4.2758,-4.2765,-4.2765,-4.2765,-4.2765,-4.2765,-4.2765,-4.2765,-4.2765,-4.2765,0.0,0.0,0.0,0.0,0.0,0.0,0.0,0.0,0.0,0.0,0.0,0.0,0.0,0.0,0.0,0.0,0.0,0.0,0.0,0.0,-2.695,-2.695,-2.695,-2.695,-2.695,-2.695,-2.695,-2.695,-2.695,-2.695,-2.695,-2.695,-2.695,-2.695,-2.695,-2.695,-2.695,-2.695,-2.6939,-2.6778,-2.6724,-2.6692,-2.6455,-2.6272,-2.6121,-2.6035,-2.5852,-2.5647,-2.5647,-2.5593,-2.5518,-2.5518,-2.5518,-2.5518,-2.5518,-2.5518,-2.5518,-2.5518,-2.474,-2.3766,-2.2681,-2.1603,-2.053,-1.9553,-1.9256,-1.9256,-1.9256,-1.9256,-1.9256,-1.9256,-1.9256,-1.9256,-1.9256,-1.9256,-1.9256,-1.9256,-1.9256,-1.9256,-1.9256,-1.8996,-1.7462,-1.4164,-1.3311,-1.1831,-0.9241,-0.9142,-0.9142,-0.9142,-0.9142,-0.9142,-0.9142,-0.9142,-0.9142,-0.9142,-0.9142,-0.9142,-0.9142,-0.9142,-0.9142,-4.1628,-4.2073,-4.2536,-4.2697,-4.2765,-4.2765,-4.2765,-4.2765,-4.2765,-4.2765,-4.2765,-4.2765,-4.2765,-4.1963,0.0,0.0,0.0,0.0,0.0,0.0,0.0,0.0,0.0,0.0,0.0,0.0,0.0,0.0,0.0,0.0,0.0,0.0,0.0,0.0,-2.695,-2.695,-2.695,-2.695,-2.695,-2.695,-2.6875,-2.6875,-2.695,-2.695,-2.695,-2.695,-2.6864,-2.6832,-2.6832,-2.6756,-2.6724,-2.6702,-2.6541,-2.6476,-2.6444,-2.6207,-2.6013,-2.5852,-2.5787,-2.5647,-2.5518,-2.5518,-2.5518,-2.5518,-2.5518,-2.5518,-2.5518,-2.5518,-2.5518,-2.5518,-2.5518,-2.4546,-2.3268,-2.2583,-2.1317,-2.0136,-1.9454,-1.9256,-1.9256,-1.9256,-1.9256,-1.9256,-1.9256,-1.9256,-1.9256,-1.9256,-1.9256,-1.9256,-1.9256,-1.9256,-1.9216,-1.9102,-1.8818,-1.7501,-1.476,-1.4002,-1.2633,-0.9991,-0.9332,-0.9142,-0.9142,-0.9142,-0.9142,-0.9142,-0.9142,-0.9142,-0.9142,-0.9142,-0.9142,-0.9142,-0.9142,-0.9142,-4.1697,-4.2262,-4.2765,-4.2765,-4.2765,-4.2765,-4.2765,-4.2765,-4.2765,-4.2765,-4.2765,-4.2765,-4.2765,-4.1963,0.0,0.0,0.0,0.0,0.0,0.0,0.0,0.0,0.0,0.0,0.0,0.0,0.0,0.0,0.0,0.0,0.0,0.0,0.0,0.0,-2.695,-2.695,-2.695,-2.695,-2.695,-2.6837,-2.6692,-2.6702,-2.695,-2.6837,-2.6837,-2.6928,-2.6681,-2.6584,-2.6562,-2.6325,-2.6239,-2.6239,-2.6229,-2.6229,-2.6196,-2.5959,-2.5862,-2.583,-2.5604,-2.5518,-2.5518,-2.5518,-2.5518,-2.5518,-2.5518,-2.5518,-2.5518,-2.5518,-2.5518,-2.5518,-2.5518,-2.3951,-2.2387,-2.2387,-2.0826,-1.9256,-1.9256,-1.9256,-1.9256,-1.9256,-1.9256,-1.9256,-1.9256,-1.9256,-1.9256,-1.9256,-1.9256,-1.9256,-1.9256,-1.9256,-1.9118,-1.8761,-1.8558,-1.7805,-1.6025,-1.4516,-1.301,-1.1495,-0.9991,-0.9142,-0.9142,-0.9142,-0.9142,-0.9142,-0.9142,-0.9142,-0.9142,-0.9142,-0.9142,-0.9142,-0.9142,-0.9142,-4.1697,-4.2262,-4.2765,-4.2765,-4.2765,-4.2765,-4.2765,-4.2765,-4.2765,-4.2765,-4.2765,-4.2765,-4.2765,-4.1963,0.0,0.0,0.0,0.0,0.0,0.0,0.0,0.0,0.0,0.0,0.0,0.0,0.0,0.0,0.0,0.0,0.0,0.0,0.0,0.0,-2.695,-2.695,-2.695,-2.6778,-2.6692,-2.6692,-2.6455,-2.6465,-2.6692,-2.6519,-2.6444,-2.6444,-2.6369,-2.6336,-2.6336,-2.6261,-2.6239,-2.6218,-2.6046,-2.5981,-2.5949,-2.5712,-2.5626,-2.5615,-2.5539,-2.5518,-2.5518,-2.5518,-2.5518,-2.5518,-2.5518,-2.5518,-2.5518,-2.5518,-2.5518,-2.5324,-2.4643,-2.3463,-2.2387,-2.2387,-2.0826,-1.9256,-1.9256,-1.9256,-1.9256,-1.9256,-1.9256,-1.9256,-1.9256,-1.9256,-1.9256,-1.9256,-1.9256,-1.9256,-1.9256,-1.9142,-1.898,-1.8753,-1.8558,-1.7805,-1.6025,-1.4516,-1.301,-1.1495,-0.9991,-0.9142,-0.9142,-0.9142,-0.9142,-0.9142,-0.9142,-0.9142,-0.9142,-0.9142,-0.9142,-0.9142,-0.9142,-0.9142,-4.1885,-4.2381,-4.2765,-4.2765,-4.2765,-4.2765,-4.2765,-4.2765,-4.2765,-4.2765,-4.2765,-4.2669,-4.2268,-4.1384,0.0,0.0,0.0,0.0,0.0,0.0,0.0,0.0,0.0,0.0,0.0,0.0,0.0,0.0,0.0,0.0,0.0,0.0,0.0,0.0,-2.6853,-2.6799,-2.6799,-2.6562,-2.6444,-2.6444,-2.6207,-2.6164,-2.6293,-2.625,-2.6239,-2.6229,-2.6132,-2.6035,-2.5949,-2.5949,-2.5949,-2.5938,-2.5787,-2.5723,-2.5712,-2.5572,-2.5518,-2.5518,-2.5518,-2.5518,-2.5518,-2.5518,-2.5518,-2.5518,-2.5518,-2.5518,-2.5518,-2.5518,-2.5227,-2.474,-2.4156,-2.2877,-2.1799,-2.1799,-2.053,-1.9256,-1.9256,-1.9256,-1.9256,-1.9256,-1.9256,-1.9256,-1.9256,-1.9256,-1.9256,-1.9256,-1.9256,-1.9232,-1.9159,-1.8996,-1.8809,-1.8639,-1.8452,-1.7922,-1.6868,-1.5455,-1.3946,-1.2439,-1.0838,-0.9707,-0.9142,-0.9142,-0.9142,-0.9142,-0.9142,-0.9142,-0.9142,-0.9142,-0.9142,-0.9142,-0.9142,-0.9142,-4.2176,-4.257,-4.2765,-4.2765,-4.2765,-4.2765,-4.2765,-4.2765,-4.2765,-4.2765,0.0,-4.2556,-4.1577,-4.0497,0.0,0.0,0.0,0.0,0.0,0.0,0.0,0.0,0.0,0.0,0.0,0.0,0.0,0.0,0.0,0.0,0.0,0.0,0.0,-2.6918,-2.6702,-2.6573,-2.6552,-2.6315,-2.6196,-2.6196,-2.5949,-2.583,-2.5841,-2.6067,-2.6164,-2.6153,-2.5927,-2.5712,-2.5518,-2.5518,-2.5518,-2.5518,-2.5518,-2.5518,-2.5518,-2.5518,-2.5518,-2.5518,-2.5518,-2.5518,-2.5518,-2.5518,-2.5518,-2.5518,-2.5518,-2.5518,-2.5518,-2.5518,-2.474,-2.3961,-2.3863,-2.2289,-2.0826,-2.0727,-1.9947,-1.9256,-1.9256,-1.9256,-1.9256,-1.9256,-1.9256,-1.9256,-1.9256,-1.9256,-1.9256,-1.9256,-1.9256,-1.9191,-1.9004,-1.8834,-1.8655,-1.8468,-1.8282,-1.8176,-1.8176,-1.6767,-1.5355,-1.3952,-1.2345,-1.0744,-0.9332,-0.9142,-0.9142,-0.9142,-0.9142,-0.9142,-0.9142,-0.9142,-0.9142,-0.9142,-0.9142,-0.9142,-4.2176,-4.257,0.0,-4.2765,-4.2765,-4.2765,-4.2765,-4.2765,-4.2765,-4.2765,-4.2765,-4.2765,-4.2556,0.0,0.0,0.0,0.0,0.0,0.0,0.0,0.0,0.0,0.0,0.0,0.0,0.0,0.0,0.0,0.0,0.0,0.0,0.0,0.0,-2.667,-2.6605,-2.6498,-2.6315,-2.6067,-2.5949,0.0,-2.5712,-2.5593,-2.5593,-2.5647,-2.5669,-2.5669,-2.5615,-2.5561,-2.5518,-2.5518,-2.5518,-2.5518,-2.5518,-2.5518,-2.5518,-2.5518,-2.5518,-2.5518,-2.5518,-2.5518,-2.5518,-2.5518,-2.5518,-2.5518,-2.5518,-2.5518,-2.5518,-2.5518,-2.474,-2.3766,-2.2974,-2.1808,-2.0629,-1.9849,-1.9454,-1.9256,-1.9256,-1.9256,-1.9256,-1.9256,-1.9256,-1.9256,-1.9256,-1.9256,-1.9256,-1.9256,-1.9256,-1.9191,-1.9004,-1.8834,-1.8655,-1.8468,-1.8282,-1.8176,-1.8176,-1.6767,-1.573,-1.5448,-1.291,-1.1212,-1.0933,-0.9707,-0.9142,-0.9142,-0.9142,-0.9142,-0.9142,-0.9142,-0.9142,-0.9142,-0.9142,-0.9142,0.0,0.0,0.0,-4.2765,0.0,-4.2765,-4.2765,-4.2765,-4.2765,-4.2765,-4.2765,0.0,0.0,0.0,0.0,0.0,0.0,0.0,0.0,0.0,0.0,0.0,0.0,0.0,0.0,0.0,0.0,0.0,0.0,0.0,0.0,-2.6842,-2.6713,-2.6584,-2.6358,-2.6185,-2.6056,-2.5819,-2.5701,-2.5701,-2.5572,-2.5518,-2.5518,-2.5518,-2.5518,-2.5518,-2.5518,-2.5518,-2.5518,-2.5518,-2.5518,-2.5518,-2.5518,-2.5518,-2.5518,-2.5518,-2.5518,-2.5518,-2.5518,-2.5518,-2.5518,-2.5518,-2.5518,-2.5518,-2.5518,-2.5518,-2.5421,-2.4935,-2.4048,-2.2974,-2.1897,-2.0826,-1.9947,-1.9454,-1.9256,-1.9256,-1.9256,-1.9256,-1.9256,-1.9256,-1.9256,-1.9256,-1.9256,-1.9256,-1.9256,-1.9256,-1.9256,-1.9167,-1.8891,-1.8777,-1.8623,-1.8347,-1.8233,-1.8176,-1.8176,-1.7421,-1.6673,-1.5917,-1.3758,-1.2156,-1.1401,-0.9896,-0.9142,-0.9142,-0.9142,-0.9142,-0.9142,-0.9142,-0.9142,-0.9142,-0.9142,-0.9142,0.0,0.0,-4.2765,-4.2765,-4.2765,0.0,-4.2765,-4.2765,-4.2765,-4.2556,0.0,0.0,0.0,0.0,0.0,0.0,0.0,0.0,0.0,0.0,0.0,0.0,0.0,0.0,0.0,0.0,0.0,0.0,0.0,0.0,-2.6885,-2.6692,-2.6541,-2.6465,-2.6078,-2.5852,-2.5809,-2.5615,-2.5518,-2.5518,-2.5518,-2.5518,-2.5518,-2.5518,-2.5518,-2.5518,-2.5518,-2.5518,-2.5518,-2.5518,-2.5518,-2.5518,-2.5518,-2.5518,-2.5518,-2.5518,-2.5518,-2.5518,-2.5518,-2.5518,-2.5518,-2.5518,-2.5518,-2.5518,-2.5518,-2.5421,-2.5032,-2.4253,-2.3072,-2.1897,-2.1022,-2.0038,-1.9256,-1.9256,-1.9256,-1.9256,-1.9256,-1.9256,-1.9256,-1.9256,-1.9256,-1.9256,-1.9256,-1.9256,-1.9256,-1.9256,-1.9256,-1.9126,-1.8769,-1.8728,-1.8582,-1.8217,-1.8176,-1.8176,-1.8176,-1.8176,-1.7701,-1.6393,-1.4885,-1.3381,-1.1873,-1.0271,-0.9332,-0.9142,-0.9142,-0.9142,-0.9142,-0.9142,-0.9142,-0.9142,-0.9142,-0.9142,0.0,0.0,-4.2765,0.0,-4.2765,-4.2765,0.0,0.0,0.0,0.0,0.0,0.0,0.0,0.0,0.0,0.0,0.0,0.0,0.0,0.0,0.0,0.0,0.0,0.0,0.0,0.0,0.0,0.0,0.0,0.0,-2.6638,-2.6595,-2.639,-2.5981,-2.5906,-2.5776,-2.5572,-2.5529,-2.5518,-2.5518,-2.5518,-2.5518,-2.5518,-2.5518,-2.5518,-2.5518,-2.5518,-2.5518,-2.5518,-2.5518,-2.5518,-2.5518,-2.5518,-2.5518,-2.5518,-2.5518,-2.5518,-2.5518,-2.5518,-2.5518,-2.5518,-2.5518,-2.5518,-2.5518,-2.5518,-2.4935,-2.4156,-2.4058,-2.2583,-2.1022,-2.0826,-2.0038,-1.9256,-1.9256,-1.9256,-1.9256,-1.9256,-1.9256,-1.9256,-1.9256,-1.9256,-1.9256,-1.9256,-1.9256,-1.9256,-1.9256,-1.9256,-1.9126,-1.8769,-1.8728,-1.8582,-1.8217,-1.8176,-1.8176,-1.8176,-1.8176,-1.8083,-1.7896,-1.6486,-1.4979,-1.3481,-1.1873,-1.046,-0.9142,-0.9142,-0.9142,-0.9142,-0.9142,-0.9142,-0.9142,-0.9142,-0.9142,-4.2714,-4.2765,-4.2765,0.0,-4.2765,-4.2765,-4.2765,0.0,0.0,0.0,0.0,0.0,0.0,0.0,0.0,0.0,0.0,0.0,0.0,0.0,0.0,0.0,0.0,0.0,0.0,0.0,0.0,0.0,0.0,-2.6692,-2.6584,-2.6325,-2.6089,-2.5873,-2.5744,-2.5626,-2.5518,-2.5518,-2.5518,-2.5518,-2.5518,-2.5518,-2.5518,-2.5518,-2.5518,-2.5518,-2.5518,-2.5518,-2.5518,-2.5518,-2.5518,-2.5518,-2.5518,-2.5518,-2.5518,-2.5518,-2.5518,-2.5518,-2.5518,-2.5518,-2.5518,-2.5518,-2.5518,-2.5518,-2.5518,-2.4838,-2.3863,-2.3268,-2.1995,-2.0629,-2.0145,-1.9651,-1.9256,-1.9256,-1.9256,-1.9256,-1.9256,-1.9256,-1.9256,-1.9256,-1.9256,-1.9256,-1.9256,-1.9256,-1.9256,-1.9256,-1.9256,-1.9126,-1.8769,-1.8728,-1.8582,-1.8217,-1.8176,-1.8176,-1.8176,-1.8176,-1.8176,-1.8176,-1.6767,-1.5261,-1.3764,-1.225,-1.0649,-0.9142,-0.9142,-0.9142,-0.9142,-0.9142,-0.9142,-0.9142,-0.9142,-0.9142,0.0,0.0,-4.2765,-4.2765,-4.2573,-4.246,0.0,0.0,0.0,0.0,0.0,0.0,0.0,0.0,0.0,0.0,0.0,0.0,0.0,0.0,0.0,0.0,0.0,0.0,0.0,0.0,0.0,0.0,0.0,-2.653,-2.6412,-2.6067,-2.5841,-2.5776,-2.5604,-2.5518,-2.5518,-2.5518,-2.5518,-2.5518,-2.5518,-2.5518,-2.5518,-2.5518,-2.5518,-2.5518,-2.5518,-2.5518,-2.5518,-2.5518,-2.5518,-2.5518,-2.5518,-2.5518,-2.5518,-2.5518,-2.5518,-2.5518,-2.5518,-2.5518,-2.5518,-2.5518,-2.5518,-2.5421,-2.5227,-2.4448,-2.3375,-2.2289,-2.121,-2.0235,-1.9454,-1.9256,-1.9256,-1.9256,-1.9256,-1.9256,-1.9256,-1.9256,-1.9256,-1.9256,-1.9256,-1.9256,-1.9256,-1.9256,-1.9256,-1.9256,-1.9256,-1.9126,-1.8769,-1.8728,-1.8582,-1.8217,-1.8176,-1.8176,-1.8176,-1.8176,-1.8176,-1.8176,-1.7141,-1.5636,-1.3764,-1.2627,-1.1028,-0.9142,-0.9142,-0.9142,-0.9142,-0.9142,-0.9142,-0.9142,-0.9142,-0.9142,0.0,-4.2765,0.0,-4.2765,0.0,0.0,0.0,0.0,0.0,0.0,0.0,0.0,0.0,0.0,0.0,0.0,0.0,0.0,0.0,0.0,0.0,0.0,0.0,0.0,0.0,0.0,0.0,0.0,0.0,-2.639,-2.5927,-2.5884,-2.5766,-2.555,-2.5529,-2.5518,-2.5518,-2.5518,-2.5518,-2.5518,-2.5518,-2.5518,-2.5518,-2.5518,-2.5518,-2.5518,-2.5518,-2.5518,-2.5518,-2.5518,-2.5518,-2.5518,-2.5518,-2.5518,-2.5518,-2.5518,-2.5518,-2.5518,-2.5518,-2.5518,-2.5518,-2.5518,-2.5518,-2.5324,-2.4351,-2.3365,-2.2289,-2.121,-2.0136,-1.9355,-1.9355,-1.9256,-1.9256,-1.9256,-1.9256,-1.9256,-1.9256,-1.9256,-1.9256,-1.9256,-1.9256,-1.9256,-1.9256,-1.9256,-1.9256,-1.9256,-1.9256,-1.9126,-1.8769,-1.8728,-1.8582,-1.8217,-1.8176,-1.8176,-1.8176,-1.8176,-1.8176,-1.8176,-1.8083,-1.6767,-1.3858,-1.3575,-1.2161,-0.9142,-0.9142,-0.9142,-0.9142,-0.9142,-0.9142,-0.9142,-0.9142,-0.9142,0.0,0.0,0.0,0.0,0.0,0.0,0.0,0.0,0.0,0.0,0.0,0.0,0.0,0.0,0.0,0.0,0.0,0.0,0.0,0.0,0.0,0.0,0.0,0.0,0.0,0.0,0.0,0.0,0.0,0.0,-2.5873,-2.5723,-2.5604,-2.5518,-2.5518,-2.5518,-2.5518,-2.5518,-2.5518,-2.5518,-2.5518,-2.5518,-2.5518,-2.5518,-2.5518,-2.5518,-2.5518,-2.5518,-2.5518,-2.5518,-2.5518,-2.5518,-2.5518,-2.5518,-2.5518,-2.5518,-2.5518,-2.5518,-2.5518,-2.5518,-2.5421,-2.474,-2.4546,-2.4351,-2.3268,-2.2191,-2.1317,-2.0924,-2.0038,-1.9256,-1.9256,-1.9256,-1.9256,-1.9256,-1.9256,-1.9256,-1.9256,-1.9256,-1.9256,-1.9256,-1.9256,-1.9256,-1.9256,-1.9256,-1.9256,-1.9256,-1.9256,-1.9126,-1.8769,-1.8728,-1.8582,-1.8217,-1.8176,-1.8176,-1.8176,-1.8176,-1.8176,-1.8176,-1.8176,-1.686,-1.3858,-1.367,-1.2256,-0.9142,-0.9142,-0.9142,-0.9142,-0.9142,-0.9142,-0.9142,-0.9142,-0.9142,-4.2765,0.0,0.0,0.0,0.0,0.0,0.0,0.0,0.0,0.0,0.0,0.0,0.0,0.0,0.0,0.0,0.0,0.0,0.0,0.0,0.0,0.0,0.0,0.0,0.0,0.0,0.0,0.0,0.0,0.0,-2.5755,-2.5604,-2.5518,-2.5518,-2.5518,-2.5518,-2.5518,-2.5518,-2.5518,-2.5518,-2.5518,-2.5518,-2.5518,-2.5518,-2.5518,-2.5518,-2.5518,-2.5518,-2.5518,-2.5518,-2.5518,-2.5518,-2.5518,-2.5518,-2.5518,-2.5518,-2.5518,-2.5518,-2.5518,-2.5518,-2.5324,-2.4351,-2.3961,-2.3766,-2.2289,-2.1415,-2.0727,-2.0432,-1.9849,-1.9256,-1.9256,-1.9256,-1.9256,-1.9256,-1.9256,-1.9256,-1.9256,-1.9256,-1.9256,-1.9256,-1.9256,-1.9256,-1.9256,-1.9256,-1.9256,-1.9256,-1.9207,-1.9061,-1.8761,-1.8671,-1.8517,-1.8208,-1.8176,-1.8176,-1.8176,-1.8176,-1.8176,-1.8176,-1.8176,-1.7048,-1.4516,-1.3952,-1.2444,-0.9896,-0.9332,-0.9142,-0.9142,-0.9142,-0.9142,-0.9142,-0.9142,-0.9142,0.0,0.0,0.0,0.0,0.0,0.0,0.0,0.0,0.0,0.0,0.0,0.0,0.0,0.0,0.0,0.0,0.0,0.0,0.0,0.0,0.0,0.0,0.0,0.0,0.0,0.0,0.0,0.0,0.0,-2.5755,-2.5529,-2.5518,-2.5518,-2.5518,-2.5518,-2.5518,-2.5518,-2.5518,-2.5518,-2.5518,-2.5518,-2.5518,-2.5518,-2.5518,-2.5518,-2.5518,-2.5518,-2.5518,-2.5518,-2.5518,-2.5518,-2.5518,-2.5518,-2.5518,-2.5518,-2.5518,-2.5518,-2.5518,-2.5518,-2.5518,-2.5324,-2.4253,-2.3961,-2.3463,-2.1406,-2.0727,-2.053,-1.9553,-1.9256,-1.9256,-1.9256,-1.9256,-1.9256,-1.9256,-1.9256,-1.9256,-1.9256,-1.9256,-1.9256,-1.9256,-1.9256,-1.9256,-1.9256,-1.9256,-1.9256,-1.9256,-1.9102,-1.8923,-1.8744,-1.8566,-1.8379,-1.8192,-1.8176,-1.8176,-1.8176,-1.8176,-1.8176,-1.8176,-1.8176,-1.7515,-1.5917,-1.4422,-1.2916,-1.1401,-0.9896,-0.9142,-0.9142,-0.9142,-0.9142,-0.9142,-0.9142,-0.9142,-4.2765,0.0,0.0,0.0,0.0,0.0,0.0,0.0,0.0,0.0,0.0,0.0,0.0,0.0,0.0,0.0,0.0,0.0,0.0,0.0,0.0,0.0,0.0,0.0,0.0,0.0,0.0,0.0,-2.5712,-2.5583,-2.5518,-2.5518,-2.5518,-2.5518,-2.5518,-2.5518,-2.5518,-2.5518,-2.5518,-2.5518,-2.5518,-2.5518,-2.5518,-2.5518,-2.5518,-2.5518,-2.5518,-2.5518,-2.5518,-2.5518,-2.5518,-2.5518,-2.5518,-2.5518,-2.5518,-2.5518,-2.5518,-2.5518,-2.5518,-2.5032,-2.4253,-2.317,-2.2289,-2.1406,-2.0145,-1.975,-1.9651,-1.9355,-1.9256,-1.9256,-1.9256,-1.9256,-1.9256,-1.9256,-1.9256,-1.9256,-1.9256,-1.9256,-1.9256,-1.9256,-1.9256,-1.9256,-1.9256,-1.9256,-1.9256,-1.9256,-1.9102,-1.8923,-1.8744,-1.8566,-1.8379,-1.8192,-1.8176,-1.8176,-1.8176,-1.8176,-1.8176,-1.8176,-1.8176,-1.7048,-1.4422,-1.3952,-1.2444,-0.9802,-0.9332,-0.9142,-0.9142,-0.9142,-0.9142,-0.9142,-0.9142,-0.9142,-4.2765,-4.2765,-4.2669,-4.2268,0.0,0.0,0.0,-3.8157,0.0,0.0,0.0,0.0,0.0,0.0,0.0,0.0,0.0,0.0,0.0,0.0,0.0,0.0,0.0,0.0,0.0,0.0,0.0,-2.5723,-2.5593,-2.5518,-2.5518,-2.5518,-2.5518,-2.5518,-2.5518,-2.5518,-2.5518,-2.5518,-2.5518,-2.5518,-2.5518,-2.5518,-2.5518,-2.5518,-2.5518,-2.5518,-2.5518,-2.5518,-2.5518,-2.5518,-2.5518,-2.5518,-2.5518,-2.5518,-2.5518,-2.5518,-2.5518,-2.5421,-2.5032,-2.4448,-2.3766,-2.2191,-2.1308,-2.0629,-1.9553,-1.9256,-1.9256,-1.9256,-1.9256,-1.9256,-1.9256,-1.9256,-1.9256,-1.9256,-1.9256,-1.9256,-1.9256,-1.9256,-1.9256,-1.9256,-1.9256,-1.9256,-1.9256,-1.9256,-1.9232,-1.9159,-1.8988,-1.8809,-1.8631,-1.8452,-1.8298,-1.8184,-1.8176,-1.8176,-1.8176,-1.8176,-1.8176,-1.8176,-1.8176,-1.7421,-1.5636,-1.4328,-1.2822,-1.1028,-0.9711,-0.9142,-0.9142,-0.9142,-0.9142,-0.9142,-0.9142,-0.9142,-4.2765,-4.2765,-4.246,-4.1464,-4.1175,0.0,-3.8647,-3.8074,-3.7765,0.0,0.0,0.0,0.0,0.0,0.0,0.0,0.0,0.0,0.0,0.0,0.0,0.0,0.0,0.0,0.0,-2.583,-2.5744,-2.5529,-2.5518,-2.5518,-2.5518,-2.5518,-2.5518,-2.5518,-2.5518,-2.5518,-2.5518,-2.5518,-2.5518,-2.5518,-2.5518,-2.5518,-2.5518,-2.5518,-2.5518,-2.5518,-2.5518,-2.5518,-2.5518,-2.5518,-2.5518,-2.5518,-2.5518,-2.5518,-2.5518,-2.5518,-2.5421,-2.5227,-2.4351,-2.3863,-2.3365,-2.1415,-2.0727,-2.0432,-1.9553,-1.9256,-1.9256,-1.9256,-1.9256,-1.9256,-1.9256,-1.9256,-1.9256,-1.9256,-1.9256,-1.9256,-1.9256,-1.9256,-1.9256,-1.9256,-1.9256,-1.9256,-1.9256,-1.9256,-1.9199,-1.9013,-1.8834,-1.8663,-1.8476,-1.829,-1.8176,-1.8176,-1.8176,-1.8176,-1.8176,-1.8176,-1.8176,-1.8176,-1.8176,-1.8083,-1.7989,-1.5174,-1.3575,-1.3481,-1.0559,-0.9142,-0.9142,-0.9142,-0.9142,-0.9142,-0.9142,-0.9142,-4.2765,-4.2172,-4.1577,-4.1368,-4.0012,0.0,-3.8271,-3.7485,-3.682,0.0,0.0,0.0,0.0,0.0,0.0,0.0,0.0,0.0,0.0,0.0,0.0,0.0,0.0,0.0,0.0,-2.5583,-2.5572,-2.5518,-2.5518,-2.5518,-2.5518,-2.5518,-2.5518,-2.5518,-2.5518,-2.5518,-2.5518,-2.5518,-2.5518,-2.5518,-2.5518,-2.5518,-2.5518,-2.5518,-2.5518,-2.5518,-2.5518,-2.5518,-2.5518,-2.5518,-2.5518,-2.5518,-2.5518,-2.5518,-2.5518,-2.5518,-2.5032,-2.4253,-2.4058,-2.2877,-2.1308,-2.0924,-2.0235,-1.9553,-1.9355,-1.9256,-1.9256,-1.9256,-1.9256,-1.9256,-1.9256,-1.9256,-1.9256,-1.9256,-1.9256,-1.9256,-1.9256,-1.9256,-1.9256,-1.9256,-1.9256,-1.9256,-1.9256,-1.9256,-1.9199,-1.9013,-1.8834,-1.8663,-1.8476,-1.829,-1.8176,-1.8176,-1.8176,-1.8176,-1.8176,-1.8176,-1.8176,-1.8176,-1.8176,-1.7608,-1.6385,-1.461,-1.3104,-1.1873,-1.0086,-0.9142,-0.9142,-0.9142,-0.9142,-0.9142,-0.9142,-0.9142,-4.2765,-4.2059,-4.1175,-4.0691,-3.9331,0.0,0.0,-3.6874,-3.6319,0.0,0.0,0.0,0.0,0.0,0.0,0.0,0.0,0.0,0.0,0.0,0.0,0.0,0.0,0.0,0.0,-2.5518,-2.5518,-2.5518,-2.5518,-2.5518,-2.5518,-2.5518,-2.5518,-2.5518,-2.5518,-2.5518,-2.5518,-2.5518,-2.5518,-2.5518,-2.5518,-2.5518,-2.5518,-2.5518,-2.5518,-2.5518,-2.5518,-2.5518,-2.5518,-2.5518,-2.5518,-2.5518,-2.5518,-2.5518,-2.5421,-2.4935,-2.4448,-2.3863,-2.2779,-2.171,-2.0727,-2.0235,-1.975,-1.9256,-1.9256,-1.9256,-1.9256,-1.9256,-1.9256,-1.9256,-1.9256,-1.9256,-1.9256,-1.9256,-1.9256,-1.9256,-1.9256,-1.9256,-1.9256,-1.9256,-1.9256,-1.9256,-1.9256,-1.9183,-1.9061,-1.8883,-1.8704,-1.8525,-1.8338,-1.8233,-1.8176,-1.8176,-1.8176,-1.8176,-1.8176,-1.8176,-1.8176,-1.8176,-1.8176,-1.7888,-1.7048,-1.5643,-1.3758,-1.1401,-0.9896,-0.9142,-0.9142,-0.9142,-0.9142,-0.9142,-0.9142,-0.9142,0.0,0.0,0.0,0.0,0.0,-3.7878,0.0,0.0,0.0,0.0,0.0,0.0,0.0,0.0,0.0,0.0,0.0,0.0,0.0,0.0,0.0,0.0,0.0,0.0,0.0,-2.5518,-2.5518,-2.5518,-2.5518,-2.5518,-2.5518,-2.5518,-2.5518,-2.5518,-2.5518,-2.5518,-2.5518,-2.5518,-2.5518,-2.5518,-2.5518,-2.5518,-2.5518,-2.5518,-2.5518,-2.5518,-2.5518,-2.5518,-2.5518,-2.5518,-2.5518,-2.5518,-2.5518,-2.5518,-2.5421,-2.4351,-2.3863,-2.3375,-2.1505,-2.0629,-2.0333,-1.9553,-1.9256,-1.9256,-1.9256,-1.9256,-1.9256,-1.9256,-1.9256,-1.9256,-1.9256,-1.9256,-1.9256,-1.9256,-1.9256,-1.9256,-1.9256,-1.9256,-1.9248,-1.9216,-1.9207,-1.9207,-1.9207,-1.9086,-1.8915,-1.8704,-1.855,-1.8387,-1.82,-1.8176,-1.8176,-1.8176,-1.8176,-1.8176,-1.8176,-1.8176,-1.8176,-1.8176,-1.8176,-1.8176,-1.8176,-1.6486,-1.4228,-1.1495,-0.9896,-0.9142,-0.9142,-0.9142,-0.9142,-0.9142,-0.9142,-0.9142,0.0,0.0,0.0,0.0,-3.894,0.0,0.0,0.0,-3.6041,-3.5749,0.0,0.0,0.0,0.0,0.0,0.0,0.0,0.0,0.0,0.0,0.0,0.0,0.0,0.0,0.0,0.0,-2.5518,-2.5518,-2.5518,-2.5518,-2.5518,-2.5518,-2.5518,-2.5518,-2.5518,-2.5518,-2.5518,-2.5518,-2.5518,-2.5518,-2.5518,-2.5518,-2.5518,-2.5518,-2.5518,-2.5518,-2.5518,-2.5518,-2.5518,-2.5518,-2.5518,-2.5518,-2.5518,-2.5518,-2.5421,-2.4351,-2.3365,-2.2387,-2.1219,-2.0235,-1.9454,-1.9355,-1.9256,-1.9256,-1.9256,-1.9256,-1.9256,-1.9256,-1.9256,-1.9256,-1.9256,-1.9256,-1.9256,-1.9256,-1.9256,-1.9256,-1.9256,-1.9256,-1.9207,-1.9045,-1.9013,-1.9013,-1.9013,-1.8996,-1.8866,-1.8533,-1.8468,-1.8387,-1.82,-1.8176,-1.8176,-1.8176,-1.8176,-1.8176,-1.8176,-1.8176,-1.8176,-1.8176,-1.8176,-1.8176,-1.8176,-1.5455,-1.3193,-1.1401,-0.9896,-0.9142,-0.9142,-0.9142,-0.9142,-0.9142,-0.9142,-0.9142,0.0,0.0,0.0,0.0,0.0,0.0,-3.6696,0.0,-3.5807,0.0,0.0,0.0,0.0,0.0,0.0,0.0,0.0,0.0,0.0,0.0,0.0,0.0,0.0,0.0,0.0,0.0,0.0,0.0,0.0,-2.5518,-2.5518,-2.5518,-2.5518,-2.5518,-2.5518,-2.5518,-2.5518,-2.5518,-2.5518,-2.5518,-2.5518,-2.5518,-2.5518,-2.5518,-2.5518,-2.5518,-2.5518,-2.5518,-2.5518,-2.5518,-2.5518,-2.5518,-2.5518,-2.5518,-2.5324,-2.3658,-2.2779,-2.2191,-2.053,-1.9651,-1.9256,-1.9256,-1.9256,-1.9256,-1.9256,-1.9256,-1.9256,-1.9256,-1.9256,-1.9256,-1.9256,-1.9256,-1.9256,-1.9256,-1.9256,-1.9256,-1.9256,-1.9175,-1.9077,-1.8996,-1.8899,-1.8801,-1.8696,-1.8671,-1.8623,-1.8476,-1.8363,-1.8265,-1.8184,-1.8176,-1.8176,-1.8176,-1.8176,-1.8176,-1.8176,-1.8176,-1.8176,-1.8176,-1.8176,-1.7795,-1.686,-1.4798,-1.3004,-1.1401,-0.9896,-0.9142,-0.9142,-0.9142,-0.9142,-0.9142,-0.9142,-0.9142,-4.1577,0.0,0.0,0.0,0.0,0.0,0.0,0.0,0.0,0.0,0.0,0.0,0.0,0.0,0.0,0.0,0.0,0.0,0.0,0.0,0.0,0.0,0.0,0.0,0.0,0.0,0.0,0.0,-2.5518,-2.5518,-2.5518,-2.5518,-2.5518,-2.5518,-2.5518,-2.5518,-2.5518,-2.5518,-2.5518,-2.5518,-2.5518,-2.5518,-2.5518,-2.5518,-2.5518,-2.5518,-2.5518,-2.5518,-2.5518,-2.5518,-2.5518,-2.5518,-2.5518,-2.5324,-2.4838,-2.3072,-2.2387,-2.2093,-2.0046,-1.9256,-1.9256,-1.9256,-1.9256,-1.9256,-1.9256,-1.9256,-1.9256,-1.9256,-1.9256,-1.9256,-1.9256,-1.9256,-1.9256,-1.9256,-1.9224,-1.9183,-1.9183,-1.9037,-1.8899,-1.885,-1.8736,-1.859,-1.8403,-1.842,-1.8436,-1.8387,-1.8265,-1.8176,-1.8176,-1.8176,-1.8176,-1.8176,-1.8176,-1.8176,-1.8176,-1.8176,-1.8176,-1.8176,-1.8176,-1.7701,-1.658,-1.4704,-1.3199,-1.2062,-1.0086,-0.9142,-0.9142,-0.9142,-0.9142,-0.9142,-0.9142,-0.9142,0.0,0.0,0.0,-3.8745,0.0,0.0,0.0,0.0,-3.5742,0.0,0.0,0.0,0.0,0.0,0.0,-3.1491,0.0,0.0,0.0,0.0,0.0,0.0,0.0,0.0,0.0,0.0,0.0,-2.5518,-2.5518,-2.5518,-2.5518,-2.5518,-2.5518,-2.5518,-2.5518,-2.5518,-2.5518,-2.5518,-2.5518,-2.5518,-2.5518,-2.5518,-2.5518,-2.5518,-2.5518,-2.5518,-2.5518,-2.5518,-2.5518,-2.5518,-2.5518,-2.5518,-2.5518,-2.4935,-2.3961,-2.2779,-2.2387,-2.2093,-2.0046,-1.9256,-1.9256,-1.9256,-1.9256,-1.9256,-1.9256,-1.9256,-1.9256,-1.9256,-1.9256,-1.9256,-1.9256,-1.9256,-1.9256,-1.9256,-1.9126,-1.8988,-1.8988,-1.8858,-1.868,-1.8501,-1.8468,-1.8403,-1.8217,-1.833,-1.8387,-1.8208,-1.8176,-1.8176,-1.8176,-1.8176,-1.8176,-1.8176,-1.8176,-1.8176,-1.8176,-1.8176,-1.8176,-1.8176,-1.8176,-1.8176,-1.8176,-1.5268,-1.367,-1.367,-1.0654,-0.9142,-0.9142,-0.9142,-0.9142,-0.9142,-0.9142,-0.9142,0.0,0.0,-3.894,-3.7485,0.0,0.0,0.0,0.0,0.0,0.0,0.0,0.0,0.0,0.0,0.0,0.0,0.0,0.0,0.0,0.0,0.0,0.0,0.0,0.0,0.0,0.0,0.0,-2.5518,-2.5518,-2.5518,0.0,-2.5518,-2.5518,-2.5518,-2.5518,-2.5518,-2.5518,-2.5518,-2.5518,-2.5518,-2.5518,-2.5518,-2.5518,-2.5518,-2.5518,-2.5518,-2.5518,-2.5518,-2.5518,-2.5518,-2.5518,-2.5421,-2.474,-2.4351,-2.3863,-2.2779,-2.1995,-2.1121,-1.975,-1.9256,-1.9256,-1.9256,-1.9256,-1.9256,-1.9256,-1.9256,-1.9256,-1.9256,-1.9256,-1.9256,-1.9256,-1.9167,-1.9077,-1.9077,-1.8939,-1.8809,-1.8809,-1.8671,-1.8525,-1.8468,-1.8355,-1.8249,-1.8184,-1.8225,-1.8249,-1.8184,-1.8176,-1.8176,-1.8176,-1.8176,-1.8176,-1.8176,-1.8176,-1.8176,-1.8176,-1.8176,-1.8176,-1.8176,-1.8176,-1.7328,-1.5261,-1.4234,-1.2727,-1.0654,-0.9616,-0.9142,-0.9142,-0.9142,-0.9142,-0.9142,-0.9142,-0.9142,-3.9526,-3.8647,0.0,-3.6893,-3.6597,0.0,-3.6597,0.0,0.0,0.0,0.0,0.0,0.0,0.0,0.0,0.0,0.0,0.0,0.0,0.0,0.0,0.0,0.0,0.0,0.0,0.0,-2.5518,-2.5518,-2.5518,-2.5518,0.0,0.0,-2.5518,-2.5518,-2.5518,-2.5518,-2.5518,-2.5518,-2.5518,-2.5518,-2.5518,-2.5518,-2.5518,-2.5518,-2.5518,-2.5518,-2.5518,-2.5518,-2.5518,-2.5518,-2.5324,-2.4935,-2.4253,-2.3571,-2.2779,-2.2093,-2.1219,-2.0136,-1.9553,-1.9256,-1.9256,-1.9256,-1.9256,-1.9256,-1.9256,-1.9256,-1.9248,-1.9175,-1.9207,-1.9232,-1.9102,-1.9029,-1.8964,-1.8907,-1.8753,-1.8631,-1.8631,-1.8485,-1.8355,-1.8355,-1.8257,-1.8176,-1.8176,-1.8176,-1.8176,-1.8176,-1.8176,-1.8176,-1.8176,-1.8176,-1.8176,-1.8176,-1.8176,-1.8176,-1.8176,-1.8176,-1.8176,-1.8176,-1.8176,-1.7328,-1.5362,-1.4234,-1.2744,-1.0801,-0.9629,-0.9158,-0.9191,-0.9158,-0.9142,-0.9142,-0.9142,-0.9142]}]]